Date StartTime U_cm/s V_cm/s W_cm/s Ustd_cm/s Vstd_cm/s Wstd_cm/s Uvar_(cm/s)^2 Vvar_(cm/s)^2 Wvar_(cm/s)^2 KE_(m/s)^2 TurbulentKE_(m/s)^2 HorizWindSpeed_cm/s FrictionSpeec_cm/s DragCoef SpeedOfSound_m/s SonicTemperature_C Pressure_mb 
11/28/2014  00:00:00      -58.787      -23.842       -6.449       25.536       28.398       14.464      652.085      806.444      209.212        0.287        0.083       63.438        9.818        0.024      338.593       11.350      861.935
11/28/2014  00:01:00       26.260        6.590       -1.200       23.840       17.170        8.705      568.348      294.814       75.771        0.084        0.047       27.074       10.489        0.150      339.004       12.041      861.872
11/28/2014  00:02:00       65.495       15.874       -0.285       29.015       16.641       16.336      841.852      276.938      266.870        0.296        0.069       67.392       11.963        0.032      338.779       11.662      861.798
11/28/2014  00:03:00       48.873       28.527       -3.638       16.658       14.201       18.027      277.495      201.657      324.979        0.201        0.040       56.590       12.407        0.048      339.130       12.253      861.722
11/28/2014  00:04:00      -55.121      -10.669      -10.125       36.109       25.134       12.687     1303.834      631.712      160.954        0.268        0.105       56.144        8.725        0.024      338.954       11.957      861.684
11/28/2014  00:05:00      -20.724      -33.525       -2.676       18.014       36.812       15.132      324.508     1355.154      228.963        0.173        0.095       39.413       22.188        0.317      338.786       11.675      861.726
11/28/2014  00:06:00      -34.986      -45.138      -10.165       20.058       20.763       11.738      402.311      431.113      137.781        0.217        0.049       57.110        9.805        0.029      339.091       12.187      861.803
11/28/2014  00:07:00      -73.070      -72.597      -11.416       25.852       28.654       17.155      668.336      821.047      294.294        0.626        0.089      103.003       10.975        0.011      339.184       12.344      861.822
11/28/2014  00:08:00      -87.852      -34.736      -21.906       34.004       26.807       16.097     1156.281      718.617      259.123        0.577        0.107       94.470       17.940        0.036      339.171       12.322      861.752
11/28/2014  00:09:00      -38.421       -5.829       -4.427       23.822       33.153       14.428      567.484     1099.104      208.170        0.170        0.094       38.860       14.428        0.138      339.087       12.180      861.718
11/28/2014  00:10:00       17.637       17.948        0.526       20.182       23.417       11.863      407.316      548.340      140.738        0.086        0.055       25.163        7.348        0.085      339.140       12.269      861.714
11/28/2014  00:11:00       12.823       10.793        4.026       31.078       18.869       16.174      965.843      356.056      261.610        0.094        0.079       16.760       10.856        0.420      338.913       11.887      861.718
11/28/2014  00:12:00      -20.168        1.264       -1.831       33.458       29.709       14.171     1119.443      882.610      200.811        0.131        0.110       20.208       16.397        0.658      338.384       10.999      861.746
11/28/2014  00:13:00      -45.305       60.534      -11.821       26.133       21.600       11.798      682.950      466.569      139.194        0.357        0.064       75.610       10.038        0.018      338.819       11.729      861.734
11/28/2014  00:14:00      -22.666       71.323       -3.755       41.388       39.430       19.574     1712.926     1554.733      383.128        0.463        0.183       74.838       20.109        0.072      339.376       12.666      861.654
11/28/2014  00:15:00     -149.027      -38.379      -17.106       74.728       53.858       23.418     5584.230     2900.701      548.399        1.650        0.452      153.890       24.498        0.025      338.048       10.434      861.672
11/28/2014  00:16:00     -158.475       -2.054      -11.160       89.168       42.242       29.571     7951.006     1784.419      874.464        1.792        0.530      158.489       40.461        0.065      337.753        9.940      861.752
11/28/2014  00:17:00     -112.962       17.205      -10.626       55.047       35.544       28.177     3030.155     1263.365      793.954        0.913        0.254      114.265       29.699        0.068      339.043       12.108      861.735
11/28/2014  00:18:00      -34.140       35.101       -7.210       25.702       26.945       17.049      660.568      726.037      290.662        0.206        0.084       48.966       11.813        0.058      338.733       11.585      861.686
11/28/2014  00:19:00      -67.635      -38.975      -10.215       22.281       42.098       11.156      496.426     1772.272      124.460        0.430        0.120       78.061        3.768        0.002      339.335       12.598      861.641
11/28/2014  00:20:00      -87.349      -54.082      -15.331       32.668       27.715       14.378     1067.190      768.119      206.730        0.642        0.102      102.736       17.587        0.029      338.933       11.921      861.625
11/28/2014  00:21:00      -63.725       30.087      -10.083       28.434       73.883       17.509      808.511     5458.714      306.551        0.582        0.329       70.470       15.581        0.049      338.867       11.811      861.614
11/28/2014  00:22:00      -16.318      -30.221       -8.351       27.428       64.162       16.852      752.274     4116.730      284.001        0.320        0.258       34.345       25.507        0.552      338.942       11.938      861.641
11/28/2014  00:23:00      -36.656      -35.116       -4.245       23.129       15.171       13.156      534.957      230.154      173.070        0.177        0.047       50.762       12.956        0.065      339.152       12.288      861.703
11/28/2014  00:24:00      -28.793     -113.521       -4.071       39.409       69.190       31.009     1553.047     4787.211      961.543        1.052        0.365      117.116       29.691        0.064      339.402       12.710      861.730
11/28/2014  00:25:00     -165.549      -50.275      -20.839       40.732       52.817       24.183     1659.070     2789.630      584.834        1.770        0.252      173.014       18.258        0.011      339.527       12.920      861.672
11/28/2014  00:26:00     -139.650      -76.471      -15.501       37.493       51.898       27.778     1405.750     2693.432      771.641        1.523        0.244      159.217       16.717        0.011      339.521       12.911      861.629
11/28/2014  00:27:00     -137.975      -24.795      -14.392       27.650       31.850       22.695      764.526     1014.447      515.072        1.108        0.115      140.185       14.771        0.011      339.350       12.623      861.575
11/28/2014  00:28:00     -121.059      -45.146       -3.452       26.522       22.442       16.538      703.420      503.643      273.493        0.909        0.074      129.204       12.673        0.010      339.070       12.151      861.565
11/28/2014  00:29:00       -5.165      -19.420       14.561       31.524       37.091       21.602      993.761     1375.708      466.656        0.173        0.142       20.095       22.829        1.291      338.750       11.614      861.607
11/28/2014  00:30:00       -7.672      -30.228       -4.410       24.536       24.564        9.888      601.998      603.406       97.769        0.115        0.065       31.187        7.841        0.063      338.817       11.725      861.632
11/28/2014  00:31:00       -7.898       14.322        6.058       38.169       19.379       17.374     1456.888      375.530      301.863        0.122        0.107       16.355       17.641        1.163      338.461       11.127      861.623
11/28/2014  00:32:00      -59.243       32.984       -7.535       34.788       38.388       15.833     1210.213     1473.616      250.687        0.379        0.147       67.806       16.146        0.057      338.913       11.887      861.584
11/28/2014  00:33:00      -51.051      -27.476        3.167       39.651       22.204       16.441     1572.235      493.001      270.290        0.285        0.117       57.975       19.996        0.119      338.284       10.831      861.592
11/28/2014  00:34:00     -126.502      -37.572      -19.474       23.582       16.623        7.380      556.120      276.318       54.459        0.934        0.044      131.964        8.169        0.004      338.483       11.166      861.574
11/28/2014  00:35:00     -140.472      -14.756       -5.000       51.442       54.016       33.706     2646.327     2917.734     1136.067        1.334        0.335      141.245       31.705        0.050      338.472       11.147      861.553
11/28/2014  00:36:00     -147.605      -44.945       -5.551       51.011       47.415       31.863     2602.133     2248.164     1015.257        1.485        0.293      154.297       23.334        0.023      338.390       11.008      861.514
11/28/2014  00:37:00     -154.897      -50.996      -20.404       36.257       35.640       24.412     1314.541     1270.216      595.949        1.509        0.159      163.076       17.440        0.011      338.429       11.075      861.465
11/28/2014  00:38:00     -222.015      -71.051       -8.939       76.431       57.490       34.669     5841.772     3305.150     1201.917        3.238        0.517      233.107       31.557        0.018      338.627       11.403      861.465
11/28/2014  00:39:00     -168.069      -30.798      -11.502       33.465       35.511       19.063     1119.905     1261.024      363.392        1.604        0.137      170.867       15.565        0.008      338.312       10.878      861.495
11/28/2014  00:40:00     -115.277       33.510      -14.597       33.238       40.027       21.683     1104.748     1602.167      470.146        0.890        0.159      120.049       16.369        0.019      339.106       12.213      861.399
11/28/2014  00:41:00     -110.600       16.451       -5.720       48.451       49.396       26.518     2347.491     2439.919      703.189        0.901        0.275      111.817       27.726        0.061      338.979       11.998      861.329
11/28/2014  00:42:00     -139.170      -50.798      -15.444       61.973       32.293       21.292     3840.600     1042.839      453.360        1.376        0.267      148.151       21.353        0.021      338.278       10.821      861.322
11/28/2014  00:43:00     -242.254      -72.317      -28.612       28.921       44.941       20.493      836.448     2019.697      419.947        3.401        0.164      252.818       15.551        0.004      337.508        9.524      861.370
11/28/2014  00:44:00     -182.197      -24.991       -9.820       38.116       39.514       25.990     1452.862     1561.363      675.499        1.880        0.184      183.903       21.094        0.013      337.273        9.135      861.401
11/28/2014  00:45:00     -102.259       -5.866       12.084       68.616       55.616       36.856     4708.091     3093.180     1358.354        0.990        0.458      102.427       38.937        0.145      337.591        9.669      861.367
11/28/2014  00:46:00      -17.772      -10.339       18.518       53.370       45.022       29.875     2848.409     2026.980      892.514        0.327        0.288       20.561       28.748        1.955      338.007       10.367      861.342
11/28/2014  00:47:00        9.051       11.953       51.192       50.622       50.030       35.657     2562.593     2502.987     1271.389        0.459        0.317       14.993       38.899        6.731      337.691        9.836      861.352
11/28/2014  00:48:00       -2.377        6.365       20.019       23.689       33.337       24.319      561.155     1111.370      591.406        0.135        0.113        6.795       25.365       13.936      338.007       10.366      861.351
11/28/2014  00:49:00       27.464      -40.443       -8.334       40.027       26.372       16.763     1602.183      695.504      281.010        0.252        0.129       48.887       14.112        0.083      338.690       11.513      861.387
11/28/2014  00:50:00      -10.044      -20.864        8.147       19.487       17.674       16.787      379.761      312.363      281.804        0.079        0.049       23.155       14.239        0.378      338.300       10.857      861.368
11/28/2014  00:51:00      -56.577       19.310       -9.722       20.387       32.870       10.055      415.625     1080.425      101.104        0.263        0.080       59.781        8.385        0.020      338.290       10.841      861.330
11/28/2014  00:52:00      -69.867       26.977       -5.943       23.956       28.090       13.063      573.910      789.036      170.654        0.359        0.077       74.894        8.554        0.013      338.716       11.557      861.319
11/28/2014  00:53:00     -108.840       -7.228      -11.515       34.834       30.176       19.468     1213.420      910.574      379.017        0.727        0.125      109.079       18.120        0.028      338.191       10.674      861.349
11/28/2014  00:54:00     -118.950        7.320      -10.854       79.816       29.915       22.689     6370.598      894.933      514.781        1.105        0.389      119.175       29.098        0.060      338.047       10.434      861.367
11/28/2014  00:55:00      -43.615       14.969       11.397       39.205       41.577       28.481     1537.068     1728.633      811.196        0.317        0.204       46.113       20.939        0.206      338.087       10.500      861.339
11/28/2014  00:56:00      -59.896        5.246       -6.049       32.929       28.907       14.425     1084.348      835.629      208.080        0.289        0.106       60.126        7.041        0.014      338.284       10.831      861.335
11/28/2014  00:57:00      -45.211      -21.128       -3.270       36.616       27.788       16.363     1340.747      772.176      267.762        0.244        0.119       49.904       11.136        0.050      337.702        9.854      861.296
11/28/2014  00:58:00      -37.216      -32.945      -11.332       28.178       22.863       11.920      794.017      522.712      142.081        0.203        0.073       49.703       13.469        0.073      337.717        9.881      861.263
11/28/2014  00:59:00        8.465        3.988       -7.868       32.278       25.554        8.757     1041.895      653.024       76.690        0.096        0.089        9.358        7.358        0.618      338.289       10.840      861.268
11/28/2014  01:00:00       37.466       -8.063        7.757       15.268       29.712       18.516      233.099      882.804      342.835        0.149        0.073       38.324       16.426        0.184      337.981       10.322      861.256
11/28/2014  01:01:00      -21.084       10.111        6.859       42.934       20.834       19.792     1843.349      434.037      391.725        0.163        0.133       23.383       18.729        0.642      337.887       10.165      861.204
11/28/2014  01:02:00     -144.032      -23.547      -21.207       54.200       27.814       26.689     2937.680      773.632      712.327        1.309        0.221      145.944       30.463        0.044      337.113        8.868      861.238
11/28/2014  01:03:00      -63.365       -6.874        1.024       64.979       35.089       34.056     4222.286     1231.221     1159.827        0.534        0.331       63.736       28.617        0.202      337.215        9.040      861.262
11/28/2014  01:04:00      -81.771      -35.884        3.183       44.303       36.898       24.819     1962.721     1361.456      615.988        0.596        0.197       89.298       24.545        0.076      337.220        9.048      861.251
11/28/2014  01:05:00     -162.662      -23.406      -16.616       43.025       27.194       21.770     1851.175      739.504      473.916        1.517        0.153      164.338       21.462        0.017      337.679        9.816      861.260
11/28/2014  01:06:00     -138.599      -22.168       -5.490       50.986       42.206       24.921     2599.588     1781.386      621.053        1.237        0.250      140.360       25.803        0.034      338.034       10.412      861.275
11/28/2014  01:07:00     -116.094      -34.121       -7.178       38.868       28.628       20.132     1510.710      819.563      405.297        0.871        0.137      121.004       20.992        0.030      337.566        9.627      861.257
11/28/2014  01:08:00       16.882      -29.225       16.384       52.393       27.957       26.974     2745.040      781.588      727.588        0.283        0.213       33.750       26.933        0.637      337.816       10.046      861.217
11/28/2014  01:09:00      -23.022      -76.078        1.777       47.107       20.596       16.872     2219.047      424.193      284.657        0.462        0.146       79.485        8.498        0.011      338.487       11.171      861.215
11/28/2014  01:10:00     -120.061      -33.400      -10.132       28.303       42.388       16.109      801.080     1796.721      259.485        0.924        0.143      124.621       11.080        0.008      338.872       11.818      861.195
11/28/2014  01:11:00     -116.816        2.388       -5.109       27.425       35.935       19.553      752.141     1291.318      382.327        0.805        0.121      116.841       13.650        0.014      339.123       12.241      861.163
11/28/2014  01:12:00     -112.624      -39.919      -15.696       36.527       31.738       17.458     1334.245     1007.269      304.786        0.858        0.132      119.489       11.994        0.010      338.828       11.745      861.139
11/28/2014  01:13:00     -157.464      -31.636      -25.801       23.394       26.338       18.404      547.299      693.709      338.698        1.402        0.079      160.610       13.777        0.007      338.661       11.465      861.136
11/28/2014  01:14:00     -141.910      -48.976       -6.577       45.168       32.782       19.903     2040.125     1074.651      396.141        1.304        0.176      150.124       21.220        0.020      338.007       10.366      861.199
11/28/2014  01:15:00      -97.051      -45.444      -11.878       35.676       28.294       16.465     1272.809      800.562      271.089        0.698        0.117      107.163       12.832        0.014      338.140       10.589      861.204
11/28/2014  01:16:00     -119.336      -37.820      -15.104       30.239       21.094       15.264      914.396      444.975      232.995        0.875        0.080      125.186       12.756        0.010      338.415       11.051      861.174
11/28/2014  01:17:00     -156.643      -31.788      -21.233       30.719       22.646       16.376      943.639      512.855      268.176        1.386        0.086      159.836       13.229        0.007      337.687        9.830      861.226
11/28/2014  01:18:00     -100.510      -15.066       -2.903       40.011       24.659       19.934     1600.856      608.066      397.365        0.647        0.130      101.632       15.146        0.022      337.664        9.791      861.289
11/28/2014  01:19:00      -34.806      -51.631       -3.319       26.121       21.253       14.994      682.299      451.670      224.813        0.262        0.068       62.267        6.984        0.013      338.629       11.410      861.253
11/28/2014  01:20:00        6.726       -6.748        6.280       16.526       17.498       15.463      273.097      306.175      239.103        0.047        0.041        9.528       15.973        2.811      338.271       10.807      861.180
11/28/2014  01:21:00       16.360       37.083        7.713       19.456       26.613       16.491      378.528      708.232      271.966        0.153        0.068       40.532       11.673        0.083      337.867       10.132      861.181
11/28/2014  01:22:00      -25.698        6.132       -1.287       22.310       42.084       15.326      497.742     1771.065      234.876        0.160        0.125       26.419       13.622        0.266      338.291       10.842      861.234
11/28/2014  01:23:00      -36.812        2.805       -9.857       26.015       36.625       12.762      676.775     1341.420      162.871        0.182        0.109       36.919       12.550        0.116      338.227       10.735      861.183
11/28/2014  01:24:00      -21.762       56.401       11.838       30.761       53.099       28.211      946.232     2819.519      795.843        0.418        0.228       60.454       23.873        0.156      338.495       11.186      861.112
11/28/2014  01:25:00       32.921       64.270       -8.200       33.101       40.574       17.318     1095.689     1646.254      299.923        0.416        0.152       72.211        5.609        0.006      338.099       10.521      861.134
11/28/2014  01:26:00      -25.324       -4.884        1.086       41.225       28.317       20.288     1699.466      801.861      411.617        0.179        0.146       25.791       17.260        0.448      337.704        9.858      861.199
11/28/2014  01:27:00      -46.885       47.717      -11.303       22.449       48.781       16.163      503.973     2379.552      261.253        0.387        0.157       66.896       17.801        0.071      338.195       10.681      861.218
11/28/2014  01:28:00      -58.054        4.705      -15.868       16.513       67.834       14.645      272.668     4601.403      214.470        0.437        0.254       58.244       19.391        0.111      337.987       10.332      861.221
11/28/2014  01:29:00      -53.241      -47.975       -6.349       22.437       26.424       18.861      503.438      698.250      355.738        0.337        0.078       71.667       15.554        0.047      337.217        9.042      861.281
11/28/2014  01:30:00       30.630      -23.186        3.772       25.160       12.765        8.056      633.014      162.948       64.906        0.118        0.043       38.416        8.646        0.051      338.282       10.828      861.294
11/28/2014  01:31:00       44.798       37.390        3.574       19.752       17.590       10.957      390.137      309.391      120.056        0.212        0.041       58.351        9.772        0.028      338.493       11.181      861.249
11/28/2014  01:32:00       76.260       42.946        3.005       16.560       12.368       15.749      274.228      152.962      248.034        0.417        0.034       87.521       10.673        0.015      338.570       11.310      861.204
11/28/2014  01:33:00       37.528       50.489      -17.705       22.053       20.628       15.735      486.314      425.500      247.599        0.271        0.058       62.909       11.453        0.033      338.484       11.165      861.149
11/28/2014  01:34:00       40.233       13.065       -5.817       25.086       22.158       16.116      629.303      490.975      259.736        0.160        0.069       42.301       11.257        0.071      338.209       10.705      861.149
11/28/2014  01:35:00      -47.955       47.624      -22.159       36.320       30.802       14.454     1319.153      948.759      208.930        0.377        0.124       67.585       14.650        0.047      338.496       11.188      861.149
11/28/2014  01:36:00      -80.140       73.268      -22.773       18.175       37.106       16.498      330.343     1376.880      272.195        0.714        0.099      108.585       12.969        0.014      338.232       10.745      861.141
11/28/2014  01:37:00      -99.391      -14.455      -26.035       40.592       61.789       22.429     1647.697     3817.852      503.064        0.837        0.298      100.437       26.463        0.069      337.787        9.997      861.156
11/28/2014  01:38:00      -28.237      112.611       -6.784       42.560       56.307       30.076     1811.318     3170.465      904.538        0.970        0.294      116.097       22.235        0.037      339.643       13.118      861.088
11/28/2014  01:39:00      -72.858       -3.461      -11.573       55.606       52.021       27.324     3092.019     2706.222      746.599        0.600        0.327       72.941       18.359        0.063      338.288       10.839      861.109
11/28/2014  01:40:00      -67.914       -2.712       -9.698       23.004       33.082       14.543      529.190     1094.450      211.502        0.327        0.092       67.968       13.256        0.038      338.372       10.980      861.132
11/28/2014  01:41:00     -149.299      -38.984      -26.508       99.470       39.355       23.373     9894.283     1548.820      546.274        1.825        0.599      154.305       37.866        0.060      337.556        9.608      861.167
11/28/2014  01:42:00     -187.767        3.421       -9.069       98.616       56.389       45.200     9725.108     3179.728     2043.075        2.515        0.747      187.799       53.172        0.080      337.562        9.618      861.190
11/28/2014  01:43:00      -85.419       30.949        0.673       60.298       46.057       31.506     3635.849     2121.202      992.634        0.750        0.337       90.853       23.054        0.064      337.966       10.298      861.176
11/28/2014  01:44:00      -87.248      -10.292       -2.588       53.296       41.689       22.767     2840.426     1737.941      518.353        0.641        0.255       87.853       23.852        0.074      338.134       10.580      861.145
11/28/2014  01:45:00     -148.554      -32.827      -11.451       46.161       48.716       29.916     2130.880     2373.295      894.984        1.434        0.270      152.138       23.811        0.024      337.521        9.550      861.141
11/28/2014  01:46:00     -125.710      -14.269        7.112       73.131       48.673       37.216     5348.162     2369.017     1385.015        1.258        0.455      126.517       40.513        0.103      337.867       10.132      861.143
11/28/2014  01:47:00     -195.701      -42.817        2.767       97.885       66.152       48.455     9581.487     4376.049     2347.910        2.822        0.815      200.330       52.720        0.069      338.725       11.569      861.137
11/28/2014  01:48:00     -271.208      -59.806        2.896      101.225       89.866       55.881    10246.451     8075.908     3122.646        4.929        1.072      277.723       56.132        0.041      339.157       12.295      861.099
11/28/2014  01:49:00     -237.317      -67.794        8.847       99.599       96.478       54.893     9920.048     9307.985     3013.282        4.161        1.112      246.810       48.314        0.038      340.492       14.547      861.044
11/28/2014  01:50:00       58.814     -125.578       -2.634       82.782       96.490       68.851     6852.824     9310.398     4740.523        2.007        1.045      138.669       76.545        0.305      339.095       12.193      861.064
11/28/2014  01:51:00       48.280      -62.627       -9.668       62.426       88.202       45.102     3897.023     7779.556     2034.212        1.003        0.686       79.077       52.018        0.433      339.035       12.094      861.005
11/28/2014  01:52:00      -30.606      -91.142       -0.505       66.424      109.107       32.941     4412.134    11904.403     1085.099        1.332        0.870       96.144       41.487        0.186      339.034       12.093      860.951
11/28/2014  01:53:00     -149.209     -168.424      -17.764       96.226       90.707       42.435     9259.399     8227.738     1800.754        3.511        0.964      225.011       41.435        0.034      339.660       13.143      860.932
11/28/2014  01:54:00     -147.240      -81.775      -19.267       94.325       73.223       40.635     8897.158     5361.538     1651.193        2.232        0.795      168.425       32.962        0.038      339.318       12.570      860.994
11/28/2014  01:55:00      -49.841      -85.424       10.726      130.046       63.974       43.173    16912.014     4092.729     1863.941        1.638        1.143       98.901       48.872        0.244      339.302       12.544      861.028
11/28/2014  01:56:00     -100.530     -128.598        5.363       55.387       56.862       27.384     3067.762     3233.231      749.881        1.686        0.353      163.229       29.920        0.034      339.550       12.960      861.032
11/28/2014  01:57:00     -109.614     -168.705      -23.749       85.075       79.744       36.160     7237.744     6359.101     1307.510        2.797        0.745      201.188       23.924        0.014      339.666       13.152      861.039
11/28/2014  01:58:00     -169.961     -173.451       -6.869       74.598      108.260       51.282     5564.907    11720.214     2629.859        3.946        0.996      242.842       47.636        0.038      339.109       12.213      861.071
11/28/2014  01:59:00     -160.348     -133.820       -8.223       66.921       62.594       38.096     4478.379     3918.037     1451.275        2.677        0.492      208.852       40.841        0.038      338.933       11.916      861.073
11/28/2014  02:00:00     -167.863      -72.150      -12.487       37.804       44.682       22.564     1429.106     1996.500      509.155        1.874        0.197      182.711       15.765        0.007      339.025       12.076      861.001
11/28/2014  02:01:00     -145.447      -61.322       -5.641       55.183       41.124       23.527     3045.137     1691.215      553.515        1.512        0.264      157.845       25.362        0.026      339.216       12.398      860.929
11/28/2014  02:02:00     -157.972      -43.827       -1.547       58.672       39.750       23.202     3442.377     1580.033      538.353        1.622        0.278      163.939       27.250        0.028      339.087       12.179      860.918
11/28/2014  02:03:00     -175.566      -79.692        5.977       75.089       44.188       30.793     5638.390     1952.564      948.197        2.287        0.427      192.806       30.617        0.025      339.006       12.042      860.968
11/28/2014  02:04:00      -71.917      -82.674        9.585       67.025       57.710       32.312     4492.321     3330.477     1044.051        1.048        0.443      109.577       38.537        0.124      339.111       12.220      861.051
11/28/2014  02:05:00      -83.238      -41.755        2.763       42.838       43.348       22.198     1835.117     1879.009      492.765        0.644        0.210       93.124       21.518        0.053      339.044       12.107      861.048
11/28/2014  02:06:00      -61.893      -41.901        5.507       47.561       46.607       24.861     2262.012     2172.183      618.062        0.533        0.253       74.743       27.899        0.139      339.029       12.082      861.048
11/28/2014  02:07:00       -9.990      -32.595        7.934       12.608       19.296       13.851      158.951      372.345      191.846        0.097        0.036       34.092        9.689        0.081      338.997       12.028      861.027
11/28/2014  02:08:00        0.458      -70.869        6.955       25.693       37.692       13.436      660.114     1420.689      180.532        0.367        0.113       70.870       12.289        0.030      339.009       12.050      861.001
11/28/2014  02:09:00        3.806      -73.364       -5.586       39.541       52.857       19.103     1563.516     2793.900      364.919        0.507        0.236       73.462       18.696        0.065      339.159       12.302      861.037
11/28/2014  02:10:00      -92.052     -142.209      -11.104       34.028       65.896       20.151     1157.911     4342.230      406.047        1.736        0.295      169.402       14.022        0.007      339.392       12.695      861.033
11/28/2014  02:11:00      -96.929     -131.772       -8.058       30.840       31.168       21.778      951.090      971.418      474.267        1.461        0.120      163.582       20.045        0.015      339.647       13.123      861.001
11/28/2014  02:12:00      -94.706     -160.925      -15.398       34.650       56.787       25.260     1200.620     3224.800      638.068        2.008        0.253      186.725       15.229        0.007      339.952       13.637      860.977
11/28/2014  02:13:00      -38.654      -48.309        0.568       16.013       45.173       12.765      256.418     2040.593      162.936        0.314        0.123       61.870       14.650        0.056      340.138       13.952      860.915
11/28/2014  02:14:00      -24.553      -60.274        0.310       24.570       36.239       14.270      603.708     1313.264      203.635        0.318        0.106       65.083       10.799        0.028      339.633       13.101      860.932
11/28/2014  02:15:00     -142.974     -125.380       -8.201       73.172       50.764       33.823     5354.136     2577.031     1144.006        2.265        0.454      190.162       39.331        0.043      339.134       12.259      860.998
11/28/2014  02:16:00     -185.215      -97.599       -6.810       40.313       43.322       25.337     1625.163     1876.773      641.970        2.401        0.207      209.356       24.949        0.014      339.212       12.390      861.001
11/28/2014  02:17:00     -107.426     -119.752        4.362       76.677       81.794       30.795     5879.406     6690.296      948.327        1.971        0.676      160.876       38.853        0.058      339.613       13.065      860.993
11/28/2014  02:18:00     -133.717     -110.468       -8.617       40.206       86.595       23.796     1616.536     7498.638      566.264        1.992        0.484      173.445       23.329        0.018      339.755       13.305      861.011
11/28/2014  02:19:00     -132.379      -50.130       -4.009       55.792       36.821       23.908     3112.738     1355.760      571.606        1.255        0.252      141.553       21.933        0.024      338.791       11.684      861.019
11/28/2014  02:20:00     -174.171      -19.597       -6.425       48.674       43.339       33.777     2369.206     1878.277     1140.894        1.807        0.269      175.270       30.286        0.030      338.636       11.421      860.981
11/28/2014  02:21:00     -150.017      -53.991       -0.568       63.553       38.170       24.641     4039.003     1456.934      607.176        1.576        0.305      159.437       25.351        0.025      338.634       11.419      860.966
11/28/2014  02:22:00     -110.927      -49.796        6.187       53.944       45.289       31.308     2909.981     2051.097      980.194        1.038        0.297      121.591       30.011        0.061      338.713       11.552      860.949
11/28/2014  02:23:00      -29.901      -42.095       11.887       35.003       22.692       19.395     1225.225      514.914      376.156        0.246        0.106       51.634       17.346        0.113      338.657       11.458      860.946
11/28/2014  02:24:00      -33.068      -53.306        8.712       28.537       25.232       20.458      814.378      636.662      418.530        0.294        0.093       62.730       14.950        0.057      339.096       12.196      860.945
11/28/2014  02:25:00      -61.999      -23.222        2.097       37.523       18.384       15.720     1407.972      337.968      247.126        0.319        0.100       66.206       11.996        0.033      338.729       11.579      860.945
11/28/2014  02:26:00      -17.495      -21.993        1.453       23.599       10.620       10.856      556.906      112.788      117.853        0.079        0.039       28.103       10.325        0.135      338.397       11.022      860.954
11/28/2014  02:27:00       55.749      -22.380       -7.591       18.621       26.457       11.237      346.754      699.950      126.274        0.242        0.059       60.073       12.276        0.042      338.384       10.999      860.950
11/28/2014  02:28:00       95.108       48.746        9.216       23.631       22.377       25.285      558.401      500.738      639.330        0.660        0.085      106.873       10.147        0.009      337.521        9.551      860.901
11/28/2014  02:29:00       67.804       24.384        2.202       37.287       26.197       21.079     1390.297      686.275      444.309        0.386        0.126       72.055       20.628        0.082      337.596        9.676      860.880
11/28/2014  02:30:00       95.448       51.359       10.996       27.854       19.173       18.105      775.850      367.607      327.796        0.667        0.074      108.388        9.677        0.008      337.932       10.239      860.891
11/28/2014  02:31:00       61.150       34.927       19.170       27.092       20.426       18.575      733.953      417.237      345.034        0.341        0.075       70.422       12.490        0.031      337.645        9.759      860.929
11/28/2014  02:32:00      106.091       58.878       22.910       27.320       23.042       14.855      746.386      530.919      220.658        0.837        0.075      121.334       13.735        0.013      337.761        9.953      860.972
11/28/2014  02:33:00       33.649        1.450       10.003       41.419       20.069       15.099     1715.501      402.782      227.992        0.179        0.117       33.681       13.941        0.171      337.716        9.878      861.016
11/28/2014  02:34:00       47.810       26.402       27.137       18.013       15.542       18.191      324.473      241.555      330.910        0.231        0.045       54.615        8.250        0.023      337.530        9.566      861.005
11/28/2014  02:35:00       41.868       28.690        5.921       34.377       15.115       14.125     1181.791      228.472      199.511        0.211        0.080       50.755       17.707        0.122      337.877       10.147      860.974
11/28/2014  02:36:00       27.249       23.819        5.131       35.618       34.985       25.367     1268.657     1223.958      643.484        0.224        0.157       36.192       19.657        0.295      338.072       10.476      860.929
11/28/2014  02:37:00       64.909       11.508       -6.830       26.560       20.556       10.763      705.412      422.563      115.838        0.282        0.062       65.922        6.964        0.011      338.592       11.348      860.927
11/28/2014  02:38:00       55.472       84.599        4.978       42.954       52.994       23.620     1845.005     2808.377      557.904        0.773        0.261      101.164       22.204        0.048      339.300       12.538      860.886
11/28/2014  02:39:00        4.360       47.406        7.068       34.420       39.644       18.707     1184.702     1571.635      349.955        0.271        0.155       47.606       15.409        0.105      339.133       12.257      860.812
11/28/2014  02:40:00       -1.792      -36.600       -4.195       25.753       25.499       19.292      663.215      650.219      372.180        0.152        0.084       36.644       13.632        0.138      338.227       10.734      860.831
11/28/2014  02:41:00     -104.795      -44.885      -14.712       34.188       32.963       15.193     1168.805     1086.588      230.814        0.785        0.124      114.003       15.272        0.018      338.188       10.670      860.899
11/28/2014  02:42:00      -86.761     -105.617        3.034       64.887       61.188       34.626     4210.288     3744.002     1198.941        1.392        0.458      136.683       30.776        0.051      338.972       11.988      860.944
11/28/2014  02:43:00     -104.507      -19.650       -3.480       61.896       37.132       34.812     3831.110     1378.814     1211.863        0.887        0.321      106.338       36.080        0.115      338.854       11.788      860.909
11/28/2014  02:44:00      -11.880        8.394       21.248       60.709       27.835       23.350     3685.639      774.798      545.224        0.283        0.250       14.546       27.433        3.557      338.414       11.050      860.817
11/28/2014  02:45:00       10.224       17.698       14.157       18.995       17.842       12.495      360.822      318.344      156.136        0.073        0.042       20.439       10.990        0.289      338.404       11.031      860.749
11/28/2014  02:46:00      -18.764       49.785        3.032       18.029       18.807       12.337      325.055      353.721      152.201        0.184        0.042       53.204        7.029        0.017      338.995       12.026      860.713
11/28/2014  02:47:00      -34.524      -21.866      -11.135       53.135       38.659       15.322     2823.342     1494.548      234.750        0.317        0.228       40.866       21.726        0.283      338.169       10.638      860.757
11/28/2014  02:48:00       29.990      -72.768      -15.251       34.812       16.736       11.118     1211.894      280.107      123.613        0.402        0.081       78.706        9.877        0.016      338.272       10.811      860.830
11/28/2014  02:49:00        8.115      -38.417       -6.422       23.225       30.330       16.109      539.422      919.891      259.497        0.165        0.086       39.265       16.481        0.176      338.252       10.777      860.860
11/28/2014  02:50:00       29.071       -0.558        6.606       19.966       20.562       13.719      398.660      422.808      188.206        0.095        0.050       29.077       14.164        0.237      338.469       11.142      860.845
11/28/2014  02:51:00      103.839       43.368        3.858       18.295       13.456       13.564      334.693      181.075      183.973        0.669        0.035      112.532       10.914        0.009      338.683       11.501      860.778
11/28/2014  02:52:00       55.652       32.369        3.906       22.272       22.114       14.608      496.043      489.023      213.405        0.268        0.060       64.381        7.363        0.013      338.768       11.642      860.730
11/28/2014  02:53:00       18.072       -8.271       -8.902       16.190       10.396        4.627      262.109      108.080       21.405        0.043        0.020       19.875        4.734        0.057      338.965       11.975      860.733
11/28/2014  02:54:00       19.501        4.391        7.399       21.108       28.517       12.067      445.562      813.239      145.622        0.093        0.070       19.990       14.760        0.545      339.057       12.129      860.723
11/28/2014  02:55:00      -17.402      -26.627       -0.457       18.017       17.076       12.362      324.619      291.591      152.828        0.089        0.038       31.810        8.854        0.077      338.919       11.897      860.737
11/28/2014  02:56:00       -8.771       -9.888       -2.951       14.940       11.222        6.568      223.190      125.943       43.141        0.029        0.020       13.218        4.744        0.129      339.034       12.092      860.747
11/28/2014  02:57:00      -60.535      -35.397      -13.447       13.955       12.860        6.929      194.752      165.373       48.016        0.275        0.020       70.125        7.103        0.010      338.891       11.849      860.769
11/28/2014  02:58:00      -96.200      -58.030       -7.460       43.382       28.639       12.897     1882.000      820.172      166.325        0.777        0.143      112.347        9.447        0.007      339.420       12.741      860.767
11/28/2014  02:59:00      -52.093      -15.213        5.437       64.503       36.913       27.727     4160.591     1362.586      768.807        0.463        0.315       54.269       28.058        0.267      338.466       11.137      860.755
11/28/2014  03:00:00        9.031      -38.302       12.615       30.194       17.989       13.516      911.683      323.597      182.687        0.156        0.071       39.352        7.458        0.036      337.901       10.188      860.733
11/28/2014  03:01:00       47.484      -35.989        2.232       15.575       12.080       10.153      242.592      145.932      103.085        0.202        0.025       59.581        5.877        0.010      337.953       10.275      860.714
11/28/2014  03:02:00       53.161      -24.909       -3.078       11.568       16.824        7.591      133.814      283.046       57.631        0.197        0.024       58.707        7.097        0.015      338.424       11.065      860.694
11/28/2014  03:03:00       63.971        1.662        5.126       25.488       16.796       11.175      649.636      282.121      124.890        0.259        0.053       63.993        7.662        0.014      338.702       11.533      860.671
11/28/2014  03:04:00       66.842       36.688       10.827        8.835       11.493        7.464       78.065      132.087       55.710        0.310        0.013       76.249        3.472        0.002      338.292       10.845      860.624
11/28/2014  03:05:00       50.960       35.953        0.609       14.739       12.987        9.150      217.252      168.662       83.721        0.218        0.023       62.366        7.186        0.013      338.503       11.199      860.612
11/28/2014  03:06:00       48.149       31.071       -7.175        8.834        6.174       11.082       78.046       38.123      122.806        0.179        0.012       57.303        8.027        0.020      338.770       11.647      860.601
11/28/2014  03:07:00       15.223       14.962       -5.559       13.868       10.165        6.463      192.334      103.330       41.768        0.041        0.017       21.345        8.263        0.150      338.784       11.671      860.584
11/28/2014  03:08:00      -22.234       17.424       -1.130       11.638        9.107        6.983      135.445       82.930       48.758        0.053        0.013       28.247        5.010        0.031      338.812       11.717      860.576
11/28/2014  03:09:00       -7.204        5.126        2.209       13.707        6.460        7.452      187.876       41.737       55.538        0.018        0.014        8.842        5.653        0.409      339.004       12.041      860.592
11/28/2014  03:10:00     -113.122      -34.225      -26.647       20.899       14.316       11.737      436.762      204.941      137.763        0.773        0.039      118.186        8.700        0.005      337.512        9.535      860.624
11/28/2014  03:11:00     -136.117      -31.918      -21.346       20.322       11.420       13.888      412.982      130.423      192.879        1.037        0.037      139.809       12.576        0.008      337.626        9.728      860.654
11/28/2014  03:12:00     -112.814      -20.951      -17.444       42.973       20.054       15.962     1846.710      402.150      254.791        0.799        0.125      114.743       13.327        0.013      337.911       10.205      860.654
11/28/2014  03:13:00      -38.523       41.004       -3.020       29.255       16.729       16.875      855.877      279.854      284.755        0.230        0.071       56.261       15.994        0.081      338.694       11.520      860.587
11/28/2014  03:14:00      -68.379       24.865      -10.888       21.095       39.264       14.049      445.018     1541.646      197.374        0.380        0.109       72.759       11.665        0.026      338.943       11.938      860.525
11/28/2014  03:15:00      -22.788      -19.254        4.897       21.245       55.619       16.369      451.331     3093.488      267.959        0.236        0.191       29.833       12.542        0.177      338.569       11.309      860.504
11/28/2014  03:16:00      -65.351      -61.356       -6.889       45.650       22.089       18.945     2083.883      487.911      358.908        0.551        0.147       89.640       18.839        0.044      338.528       11.241      860.539
11/28/2014  03:17:00      -29.948      -12.186       -3.246       26.493       26.267       11.889      701.876      689.932      141.337        0.129        0.077       32.332       12.185        0.142      338.270       10.809      860.510
11/28/2014  03:18:00        2.265       27.681       16.259       28.531       21.075       14.355      814.011      444.169      206.067        0.125        0.073       27.774       13.179        0.225      338.304       10.865      860.415
11/28/2014  03:19:00      -31.652       11.903       -0.524       46.081       26.200       19.510     2123.436      686.459      380.627        0.217        0.160       33.816       23.204        0.471      338.749       11.613      860.313
11/28/2014  03:20:00      -39.315       20.642       -2.329       17.722       33.276       14.429      314.073     1107.314      208.191        0.180        0.081       44.405       12.240        0.076      339.365       12.648      860.261
11/28/2014  03:21:00     -103.390      -79.702       -4.702       63.214       30.970       15.219     3996.063      959.115      231.609        1.112        0.259      130.545       20.125        0.024      339.082       12.173      860.289
11/28/2014  03:22:00     -166.542     -117.510       -4.100       61.330       37.010       30.201     3761.353     1369.747      912.093        2.380        0.302      203.826       26.024        0.016      337.015        8.702      860.417
11/28/2014  03:23:00      -96.816      -83.876       -5.963       75.548       61.088       34.184     5707.571     3731.797     1168.526        1.352        0.530      128.096       21.766        0.029      338.162       10.627      860.506
11/28/2014  03:24:00      -12.749       -8.836        3.345       30.894       35.533       43.914      954.444     1262.570     1928.408        0.220        0.207       15.511       31.442        4.109      337.793       10.009      860.487
11/28/2014  03:25:00       61.898      -51.930        4.390       32.103       24.880       20.490     1030.592      618.991      419.834        0.431        0.103       80.796       15.578        0.037      337.750        9.933      860.452
11/28/2014  03:26:00        7.409       -7.687       11.622       18.474       17.791       11.643      341.279      316.531      135.558        0.052        0.040       10.676        8.183        0.587      337.697        9.846      860.399
11/28/2014  03:27:00       -6.603      -10.202        2.273       21.604       13.488       11.768      466.730      181.936      138.482        0.047        0.039       12.152       13.677        1.267      337.641        9.751      860.349
11/28/2014  03:28:00       -8.736       51.427        5.977       29.666       28.250       18.210      880.049      798.073      331.599        0.238        0.100       52.164       16.731        0.103      338.511       11.212      860.294
11/28/2014  03:29:00       77.598       20.684        4.558       23.203       30.303       17.609      538.379      918.262      310.070        0.412        0.088       80.308       18.259        0.052      337.694        9.841      860.290
11/28/2014  03:30:00       69.705      -96.378       -1.890       34.430       68.142       22.232     1185.395     4643.350      494.282        1.024        0.316      118.944       26.136        0.048      337.835       10.078      860.372
11/28/2014  03:31:00      -45.811     -148.821       16.480       52.131       56.698       30.890     2717.631     3214.646      954.214        1.570        0.344      155.713       30.349        0.038      338.792       11.685      860.423
11/28/2014  03:32:00      -72.822     -118.400       -4.119       55.437       69.615       32.487     3073.226     4846.212     1055.403        1.415        0.449      139.002       40.481        0.085      339.306       12.548      860.386
11/28/2014  03:33:00     -113.599      -46.312       -3.767       45.176       25.502       18.832     2040.863      650.342      354.639        0.905        0.152      122.676       15.598        0.016      338.345       10.934      860.350
11/28/2014  03:34:00      -86.619      -50.023       -6.171       20.684       21.897       15.959      427.845      479.463      254.701        0.560        0.058      100.026        7.632        0.006      338.376       10.986      860.318
11/28/2014  03:35:00      -94.241      -70.775        2.837       57.162       36.244       22.054     3267.468     1313.610      486.387        0.948        0.253      117.858       17.720        0.023      338.642       11.433      860.282
11/28/2014  03:36:00      -38.469      -56.046       -6.150       26.281       15.925        9.617      690.691      253.612       92.480        0.285        0.052       67.978        7.466        0.012      338.683       11.501      860.237
11/28/2014  03:37:00      -77.884      -71.506       -3.829       23.559       23.999       14.242      555.034      575.959      202.847        0.626        0.067      105.731       13.944        0.017      338.852       11.785      860.206
11/28/2014  03:38:00      -84.508      -42.185       -1.636       19.938       15.590        8.967      397.506      243.044       80.402        0.482        0.036       94.452       11.095        0.014      338.575       11.320      860.184
11/28/2014  03:39:00       21.257      -81.000       10.543       30.628       20.804       19.144      938.105      432.797      366.494        0.443        0.087       83.743        4.940        0.003      338.459       11.124      860.210
11/28/2014  03:40:00      -89.150      -76.853       -0.780       51.090       45.004       24.004     2610.234     2025.404      576.206        0.953        0.261      117.703       24.638        0.044      338.308       10.873      860.243
11/28/2014  03:41:00     -134.634      -50.885        0.791       41.890       32.952       23.067     1754.739     1085.814      532.106        1.204        0.169      143.929       22.850        0.025      337.650        9.767      860.258
11/28/2014  03:42:00      -61.316     -143.875       -2.060       41.738       45.797       23.827     1742.096     2097.336      567.734        1.443        0.220      156.396       12.394        0.006      339.172       12.324      860.265
11/28/2014  03:43:00     -118.292      -74.891       -8.855       74.817       45.101       28.343     5597.518     2034.062      803.347        1.406        0.422      140.006       30.551        0.048      338.436       11.086      860.249
11/28/2014  03:44:00     -135.807      -84.620        3.205       52.743       36.421       28.745     2781.868     1326.457      826.264        1.527        0.247      160.013       28.913        0.033      338.383       10.997      860.212
11/28/2014  03:45:00     -104.887      -84.672        1.520       42.941       31.954       22.867     1843.919     1021.059      522.906        1.078        0.169      134.798       18.637        0.019      338.476       11.152      860.193
11/28/2014  03:46:00      -93.380     -120.100        2.329       27.947       32.376       19.238      781.060     1048.194      370.094        1.267        0.110      152.131       20.835        0.019      339.378       12.671      860.183
11/28/2014  03:47:00      -33.912     -124.683        8.483       47.225       43.816       21.733     2230.187     1919.871      472.325        1.069        0.231      129.213       31.229        0.058      339.792       13.369      860.161
11/28/2014  03:48:00      101.133      -78.496       -9.695       33.880       34.387       18.976     1147.827     1182.473      360.098        0.959        0.135      128.022       14.787        0.013      338.271       10.810      860.112
11/28/2014  03:49:00       47.141     -110.442      -12.940       56.594       32.210       25.403     3202.855     1037.499      645.307        0.974        0.244      120.083       22.617        0.035      338.438       11.090      860.096
11/28/2014  03:50:00      -54.985      -74.392        0.719       49.108       33.266       19.917     2411.611     1106.622      396.702        0.624        0.196       92.507       21.476        0.054      338.633       11.418      860.113
11/28/2014  03:51:00     -172.071      -40.373       -8.058       41.427       33.191       19.274     1716.200     1101.641      371.479        1.725        0.159      176.744       17.629        0.010      337.838       10.083      860.141
11/28/2014  03:52:00      -80.077     -101.775        3.528       50.850       44.481       23.338     2585.717     1978.554      544.676        1.094        0.255      129.501       10.605        0.007      339.337       12.602      860.124
11/28/2014  03:53:00       18.145      -77.376        1.922       34.914       32.066       18.739     1219.001     1028.257      351.137        0.446        0.130       79.475       15.707        0.039      338.550       11.277      860.113
11/28/2014  03:54:00      -70.371      -41.698       -1.810       36.737       26.090       17.194     1349.592      680.670      295.633        0.451        0.116       81.797       21.721        0.071      338.705       11.537      860.064
11/28/2014  03:55:00      -95.732      -48.452      -10.110       38.852       28.146       21.798     1509.512      792.187      475.164        0.720        0.139      107.295       20.224        0.036      338.382       10.995      860.038
11/28/2014  03:56:00      -76.198      -82.454        6.823       81.568       61.423       25.856     6653.391     3772.821      668.529        1.187        0.555      112.271       26.214        0.055      338.234       10.748      860.063
11/28/2014  03:57:00     -106.034      -77.397        7.481       80.896       45.450       29.262     6544.093     2065.680      856.257        1.338        0.473      131.276       33.247        0.064      338.665       11.470      860.060
11/28/2014  03:58:00     -149.385      -91.359        3.742       85.082       66.291       40.106     7238.978     4394.540     1608.498        2.196        0.662      175.107       42.138        0.058      338.411       11.042      860.075
11/28/2014  03:59:00     -212.236     -110.735        4.741       72.748       85.864       40.250     5292.333     7372.698     1620.024        3.580        0.714      239.387       40.452        0.029      338.764       11.633      860.100
11/28/2014  04:00:00     -209.514     -157.050       -2.022       95.339       84.516       52.555     9089.580     7143.010     2762.066        4.378        0.950      261.841       51.819        0.039      339.147       12.278      860.117
11/28/2014  04:01:00     -194.446      -58.493        0.831      111.367       85.903       53.401    12402.522     7379.270     2851.619        3.193        1.132      203.054       54.139        0.071      338.983       12.003      860.147
11/28/2014  04:02:00     -182.931      -41.388        5.032       82.539       78.262       51.100     6812.668     6124.972     2611.224        2.537        0.777      187.554       45.907        0.060      339.220       12.402      860.101
11/28/2014  04:03:00     -151.241      -19.190        2.063       77.619       76.388       45.040     6024.695     5835.159     2028.614        1.856        0.694      152.453       42.371        0.077      339.286       12.513      860.003
11/28/2014  04:04:00       56.256       30.178       29.414       39.466       29.059       30.157     1557.581      844.452      909.439        0.413        0.166       63.840       15.816        0.061      338.765       11.639      859.889
11/28/2014  04:05:00       49.437       49.027       44.276       55.279       40.947       45.516     3055.788     1676.696     2071.673        0.680        0.340       69.625       39.661        0.324      337.078        8.810      859.868
11/28/2014  04:06:00       -7.390      -80.870       -2.736       61.238       25.300       20.125     3750.048      640.079      404.996        0.570        0.240       81.207       20.723        0.065      337.966       10.298      859.953
11/28/2014  04:07:00     -117.129      -52.012       -9.848       26.331       48.881       16.163      693.330     2389.397      261.245        0.993        0.167      128.158        6.400        0.002      338.574       11.318      859.980
11/28/2014  04:08:00     -140.679      -36.142      -10.943       21.958       34.431       13.244      482.149     1185.507      175.415        1.153        0.092      145.247       10.290        0.005      337.801       10.021      859.995
11/28/2014  04:09:00      -56.880      -57.073        4.400       29.602       47.073       14.220      876.282     2215.892      202.205        0.490        0.165       80.577       12.162        0.023      338.445       11.101      859.940
11/28/2014  04:10:00      -32.819      -48.923        3.462       21.495       30.965       17.355      462.050      958.833      301.202        0.260        0.086       58.911       13.766        0.055      339.157       12.299      859.862
11/28/2014  04:11:00      -66.598      -72.410        2.076       38.917       33.504       21.614     1514.559     1122.487      467.175        0.639        0.155       98.379       12.753        0.017      338.184       10.664      859.922
11/28/2014  04:12:00     -142.396     -103.887       11.335       83.155       58.083       43.009     6914.801     3373.629     1849.741        2.167        0.607      176.264       43.774        0.062      338.097       10.516      860.022
11/28/2014  04:13:00     -186.393     -172.669       -1.875      138.253       93.450       58.483    19113.914     8732.893     3420.293        4.791        1.563      254.080       71.500        0.079      339.145       12.277      860.105
11/28/2014  04:14:00     -217.252     -125.553        5.862       81.075       82.240       44.478     6573.153     6763.369     1978.312        3.915        0.766      250.922       34.806        0.019      339.109       12.215      860.063
11/28/2014  04:15:00      -54.639      -67.246       13.424       74.770       40.617       32.726     5590.547     1649.720     1070.999        0.800        0.416       86.646       35.846        0.171      339.110       12.219      859.959
11/28/2014  04:16:00       25.655      -13.873       19.926       47.616       49.380       27.374     2267.279     2438.342      749.330        0.335        0.273       29.165       15.438        0.280      338.212       10.712      859.870
11/28/2014  04:17:00      -65.776      -76.209       -2.648       50.133       42.993       16.064     2513.358     1848.375      258.065        0.738        0.231      100.670       11.913        0.014      339.064       12.143      859.764
11/28/2014  04:18:00     -130.511      -70.866       -7.380       38.870       25.325       17.519     1510.894      641.352      306.907        1.228        0.123      148.510       13.522        0.008      338.372       10.979      859.765
11/28/2014  04:19:00     -127.320      -70.172        0.953       71.895       44.078       28.386     5168.859     1942.841      805.770        1.452        0.396      145.377       22.763        0.025      338.212       10.709      859.816
11/28/2014  04:20:00     -160.936     -139.874       -0.791       84.428       63.602       39.325     7128.043     4045.272     1546.454        2.909        0.636      213.225       36.869        0.030      338.538       11.255      859.873
11/28/2014  04:21:00     -207.439     -132.706       -3.107       70.811       54.067       39.689     5014.169     2923.209     1575.235        3.508        0.476      246.256       34.893        0.020      338.670       11.476      859.902
11/28/2014  04:22:00     -119.235      -88.515       11.540       96.862       89.736       41.808     9382.312     8052.523     1747.926        2.068        0.959      148.499       50.510        0.116      338.533       11.248      859.918
11/28/2014  04:23:00     -154.405     -117.985       -5.812      100.417       53.890       42.862    10083.504     2904.107     1837.177        2.631        0.741      194.323       47.777        0.060      339.026       12.075      859.911
11/28/2014  04:24:00     -163.349      -96.287      -10.453       67.557       58.988       32.823     4563.955     3479.591     1077.361        2.259        0.456      189.616       33.909        0.032      339.367       12.649      859.834
11/28/2014  04:25:00     -218.947     -116.279      -13.384       99.450       53.663       38.230     9890.238     2879.677     1461.517        3.793        0.712      247.908       37.535        0.023      339.388       12.684      859.812
11/28/2014  04:26:00     -253.681     -152.319        2.979      110.928       99.440       54.806    12304.912     9888.292     3003.658        5.638        1.260      295.898       54.575        0.034      339.445       12.780      859.813
11/28/2014  04:27:00     -189.484     -114.831       -1.375      100.837       81.254       41.136    10168.025     6602.152     1692.188        3.377        0.923      221.563       49.800        0.051      339.526       12.916      859.836
11/28/2014  04:28:00     -254.321     -116.895       -8.034      103.680       96.603       49.358    10749.526     9332.089     2436.242        5.046        1.126      279.900       48.450        0.030      339.600       13.040      859.829
11/28/2014  04:29:00     -232.752     -106.896       -3.964      104.340       97.442       52.916    10886.879     9495.013     2800.062        4.439        1.159      256.125       59.265        0.054      339.545       12.949      859.816
11/28/2014  04:30:00     -269.912     -139.458      -16.236       97.377      109.628       50.257     9482.212    12018.281     2525.759        5.829        1.201      303.810       50.462        0.028      339.801       13.379      859.803
11/28/2014  04:31:00     -258.861     -101.796       -8.869      108.108       94.599       51.000    11687.398     8948.884     2601.037        5.034        1.162      278.158       51.440        0.034      339.796       13.372      859.797
11/28/2014  04:32:00     -253.330     -113.669      -12.300       96.030       94.757       51.850     9221.824     8978.852     2688.397        4.906        1.044      277.663       55.578        0.040      339.707       13.221      859.776
11/28/2014  04:33:00     -213.499     -166.141       -6.866       97.916       82.756       49.241     9587.450     6848.564     2424.717        4.604        0.943      270.526       47.322        0.031      339.845       13.454      859.751
11/28/2014  04:34:00     -126.652      -73.715       -6.447       63.026       81.473       36.450     3972.269     6637.824     1328.577        1.673        0.597      146.542       28.411        0.038      339.832       13.435      859.703
11/28/2014  04:35:00     -112.248     -143.421       -9.699       81.277       60.270       37.551     6605.874     3632.514     1410.113        2.245        0.582      182.124       26.107        0.021      339.792       13.367      859.712
11/28/2014  04:36:00      -47.811     -160.124      -13.897       70.180       69.998       29.018     4925.274     4899.663      842.048        1.939        0.533      167.110       24.326        0.021      339.681       13.180      859.760
11/28/2014  04:37:00     -106.562     -147.622        1.242       59.272       78.222       45.263     3513.192     6118.686     2048.773        2.241        0.584      182.065       39.243        0.046      339.296       12.530      859.767
11/28/2014  04:38:00     -121.429     -189.405       -0.050       88.539       86.337       44.373     7839.231     7454.018     1968.932        3.394        0.863      224.987       49.513        0.048      339.044       12.104      859.730
11/28/2014  04:39:00     -232.688     -201.672      -16.205       83.095       82.586       44.862     6904.748     6820.413     2012.628        5.540        0.787      307.921       33.067        0.012      338.840       11.762      859.723
11/28/2014  04:40:00     -178.253     -170.410        6.280       91.049       87.146       51.748     8289.831     7594.465     2677.814        3.970        0.928      246.604       47.123        0.037      339.031       12.083      859.716
11/28/2014  04:41:00     -327.037     -222.374      -18.830       96.320       94.868       53.845     9277.569     8999.959     2899.261        8.896        1.059      395.478       51.796        0.017      339.665       13.151      859.690
11/28/2014  04:42:00     -219.608     -108.370      -16.891       76.997       63.242       41.807     5928.475     3999.563     1747.852        3.596        0.584      244.891       35.615        0.021      340.038       13.780      859.614
11/28/2014  04:43:00      -66.580      -57.803       11.439       47.677       41.308       35.219     2273.119     1706.340     1240.400        0.656        0.261       88.171       29.822        0.114      339.548       12.957      859.517
11/28/2014  04:44:00      -87.579      -68.052        2.692       89.195       91.238       54.629     7955.813     8324.430     2984.318        1.578        0.963      110.911       54.691        0.243      339.312       12.558      859.500
11/28/2014  04:45:00      -64.502     -114.095        6.714       80.517       93.968       42.031     6482.983     8829.923     1766.582        1.715        0.854      131.065       47.889        0.134      339.334       12.594      859.569
11/28/2014  04:46:00     -141.068     -130.360       -6.232       80.127       55.946       41.887     6420.285     3129.952     1754.557        2.412        0.565      192.077       42.040        0.048      339.175       12.326      859.594
11/28/2014  04:47:00      -35.244     -161.049       12.049       73.853       83.584       42.282     5454.313     6986.220     1787.758        2.077        0.711      164.860       32.910        0.040      339.145       12.276      859.643
11/28/2014  04:48:00      -98.870     -100.993       -2.185       67.948       49.503       32.578     4616.935     2450.517     1061.355        1.405        0.406      141.332       24.797        0.031      339.037       12.096      859.646
11/28/2014  04:49:00     -157.102     -102.078       -0.367       73.850       67.124       37.406     5453.862     4505.694     1399.223        2.323        0.568      187.352       42.415        0.051      339.000       12.032      859.606
11/28/2014  04:50:00     -209.636     -121.700       -2.198       82.252       56.154       36.071     6765.374     3153.231     1301.153        3.499        0.561      242.401       35.826        0.022      339.219       12.398      859.617
11/28/2014  04:51:00      -96.554     -121.769      -12.138       60.536       64.697       42.534     3664.568     4185.726     1809.106        1.698        0.483      155.404       30.931        0.040      339.002       12.036      859.631
11/28/2014  04:52:00      -49.992      -96.822       -2.907       47.409       34.256       21.078     2247.606     1173.491      444.295        0.787        0.193      108.966       11.579        0.011      339.060       12.135      859.600
11/28/2014  04:53:00      -49.272      -82.495       -4.173       33.642       40.506       17.528     1131.789     1640.700      307.248        0.616        0.154       96.089       13.212        0.019      339.066       12.146      859.542
11/28/2014  04:54:00     -150.323      -56.598      -20.361       34.513       31.569       21.502     1191.140      996.628      462.343        1.443        0.133      160.625       22.100        0.019      339.129       12.250      859.478
11/28/2014  04:55:00     -122.844     -103.888      -12.274       57.148       48.472       26.139     3265.853     2349.510      683.233        1.617        0.315      160.883       20.860        0.017      339.057       12.130      859.473
11/28/2014  04:56:00     -211.028      -77.172       -7.961       40.458       38.332       26.309     1636.843     1469.343      692.172        2.717        0.190      224.696       20.505        0.008      338.944       11.937      859.499
11/28/2014  04:57:00     -238.919      -78.121        2.839       66.128       53.906       34.978     4372.890     2905.900     1223.463        3.585        0.425      251.366       33.204        0.017      338.768       11.640      859.540
11/28/2014  04:58:00     -166.965      -71.546       -2.420      102.782       64.125       46.127    10564.145     4112.030     2127.694        2.490        0.840      181.648       51.804        0.081      338.885       11.838      859.583
11/28/2014  04:59:00     -204.167      -80.981       -7.572       82.298       75.379       42.243     6772.883     5681.984     1784.440        3.127        0.712      219.640       38.153        0.030      339.429       12.753      859.620
11/28/2014  05:00:00     -139.838     -119.314        4.044       85.845       57.539       36.089     7369.446     3310.736     1302.433        2.289        0.599      183.822       38.339        0.043      339.409       12.721      859.627
11/28/2014  05:01:00     -161.349     -106.499       -4.621       74.338       61.413       38.481     5526.096     3771.509     1480.767        2.409        0.539      193.328       42.349        0.048      339.456       12.799      859.582
11/28/2014  05:02:00     -198.714     -121.134        0.932       94.798       81.441       37.551     8986.681     6632.621     1410.054        3.559        0.851      232.725       46.739        0.040      339.607       13.054      859.556
11/28/2014  05:03:00     -264.997     -141.155       -6.077       81.182       47.813       41.430     6590.551     2286.106     1716.486        5.039        0.530      300.247       41.587        0.019      339.712       13.230      859.562
11/28/2014  05:04:00     -211.001     -126.464      -13.374       70.363       59.247       41.584     4950.954     3510.204     1729.231        3.544        0.510      245.997       36.723        0.022      339.508       12.885      859.589
11/28/2014  05:05:00     -216.383      -85.144       -5.865       66.307       69.564       44.087     4396.561     4839.173     1943.634        3.264        0.559      232.532       33.856        0.021      339.730       13.260      859.550
11/28/2014  05:06:00     -255.402      -47.320       -5.798       81.140       73.689       52.363     6583.747     5430.136     2741.883        4.113        0.738      259.748       52.311        0.041      339.511       12.892      859.480
11/28/2014  05:07:00     -129.779      -61.749       15.051      104.505       72.234       42.721    10921.392     5217.721     1825.048        1.942        0.898      143.720       53.171        0.137      339.358       12.634      859.447
11/28/2014  05:08:00     -176.194      -56.161       -8.445       53.506       46.275       27.520     2862.909     2141.383      757.371        2.001        0.288      184.928       27.315        0.022      339.762       13.315      859.448
11/28/2014  05:09:00     -123.831      -28.736       -1.808       58.261       73.633       29.031     3394.353     5421.875      842.813        1.291        0.483      127.122       25.644        0.041      339.964       13.659      859.449
11/28/2014  05:10:00     -149.770     -116.650       -0.996       59.607       43.586       38.748     3553.028     1899.773     1501.433        2.150        0.348      189.838       37.739        0.040      340.064       13.825      859.442
11/28/2014  05:11:00     -167.550     -106.083        0.260       58.533       38.615       32.695     3426.069     1491.095     1068.960        2.266        0.299      198.309       30.645        0.024      339.681       13.179      859.426
11/28/2014  05:12:00     -130.010     -104.911        3.300       60.704       53.248       35.010     3684.942     2835.377     1225.706        1.783        0.387      167.059       27.408        0.027      339.583       13.015      859.474
11/28/2014  05:13:00     -178.881      -92.937        2.483       90.536       56.981       36.180     8196.823     3246.844     1309.013        2.669        0.638      201.583       37.975        0.035      339.429       12.752      859.522
11/28/2014  05:14:00     -240.398     -120.440       -9.727       91.381       64.982       40.646     8350.413     4222.709     1652.097        4.331        0.711      268.881       31.992        0.014      339.591       13.026      859.513
11/28/2014  05:15:00     -234.470      -86.896        9.830      107.505       99.783       52.751    11557.354     9956.565     2782.679        4.346        1.215      250.054       55.041        0.048      339.673       13.164      859.460
11/28/2014  05:16:00     -235.231      -95.848       -5.143       91.495       67.771       38.090     8371.397     4592.913     1450.872        3.948        0.721      254.009       43.761        0.030      339.938       13.612      859.417
11/28/2014  05:17:00     -221.335      -87.110       -1.193       56.953       47.305       30.675     3243.610     2237.788      940.982        3.150        0.321      237.859       20.831        0.008      339.894       13.537      859.405
11/28/2014  05:18:00     -272.062     -131.146      -15.708       79.878       50.447       42.708     6380.551     2544.880     1823.972        5.110        0.537      302.021       35.028        0.013      340.033       13.769      859.421
11/28/2014  05:19:00     -202.011     -132.859       -3.035       93.210       73.085       45.564     8688.079     5341.433     2076.098        3.728        0.805      241.784       48.407        0.040      339.839       13.444      859.464
11/28/2014  05:20:00     -165.223     -116.683        3.527       81.780       67.436       42.159     6687.932     4547.680     1777.396        2.697        0.651      202.271       39.405        0.038      339.691       13.194      859.478
11/28/2014  05:21:00     -235.268      -81.794      -14.897       89.217       63.075       35.020     7959.726     3978.442     1226.432        3.771        0.658      249.081       29.713        0.014      339.683       13.180      859.450
11/28/2014  05:22:00     -206.893      -71.519        7.230      111.128       72.022       47.281    12349.397     5187.194     2235.521        3.387        0.989      218.905       51.106        0.055      339.602       13.046      859.429
11/28/2014  05:23:00     -219.868     -134.172        1.351      107.260      100.833       58.097    11504.741    10167.287     3375.318        4.569        1.252      257.573       62.174        0.058      339.919       13.580      859.430
11/28/2014  05:24:00     -147.686      -76.147       -3.041       84.602       93.392       48.362     7157.559     8722.129     2338.872        2.292        0.911      166.162       43.759        0.069      339.762       13.315      859.421
11/28/2014  05:25:00     -166.508      -69.300       -9.028      104.448       58.609       43.480    10909.363     3434.984     1890.544        2.442        0.812      180.354       53.190        0.087      339.629       13.090      859.401
11/28/2014  05:26:00     -162.503     -140.457        4.587       93.460       82.683       52.468     8734.841     6836.490     2752.920        3.224        0.916      214.792       48.561        0.051      339.706       13.219      859.390
11/28/2014  05:27:00     -180.664      -93.357       -3.602       54.402       58.227       28.313     2959.564     3390.329      801.627        2.426        0.358      203.360       19.641        0.009      339.661       13.145      859.385
11/28/2014  05:28:00      -84.465      -71.233       10.856       81.083       59.709       37.676     6574.465     3565.210     1419.489        1.194        0.578      110.492       49.453        0.200      339.956       13.644      859.387
11/28/2014  05:29:00      -32.747     -111.359      -16.123       67.915       55.834       35.870     4612.436     3117.438     1286.673        1.137        0.451      116.074       31.196        0.072      339.881       13.518      859.406
11/28/2014  05:30:00       67.589      -97.577      -11.552       51.656       51.545       26.986     2668.336     2656.903      728.224        1.014        0.303      118.700       25.437        0.046      339.097       12.198      859.417
11/28/2014  05:31:00      -24.433     -149.865      -17.160      119.410       57.562       35.265    14258.729     3313.409     1243.590        2.108        0.941      151.843       28.529        0.035      339.286       12.513      859.441
11/28/2014  05:32:00     -105.072     -106.845      -12.326       53.342       55.983       26.529     2845.382     3134.106      703.767        1.464        0.334      149.853       17.990        0.014      339.327       12.584      859.464
11/28/2014  05:33:00      -60.413     -140.171       -2.947       73.202       82.497       35.304     5358.577     6805.747     1246.371        1.836        0.671      152.636       40.693        0.071      339.181       12.338      859.441
11/28/2014  05:34:00     -126.834     -170.276       -9.319       86.201       78.350       39.209     7430.575     6138.693     1537.363        3.013        0.755      212.322       34.875        0.027      339.761       13.315      859.383
11/28/2014  05:35:00     -111.076      -68.198        0.276       43.789       50.636       30.140     1917.500     2563.986      908.443        1.119        0.269      130.342       13.694        0.011      339.611       13.064      859.321
11/28/2014  05:36:00     -107.501     -112.924        5.613      104.422       71.291       61.735    10903.976     5082.381     3811.237        2.206        0.990      155.912       59.549        0.146      339.893       13.537      859.327
11/28/2014  05:37:00     -154.028     -110.966        0.727       67.797       60.787       41.042     4596.458     3695.092     1684.463        2.301        0.499      189.837       46.104        0.059      339.714       13.235      859.392
11/28/2014  05:38:00     -116.777      -99.202        7.172       73.247       56.393       33.363     5365.153     3180.160     1113.068        1.659        0.483      153.225       37.190        0.059      339.560       12.975      859.388
11/28/2014  05:39:00      -56.411      -27.090        6.665       55.399       39.404       32.823     3069.019     1552.676     1077.382        0.483        0.285       62.578       32.156        0.264      339.417       12.736      859.286
11/28/2014  05:40:00      -52.565      -26.186       12.767       50.408       37.489       24.608     2540.972     1405.438      605.539        0.408        0.228       58.726       23.443        0.159      339.435       12.766      859.194
11/28/2014  05:41:00      -77.982      -66.913        2.296       61.300       37.486       28.319     3757.664     1405.194      801.955        0.826        0.298      102.755       13.976        0.018      339.411       12.727      859.218
11/28/2014  05:42:00      -72.422     -115.147        1.226       60.942       70.611       33.564     3713.961     4985.975     1126.575        1.416        0.491      136.029       28.316        0.043      339.400       12.707      859.296
11/28/2014  05:43:00     -104.270     -231.206       -2.281       54.327       84.060       37.531     2951.395     7066.021     1408.547        3.788        0.571      253.630       39.940        0.025      339.201       12.369      859.344
11/28/2014  05:44:00      -63.673     -234.405       -3.994       62.838       74.437       43.772     3948.557     5540.878     1915.954        3.521        0.570      242.899       33.156        0.019      339.261       12.470      859.338
11/28/2014  05:45:00     -113.730     -172.844       -9.672       87.372       58.059       43.114     7633.889     3370.808     1858.802        2.788        0.643      206.905       44.152        0.046      339.448       12.785      859.310
11/28/2014  05:46:00     -243.141      -96.740       -9.201       61.502       67.982       42.628     3782.508     4621.524     1817.170        3.939        0.511      261.680       30.448        0.014      339.577       13.001      859.263
11/28/2014  05:47:00     -150.039      -79.970        4.144       84.250       55.238       35.707     7097.988     3051.270     1275.010        2.017        0.571      170.021       35.324        0.043      339.616       13.071      859.248
11/28/2014  05:48:00     -112.357     -131.747        8.665       83.097       56.368       39.143     6905.160     3177.303     1532.161        2.083        0.581      173.151       38.249        0.049      339.321       12.573      859.250
11/28/2014  05:49:00     -174.613     -146.823      -13.717       73.711       52.368       44.181     5433.306     2742.409     1951.999        3.118        0.506      228.138       37.224        0.027      339.535       12.931      859.238
11/28/2014  05:50:00      -91.661     -122.863       -7.859       41.181       45.011       20.779     1695.907     2026.032      431.747        1.386        0.208      153.288       21.697        0.020      339.328       12.586      859.219
11/28/2014  05:51:00     -114.029     -107.127       -8.776       79.746       54.295       34.335     6359.424     2947.923     1178.875        1.752        0.524      156.457       39.053        0.062      339.233       12.424      859.189
11/28/2014  05:52:00     -174.308     -104.142       -3.653       46.461       48.369       25.423     2158.657     2339.530      646.351        2.319        0.257      203.049       21.717        0.011      339.126       12.243      859.147
11/28/2014  05:53:00     -167.534     -103.501        0.084      118.113       69.087       46.170    13950.740     4773.039     2131.646        2.981        1.043      196.926       60.620        0.095      338.924       11.905      859.167
11/28/2014  05:54:00     -272.506      -96.743       -4.496      128.370       85.933       50.983    16478.916     7384.555     2599.266        5.505        1.323      289.169       64.173        0.049      339.001       12.033      859.211
11/28/2014  05:55:00     -330.300      -70.352       -7.217      124.964       97.104       66.223    15615.980     9429.127     4385.504        7.176        1.472      337.710       71.582        0.045      339.480       12.839      859.160
11/28/2014  05:56:00     -330.199      -66.220       -8.087      142.605       94.390       60.880    20336.211     8909.425     3706.395        7.321        1.648      336.774       68.851        0.042      339.550       12.958      859.056
11/28/2014  05:57:00     -222.381     -131.232       -6.950      136.290       73.531       51.479    18575.015     5406.754     2650.116        4.667        1.332      258.215       44.557        0.030      339.919       13.579      859.086
11/28/2014  05:58:00     -244.871     -152.649      -12.804       97.384       86.070       44.543     9483.689     7408.033     1984.114        5.115        0.944      288.554       41.150        0.020      339.945       13.621      859.121
11/28/2014  05:59:00      -95.900     -250.462        8.762       66.377       86.415       36.977     4405.853     7467.492     1367.265        4.262        0.662      268.194       32.165        0.014      340.026       13.758      859.120
11/28/2014  06:00:00     -112.148     -118.016        4.450       96.672       82.499       35.278     9345.524     6806.151     1244.513        2.196        0.870      162.804       44.989        0.076      339.801       13.380      859.108
11/28/2014  06:01:00     -195.714      -86.251       -9.147       91.428       73.862       42.625     8359.090     5455.590     1816.930        3.073        0.782      213.876       41.896        0.038      339.608       13.057      859.083
11/28/2014  06:02:00     -200.924      -54.404       -3.123       82.585       89.222       43.981     6820.270     7960.611     1934.337        3.002        0.836      208.159       40.779        0.038      339.742       13.280      859.054
11/28/2014  06:03:00     -232.375     -133.133       10.385      134.950       97.721       63.732    18211.603     9549.329     4061.761        5.182        1.591      267.810       77.338        0.083      339.814       13.401      859.056
11/28/2014  06:04:00      -90.942      -88.601        7.737      105.067       98.682       61.189    11038.983     9738.141     3744.124        2.035        1.226      126.967       61.563        0.235      339.494       12.865      859.104
11/28/2014  06:05:00      -57.680     -111.760        8.820       97.519       77.020       51.005     9510.028     5932.112     2601.469        1.697        0.902      125.767       51.769        0.169      339.336       12.598      859.148
11/28/2014  06:06:00     -106.922     -138.040       -0.744       67.616       82.784       35.455     4571.893     6853.249     1257.045        2.158        0.634      174.606       30.781        0.031      339.372       12.657      859.234
11/28/2014  06:07:00     -231.533     -129.777      -10.699       84.178       69.166       48.396     7085.938     4783.929     2342.178        4.239        0.711      265.423       41.601        0.025      339.738       13.274      859.203
11/28/2014  06:08:00     -267.606      -66.131      -24.963       44.735       44.622       33.049     2001.255     1991.102     1092.260        4.085        0.254      275.656       22.411        0.007      340.181       14.017      859.066
11/28/2014  06:09:00     -101.339      -72.171       -4.057       75.249       53.734       36.277     5662.450     2887.296     1316.034        1.268        0.493      124.412       40.666        0.107      340.191       14.041      859.054
11/28/2014  06:10:00     -108.428     -153.087       -3.873       96.964       58.409       41.336     9402.048     3411.656     1708.675        2.486        0.726      187.596       33.437        0.032      339.458       12.803      859.158
11/28/2014  06:11:00     -125.051     -103.969        3.001      101.629       62.984       41.218    10328.419     3967.035     1698.909        2.122        0.800      162.627       42.101        0.067      339.248       12.448      859.197
11/28/2014  06:12:00     -198.541     -135.322      -17.729       52.345       50.418       35.250     2739.958     2542.008     1242.528        3.228        0.326      240.272       18.849        0.006      339.377       12.664      859.160
11/28/2014  06:13:00     -102.825     -126.475       19.246      204.245      113.166       69.663    41716.186    12806.638     4852.891        4.315        2.969      162.999       99.744        0.374      340.314       14.249      859.041
11/28/2014  06:14:00     -121.583     -104.965       -4.341       85.787       58.109       43.302     7359.379     3376.708     1875.038        1.921        0.631      160.624       35.468        0.049      339.986       13.693      859.033
11/28/2014  06:15:00     -344.099     -217.114       -7.534      141.747      112.309       67.247    20092.249    12613.366     4522.117       10.141        1.861      406.869       68.893        0.029      339.906       13.557      859.101
11/28/2014  06:16:00     -270.216     -171.322       -5.055      126.093      104.440       61.728    15899.495    10907.639     3810.403        6.650        1.531      319.950       65.146        0.041      339.645       13.118      859.109
11/28/2014  06:17:00     -291.514     -161.806       -1.955      111.217       82.936       53.393    12369.239     6878.441     2850.864        6.663        1.105      333.409       56.471        0.029      339.765       13.319      859.096
11/28/2014  06:18:00     -184.741      -54.599       -3.199       79.798       59.857       34.774     6367.655     3582.870     1209.240        2.414        0.558      192.640       23.503        0.015      339.886       13.524      858.988
11/28/2014  06:19:00     -251.151      -94.897       -0.525      108.850       92.587       48.980    11848.276     8572.342     2399.055        4.745        1.141      268.481       47.632        0.031      339.653       13.130      858.957
11/28/2014  06:20:00     -262.852      -87.450       -1.569      113.648       99.794       57.091    12915.789     9958.781     3259.369        5.143        1.307      277.018       48.232        0.030      339.506       12.883      858.970
11/28/2014  06:21:00     -421.430     -156.254      -17.905      140.084      104.824       47.377    19623.523    10987.988     2244.600       11.759        1.643      449.465       51.994        0.013      339.749       13.292      858.974
11/28/2014  06:22:00     -462.817     -211.544      -26.996       95.012      104.966       65.969     9027.190    11017.863     4351.910       14.203        1.220      508.872       53.012        0.011      339.934       13.605      858.971
11/28/2014  06:23:00     -286.976     -122.130       -4.744      130.018       92.331       54.693    16904.736     8525.057     2991.366        6.285        1.421      311.883       53.362        0.029      339.411       12.722      858.976
11/28/2014  06:24:00     -184.864      -70.649       -2.798      109.346       84.548       49.819    11956.504     7148.370     2481.966        3.038        1.079      197.904       48.103        0.059      339.369       12.651      859.005
11/28/2014  06:25:00     -286.841     -130.109      -18.906      136.083      128.686       61.675    18518.457    16560.083     3803.760        6.922        1.944      314.970       70.589        0.050      339.597       13.037      859.027
11/28/2014  06:26:00     -195.885     -104.342        0.830       99.340      113.369       60.423     9868.446    12852.548     3650.972        3.781        1.319      221.942       60.048        0.073      339.776       13.337      859.049
11/28/2014  06:27:00     -124.548     -130.779      -10.112       62.049      100.296       39.523     3850.112    10059.236     1562.076        2.409        0.774      180.598       42.617        0.056      340.465       14.503      858.971
11/28/2014  06:28:00      -62.251      -67.791       -4.337       44.917       41.782       18.766     2017.542     1745.748      352.170        0.630        0.206       92.037       16.248        0.031      339.987       13.697      858.913
11/28/2014  06:29:00       -3.163      -25.999        4.905       44.748       33.380       25.124     2002.390     1114.220      631.231        0.223        0.187       26.191       20.848        0.634      339.706       13.222      858.861
11/28/2014  06:30:00     -185.631      -70.651      -16.051       83.765       40.409       28.417     7016.559     1632.863      807.499        2.458        0.473      198.622       26.265        0.017      339.861       13.484      858.885
11/28/2014  06:31:00     -301.693      -94.085        2.105      111.138      101.620       51.823    12351.617    10326.694     2685.644        6.261        1.268      316.023       56.486        0.032      339.562       12.977      858.925
11/28/2014  06:32:00     -353.707      -87.609        3.068      150.285      100.253       64.844    22585.676    10050.618     4204.695        8.481        1.842      364.396       79.402        0.047      340.014       13.739      858.928
11/28/2014  06:33:00     -225.614      -98.413        1.259      125.236       77.151       50.558    15684.153     5952.347     2556.145        4.239        1.210      246.144       57.215        0.054      339.974       13.672      858.952
11/28/2014  06:34:00     -164.937      -58.477        1.132       75.984       46.606       37.029     5773.520     2172.120     1371.181        1.997        0.466      174.997       34.487        0.039      339.719       13.243      858.950
11/28/2014  06:35:00     -250.985     -106.882       -9.726       70.010       79.282       46.265     4901.417     6285.676     2140.492        4.392        0.666      272.795       33.419        0.015      339.527       12.917      858.943
11/28/2014  06:36:00     -288.195      -67.519       -9.378      114.741       78.273       52.042    13165.495     6126.717     2708.358        5.485        1.100      295.999       59.405        0.040      339.451       12.789      858.920
11/28/2014  06:37:00     -341.268     -100.004      -13.304      111.179      101.060       55.996    12360.748    10213.087     3135.538        7.617        1.285      355.618       52.591        0.022      339.589       13.024      858.936
11/28/2014  06:38:00     -275.747      -65.806      -17.220       93.483       81.244       36.656     8739.039     6600.614     1343.642        4.867        0.834      283.491       37.670        0.018      339.463       12.809      858.950
11/28/2014  06:39:00     -257.119      -59.813       -7.711      104.248       76.519       51.464    10867.549     5855.123     2648.530        4.456        0.969      263.985       49.972        0.036      339.614       13.066      858.930
11/28/2014  06:40:00     -251.185      -68.266       -2.443       93.105       81.912       48.218     8668.587     6709.622     2324.970        4.273        0.885      260.296       46.293        0.032      339.883       13.519      858.875
11/28/2014  06:41:00     -312.186     -165.673      -12.020      112.975       83.770       51.607    12763.307     7017.392     2663.234        7.374        1.122      353.423       50.517        0.020      339.837       13.441      858.846
11/28/2014  06:42:00     -234.341     -105.953       -8.065      141.243       92.885       56.916    19949.570     8627.661     3239.391        4.901        1.591      257.180       72.855        0.080      339.762       13.315      858.914
11/28/2014  06:43:00     -271.620      -17.281      -10.014      141.746      105.900       56.801    20091.916    11214.824     3226.297        5.435        1.727      272.169       61.602        0.051      339.813       13.401      858.978
11/28/2014  06:44:00     -220.656     -126.920      -13.028      140.838       97.024       69.223    19835.340     9413.715     4791.885        4.950        1.702      254.554       58.603        0.053      339.728       13.259      858.952
11/28/2014  06:45:00     -251.583     -111.578       -9.419      117.009      104.326       53.815    13690.996    10883.997     2896.019        5.165        1.374      275.216       55.346        0.040      339.664       13.150      858.936
11/28/2014  06:46:00     -293.238      -79.926      -12.622      143.784       85.613       64.420    20673.930     7329.611     4149.995        6.234        1.608      303.935       67.619        0.049      339.946       13.625      858.949
11/28/2014  06:47:00     -262.391     -111.477       -4.957      158.704      116.218       69.613    25187.027    13506.729     4845.978        6.241        2.177      285.090       76.985        0.073      340.062       13.820      858.963
11/28/2014  06:48:00      -60.000      -40.771       25.117       96.451       69.784       56.040     9302.817     4869.777     3140.432        1.160        0.866       72.541       49.626        0.468      340.111       13.906      858.952
11/28/2014  06:49:00     -115.703     -107.219       -4.330       65.280       90.603       25.454     4261.517     8208.921      647.890        1.901        0.656      157.744       31.571        0.040      340.243       14.125      858.913
11/28/2014  06:50:00     -170.118     -204.149       -7.992      118.519      117.313       52.472    14046.842    13762.347     2753.332        5.062        1.528      265.738       54.856        0.043      340.760       15.000      858.889
11/28/2014  06:51:00      -98.787     -110.571       20.827       87.177       87.096       55.620     7599.774     7585.642     3093.626        2.035        0.914      148.273       49.135        0.110      340.581       14.698      858.897
11/28/2014  06:52:00     -250.269     -174.197       -9.973      109.618      100.674       54.823    12016.072    10135.248     3005.571        5.911        1.258      304.925       58.344        0.037      340.444       14.465      858.922
11/28/2014  06:53:00     -427.535     -248.256      -27.346      147.998      152.396       77.799    21903.378    23224.666     6052.658       14.816        2.559      494.386       85.095        0.030      340.693       14.887      858.971
11/28/2014  06:54:00     -249.297     -140.177        7.639      157.342      141.154       67.565    24756.408    19924.402     4565.060        6.554        2.462      286.004       92.954        0.106      340.828       15.117      859.027
11/28/2014  06:55:00     -184.372     -108.204       15.796      148.312      122.514       61.682    21996.451    15009.592     3804.704        4.337        2.041      213.778       58.831        0.076      340.688       14.879      859.008
11/28/2014  06:56:00      -36.649     -159.210       -0.617       52.004       90.883       42.534     2704.467     8259.737     1809.170        1.973        0.639      163.374       31.312        0.037      340.783       15.040      858.932
11/28/2014  06:57:00      -52.474     -129.425       10.019       65.897       71.256       36.839     4342.390     5077.429     1357.090        1.519        0.539      139.657       31.039        0.049      340.733       14.956      858.891
11/28/2014  06:58:00      -76.778      -92.763       11.873       55.884       37.410       31.654     3123.007     1399.500     1001.986        1.008        0.276      120.415       15.467        0.016      340.486       14.540      858.937
11/28/2014  06:59:00     -123.056     -123.302       -1.926       68.622       61.911       38.508     4708.951     3832.956     1482.860        2.019        0.501      174.202       30.693        0.031      340.504       14.567      859.024
11/28/2014  07:00:00     -161.385      -51.236      -27.907       48.703       30.484       21.886     2372.009      929.260      478.978        1.661        0.189      169.323       11.937        0.005      340.540       14.630      858.994
11/28/2014  07:01:00     -178.898      -38.357      -15.511       39.555       42.689       23.543     1564.591     1822.311      554.287        1.883        0.197      182.964       21.150        0.013      340.533       14.618      858.933
11/28/2014  07:02:00     -178.461      -40.621      -15.180       66.210       63.340       33.779     4383.801     4011.919     1141.019        2.163        0.477      183.025       23.275        0.016      340.367       14.336      858.897
11/28/2014  07:03:00     -294.348     -121.833       -6.406       71.307       70.523       38.555     5084.643     4973.470     1486.481        5.653        0.577      318.566       31.699        0.010      340.004       13.722      858.958
11/28/2014  07:04:00     -375.864     -130.402       -5.628       84.569       82.994       47.315     7151.957     6887.951     2238.695        8.729        0.814      397.842       47.179        0.014      340.095       13.877      859.054
11/28/2014  07:05:00     -300.977      -74.995        4.295      145.376      103.381       70.532    21134.315    10687.588     4974.824        6.651        1.840      310.180       73.758        0.057      340.057       13.811      859.089
11/28/2014  07:06:00     -209.188      -75.967       -1.826      169.496       80.150       52.255    28728.860     6423.974     2730.603        4.370        1.894      222.555       51.202        0.053      339.897       13.544      859.105
11/28/2014  07:07:00      -73.589     -108.642        8.528       89.640       76.783       36.092     8035.287     5895.584     1302.621        1.626        0.762      131.219       27.963        0.045      340.259       14.156      859.080
11/28/2014  07:08:00     -128.282      -78.298        9.479       86.551       55.951       45.936     7490.997     3130.494     2110.077        1.770        0.637      150.289       46.138        0.094      340.585       14.705      859.004
11/28/2014  07:09:00     -308.249     -246.147       -3.681      145.938      155.152       65.940    21297.937    24072.235     4348.148       10.266        2.486      394.469       78.757        0.040      340.377       14.352      859.035
11/28/2014  07:10:00     -292.214     -121.777       -7.588      136.757       97.881       59.633    18702.403     9580.687     3556.049        6.605        1.592      316.573       55.741        0.031      340.766       15.010      859.063
11/28/2014  07:11:00     -343.876     -121.033       -2.837      135.805      108.020       64.575    18442.953    11668.294     4169.982        8.359        1.714      364.554       65.961        0.033      340.717       14.928      859.029
11/28/2014  07:12:00     -371.123      -35.108      -11.480      182.475      139.028       67.457    33297.144    19328.668     4550.434        9.813        2.859      372.780       73.154        0.039      340.793       15.057      859.053
11/28/2014  07:13:00     -369.496     -130.079       -7.804      169.286       92.159       56.110    28657.619     8493.354     3148.290        9.690        2.015      391.725       53.990        0.019      340.389       14.372      859.091
11/28/2014  07:14:00     -295.855      -65.880       -5.158      127.841       94.104       56.718    16343.224     8855.596     3216.959        6.015        1.421      303.101       58.087        0.037      340.263       14.159      859.055
11/28/2014  07:15:00     -356.133      -41.084      -19.706      110.713       87.690       48.276    12257.395     7689.452     2330.541        7.559        1.114      358.495       47.527        0.018      340.572       14.682      859.063
11/28/2014  07:16:00     -373.616      -34.350      -14.624      145.125       88.251       59.774    21061.259     7788.173     3572.905        8.670        1.621      375.192       71.309        0.036      340.294       14.212      859.024
11/28/2014  07:17:00     -336.657      -33.818      -18.752      145.032      116.937       59.486    21034.153    13674.341     3538.634        7.653        1.912      338.352       73.501        0.047      340.694       14.890      858.948
11/28/2014  07:18:00     -132.593       42.140       -4.714       74.479      113.054       50.842     5547.156    12781.160     2584.914        2.014        1.046      139.128       45.467        0.107      340.657       14.827      858.926
11/28/2014  07:19:00     -349.028     -172.985      -26.184      118.371      106.824       65.302    14011.734    11411.439     4264.335        9.105        1.484      389.544       45.551        0.014      340.160       13.985      859.021
11/28/2014  07:20:00     -288.038     -120.187      -18.607      121.830       80.367       61.272    14842.669     6458.819     3754.263        6.140        1.253      312.107       63.963        0.042      340.071       13.836      859.040
11/28/2014  07:21:00     -261.632     -113.634       -4.745      121.318       99.740       54.027    14718.178     9948.138     2918.897        5.448        1.379      285.244       59.092        0.043      339.922       13.584      859.032
11/28/2014  07:22:00     -323.087      -82.389      -20.263      153.871       87.443       54.698    23676.210     7646.194     2991.862        7.294        1.716      333.426       52.032        0.024      339.923       13.585      859.017
11/28/2014  07:23:00     -295.255      -41.863      -17.846      154.881      120.025       73.164    23987.994    14406.060     5352.977        6.649        2.187      298.208       81.843        0.075      339.953       13.636      859.047
11/28/2014  07:24:00     -367.614      -67.978      -13.257      170.782      142.866       70.097    29166.367    20410.559     4913.624        9.720        2.725      373.846       80.407        0.046      339.962       13.651      859.066
11/28/2014  07:25:00     -428.529      -66.915       -2.239      163.949      122.012       76.300    26879.239    14886.865     5821.732       11.784        2.379      433.722       85.458        0.039      340.023       13.753      859.100
11/28/2014  07:26:00     -344.846      -39.559        2.140      172.618      113.295       75.917    29796.873    12835.844     5763.355        8.443        2.420      347.108       86.083        0.062      339.941       13.616      859.119
11/28/2014  07:27:00     -340.426     -100.336      -19.871      132.219       97.065       62.729    17481.981     9421.574     3934.873        7.859        1.542      354.904       66.524        0.035      340.144       13.957      859.087
11/28/2014  07:28:00     -233.316      -70.477      -15.844      104.239      102.392       45.063    10865.847    10484.218     2030.645        4.151        1.169      243.728       42.686        0.031      340.014       13.739      859.029
11/28/2014  07:29:00     -337.211     -192.898      -15.146      140.826       99.725       58.632    19832.037     9945.102     3437.665        9.218        1.661      388.485       57.506        0.022      339.897       13.542      859.042
11/28/2014  07:30:00     -377.849     -184.222      -19.376      134.234      110.774       65.192    18018.873    12270.819     4249.945       10.580        1.727      420.366       57.148        0.018      340.253       14.143      859.133
11/28/2014  07:31:00     -272.849     -125.530      -10.189      147.918      124.289       66.695    21879.638    15447.744     4448.207        6.603        2.089      300.340       64.916        0.047      340.041       13.785      859.180
11/28/2014  07:32:00     -398.583      -21.482      -24.551      113.460      106.892       57.208    12873.155    11425.862     3272.790        9.375        1.379      399.162       50.386        0.016      340.216       14.081      859.212
11/28/2014  07:33:00     -194.000      -68.287        2.619      148.450       66.707       52.643    22037.508     4449.765     2771.269        3.578        1.463      205.667       65.804        0.102      340.073       13.839      859.155
11/28/2014  07:34:00     -378.493     -104.207      -31.919      151.292      110.478       71.800    22889.166    12205.381     5155.220        9.768        2.012      392.576       61.531        0.025      340.123       13.923      859.126
11/28/2014  07:35:00     -394.589      -37.225      -26.185      166.500      123.618       74.263    27722.409    15281.406     5515.002       10.314        2.426      396.341       75.403        0.036      340.201       14.056      859.164
11/28/2014  07:36:00     -395.886      -36.373       -3.718      190.924       94.980       69.910    36451.938     9021.263     4887.375       10.420        2.518      397.554       69.676        0.031      340.174       14.010      859.233
11/28/2014  07:37:00     -105.498      -83.492       15.687       92.963       83.804       51.783     8642.185     7023.073     2681.432        1.834        0.917      134.539       50.031        0.138      340.018       13.748      859.261
11/28/2014  07:38:00     -169.581      -94.013       12.947      129.156       98.129       52.135    16681.284     9629.269     2718.072        3.339        1.451      193.898       55.905        0.083      340.009       13.732      859.200
11/28/2014  07:39:00     -255.110      -37.269       -6.175      143.850       96.411       59.148    20692.862     9295.128     3498.516        4.999        1.674      257.818       62.422        0.059      340.125       13.927      859.171
11/28/2014  07:40:00     -262.367     -141.364      -10.042      129.719      111.382       66.751    16826.950    12405.934     4455.736        6.130        1.684      298.027       68.998        0.054      340.126       13.928      859.161
11/28/2014  07:41:00     -131.561      -32.591       25.307       95.432       91.243       67.976     9107.183     8325.247     4620.770        2.053        1.103      135.538       56.755        0.175      340.066       13.829      859.136
11/28/2014  07:42:00     -410.466      -40.019       -1.675      207.228      138.189       93.441    42943.586    19096.119     8731.192       12.041        3.539      412.413      102.003        0.061      340.348       14.303      859.099
11/28/2014  07:43:00     -281.590      -14.759        2.300      145.188      119.046       84.503    21079.515    14172.033     7140.761        6.095        2.120      281.976       88.008        0.097      340.415       14.418      859.093
11/28/2014  07:44:00     -355.506     -153.595       -2.824      137.178      121.609       62.750    18817.757    14788.757     3937.616        9.376        1.877      387.268       62.283        0.026      340.287       14.201      859.080
11/28/2014  07:45:00     -165.245      -46.535        8.973      131.601       81.294       54.875    17318.733     6608.698     3011.253        2.824        1.347      171.672       59.910        0.122      340.401       14.395      859.149
11/28/2014  07:46:00       20.071       23.111       19.887       42.721       30.998       26.702     1825.120      960.887      712.997        0.242        0.175       30.610       28.170        0.847      340.470       14.513      859.173
11/28/2014  07:47:00      -33.247      -22.063        0.709       41.304       29.955       19.755     1706.037      897.300      390.254        0.229        0.150       39.901       18.238        0.209      340.499       14.561      859.181
11/28/2014  07:48:00      -60.736       25.843       -2.499       38.183       21.242       28.251     1457.978      451.223      798.123        0.353        0.135       66.005       16.250        0.061      340.768       15.017      859.219
11/28/2014  07:49:00     -208.042      -11.363       -0.834      143.170       94.096       55.731    20497.593     8854.019     3105.973        3.793        1.623      208.352       35.269        0.029      340.687       14.878      859.260
11/28/2014  07:50:00     -219.887     -138.598        2.782      173.213      110.727       71.397    30002.641    12260.504     5097.583        5.745        2.368      259.922       81.837        0.099      340.368       14.336      859.287
11/28/2014  07:51:00     -386.873     -233.460      -15.035      150.760      124.154       80.915    22728.559    15414.107     6547.252       12.454        2.234      451.856       83.646        0.034      340.454       14.482      859.270
11/28/2014  07:52:00     -278.141     -193.925        4.139      119.680       86.737       56.874    14323.188     7523.342     3234.681        7.003        1.254      339.072       49.624        0.021      340.579       14.694      859.258
11/28/2014  07:53:00     -203.623     -120.431       -7.213      132.819       81.068       64.776    17640.862     6572.101     4195.932        4.221        1.420      236.572       70.965        0.090      340.502       14.564      859.238
11/28/2014  07:54:00     -122.661      -65.357       10.979       98.531       66.760       43.793     9708.429     4456.854     1917.806        1.776        0.804      138.987       47.716        0.118      340.588       14.712      859.276
11/28/2014  07:55:00      -14.665      -29.488       17.513       43.567       48.047       24.177     1898.077     2308.506      584.529        0.309        0.240       32.933       19.300        0.343      340.808       15.084      859.276
11/28/2014  07:56:00     -119.753      -76.632      -11.599       84.563       71.863       41.999     7150.883     5164.351     1763.896        1.721        0.704      142.173       38.368        0.073      341.029       15.457      859.257
11/28/2014  07:57:00     -103.685      -65.234      -14.336       88.856       57.758       27.095     7895.314     3336.024      734.134        1.359        0.598      122.499       29.699        0.059      340.918       15.270      859.256
11/28/2014  07:58:00      -56.661      -36.394        3.293       90.508       46.151       27.514     8191.681     2129.944      757.028        0.781        0.554       67.342       37.229        0.306      340.908       15.254      859.199
11/28/2014  07:59:00     -196.887     -124.573        6.794      148.184       94.031       49.236    21958.487     8841.883     2424.146        4.377        1.661      232.987       61.967        0.071      340.637       14.794      859.160
11/28/2014  08:00:00      -47.709        9.667       17.694       74.276       56.981       30.742     5516.977     3246.871      945.049        0.619        0.485       48.678       36.736        0.570      340.721       14.937      859.192
11/28/2014  08:01:00     -293.034      -60.978      -21.259      127.313       99.960       53.942    16208.482     9991.970     2909.771        5.957        1.456      299.311       59.122        0.039      340.491       14.545      859.202
11/28/2014  08:02:00     -319.559      -91.897      -21.090      138.609      109.819       66.367    19212.531    12060.249     4404.633        7.334        1.784      332.510       63.228        0.036      340.426       14.435      859.244
11/28/2014  08:03:00     -317.619      -64.166      -27.903      102.022       85.912       55.912    10408.481     7380.834     3126.195        6.334        1.046      324.035       50.804        0.025      340.548       14.640      859.295
11/28/2014  08:04:00     -263.093      -38.300      -22.391       74.785       73.558       35.570     5592.828     5410.739     1265.199        4.172        0.613      265.866       35.582        0.018      340.468       14.504      859.287
11/28/2014  08:05:00     -254.689      -26.411      -17.412      105.915       70.443       47.895    11217.951     4962.190     2293.927        4.217        0.924      256.054       45.949        0.032      340.520       14.595      859.232
11/28/2014  08:06:00     -231.995      -29.133      -27.468       82.389       65.310       44.336     6787.866     4265.457     1965.670        3.422        0.651      233.817       48.049        0.042      340.601       14.731      859.211
11/28/2014  08:07:00     -186.956      -71.878       -4.110       89.513       81.512       49.869     8012.573     6644.210     2486.960        2.864        0.857      200.297       41.485        0.043      340.538       14.626      859.217
11/28/2014  08:08:00     -276.868      -54.526       -6.177      100.112       97.921       49.026    10022.359     9588.550     2403.528        5.084        1.101      282.186       48.704        0.030      340.498       14.558      859.250
11/28/2014  08:09:00     -264.314     -100.922      -16.724      109.713       86.385       53.905    12036.850     7462.316     2905.732        5.136        1.120      282.926       58.459        0.043      340.497       14.554      859.301
11/28/2014  08:10:00     -168.729      -91.601       -6.003      113.718       88.769       51.508    12931.758     7879.931     2653.067        3.018        1.173      191.990       56.662        0.087      340.471       14.512      859.330
11/28/2014  08:11:00     -198.025      -40.251       -9.601      100.809       82.063       44.861    10162.355     6734.354     2012.527        2.991        0.945      202.075       57.373        0.081      340.484       14.533      859.346
11/28/2014  08:12:00     -199.243      -57.211       -9.477       88.803       78.145       43.496     7886.003     6106.609     1891.942        2.947        0.794      207.294       37.277        0.032      340.524       14.602      859.343
11/28/2014  08:13:00     -207.341      -20.957        3.459      139.793       85.425       56.255    19541.965     7297.376     3164.614        3.672        1.500      208.397       66.999        0.103      340.584       14.702      859.332
11/28/2014  08:14:00     -138.958      -61.138        7.137      106.089       86.875       49.993    11254.864     7547.234     2499.255        2.220        1.065      151.813       53.567        0.125      340.731       14.951      859.368
11/28/2014  08:15:00     -256.072     -117.392       -5.536      103.579       90.524       45.583    10728.681     8194.631     2077.843        5.019        1.050      281.698       42.729        0.023      340.893       15.226      859.430
11/28/2014  08:16:00     -266.693     -158.359      -12.616      110.853       98.390       61.512    12288.405     9680.687     3783.694        6.105        1.288      310.166       64.626        0.043      340.781       15.036      859.459
11/28/2014  08:17:00     -230.090      -71.349      -15.697      102.937      124.667       59.137    10596.097    15541.971     3497.196        4.395        1.482      240.899       66.414        0.076      340.678       14.862      859.484
11/28/2014  08:18:00     -241.684      -66.567       -2.202      115.609       89.004       48.644    13365.338     7921.798     2366.230        4.325        1.183      250.684       59.751        0.057      340.700       14.898      859.444
11/28/2014  08:19:00      -74.571      -15.626       10.263       89.123       52.069       35.513     7942.867     2711.201     1261.182        0.891        0.596       76.190       47.369        0.387      340.720       14.934      859.430
11/28/2014  08:20:00      -45.492      -43.238       -0.925       49.899       52.061       23.157     2489.900     2710.368      536.249        0.484        0.287       62.761       16.983        0.073      340.681       14.869      859.411
11/28/2014  08:21:00     -141.142      -94.542       -6.032       83.125       54.119       49.930     6909.836     2928.850     2493.032        2.061        0.617      169.880       46.770        0.076      340.670       14.849      859.430
11/28/2014  08:22:00     -135.299      -85.450       -3.721       73.677       55.394       28.793     5428.260     3068.477      829.042        1.747        0.466      160.024       31.525        0.039      340.678       14.864      859.447
11/28/2014  08:23:00     -180.590     -170.518       -7.748       80.486       69.510       43.401     6477.952     4831.684     1883.665        3.747        0.660      248.372       11.757        0.002      340.913       15.259      859.452
11/28/2014  08:24:00     -115.827      -88.118        1.495       65.057       63.011       37.242     4232.414     3970.412     1386.962        1.538        0.479      145.536       26.508        0.033      340.904       15.246      859.412
11/28/2014  08:25:00      -83.534      -61.743       -1.428       55.570       49.552       23.520     3087.984     2455.354      553.209        0.844        0.305      103.876       26.459        0.065      340.936       15.301      859.387
11/28/2014  08:26:00     -173.049      -91.337      -22.723       30.390       32.305       21.945      923.572     1043.601      481.601        2.063        0.122      195.674       19.277        0.010      340.938       15.302      859.410
11/28/2014  08:27:00     -177.239      -69.673       -2.531       70.900       72.134       33.128     5026.764     5203.309     1097.456        2.380        0.566      190.441       31.337        0.027      340.991       15.392      859.455
11/28/2014  08:28:00     -160.780     -103.066        0.922       76.573       62.776       44.520     5863.455     3940.773     1982.009        2.413        0.589      190.979       39.294        0.042      341.009       15.423      859.475
11/28/2014  08:29:00     -138.887      -81.890        6.288      110.807       65.750       40.007    12278.256     4323.075     1600.559        2.211        0.910      161.231       44.805        0.077      341.084       15.549      859.422
11/28/2014  08:30:00     -165.921      -74.227       10.337       87.236      101.924       42.544     7610.060    10388.579     1809.986        2.647        0.990      181.768       43.017        0.056      341.130       15.627      859.388
11/28/2014  08:31:00      -85.348      -66.872       10.918       97.947       71.473       37.282     9593.537     5108.359     1389.945        1.398        0.805      108.426       40.023        0.136      341.135       15.637      859.401
11/28/2014  08:32:00     -192.154     -103.179      -18.643       87.722       81.735       44.239     7695.234     6680.585     1957.075        3.212        0.817      218.104       47.872        0.048      341.324       15.956      859.404
11/28/2014  08:33:00     -161.086      -69.602        5.304       82.930       71.372       39.300     6877.342     5093.926     1544.527        2.217        0.676      175.480       38.714        0.049      341.458       16.180      859.400
11/28/2014  08:34:00     -172.399      -31.498        2.439       69.235       55.429       31.026     4793.431     3072.393      962.590        1.977        0.441      175.253       30.841        0.031      341.446       16.162      859.417
11/28/2014  08:35:00     -153.006      -43.983       -2.523       87.159       68.511       34.560     7596.673     4693.812     1194.411        1.942        0.674      159.202       42.489        0.071      341.443       16.158      859.431
11/28/2014  08:36:00     -222.925      -81.192       -9.805       78.943       63.712       41.601     6231.999     4059.189     1730.645        3.420        0.601      237.250       35.664        0.023      341.456       16.178      859.443
11/28/2014  08:37:00     -222.292       -1.589      -14.674       79.561       77.910       51.135     6329.949     6069.911     2614.782        3.232        0.751      222.297       45.690        0.042      341.459       16.184      859.420
11/28/2014  08:38:00     -240.430       10.838      -20.923      126.172       95.352       45.337    15919.300     9091.922     2055.399        4.271        1.353      240.674       26.521        0.012      341.329       15.964      859.380
11/28/2014  08:39:00     -272.799      -82.067      -27.518       90.479       71.258       47.471     8186.477     5077.675     2253.449        4.871        0.776      284.876       47.264        0.028      341.236       15.804      859.372
11/28/2014  08:40:00     -237.115      -78.195       -4.847      107.908       77.928       44.333    11644.095     6072.791     1965.442        4.102        0.984      249.676       51.582        0.043      341.248       15.826      859.391
11/28/2014  08:41:00     -228.252     -123.837       -0.692      126.495      106.939       61.728    16001.055    11435.929     3810.376        4.934        1.562      259.682       66.108        0.065      341.247       15.825      859.402
11/28/2014  08:42:00     -197.979     -122.023      -14.057      138.296       94.226       46.056    19125.671     8878.482     2121.119        4.220        1.506      232.563       39.940        0.029      341.359       16.014      859.444
11/28/2014  08:43:00     -174.744     -189.168       -6.093      101.005       91.921       42.817    10201.970     8449.400     1833.285        4.342        1.024      257.526       42.100        0.027      341.365       16.024      859.492
11/28/2014  08:44:00     -119.958     -174.597        3.482       86.400       97.480       54.649     7465.025     9502.402     2986.536        3.242        0.998      211.835       45.749        0.047      341.350       15.999      859.547
11/28/2014  08:45:00      -85.476     -124.189       -6.949       54.889       65.276       38.414     3012.830     4260.913     1475.662        1.576        0.437      150.762       39.593        0.069      341.404       16.090      859.526
11/28/2014  08:46:00     -168.960     -126.165       -9.588       54.919       52.678       24.142     3016.140     2775.020      582.817        2.546        0.319      210.867       20.348        0.009      341.410       16.099      859.473
11/28/2014  08:47:00     -220.143      -87.926       -4.590       75.062       65.335       40.675     5634.335     4268.719     1654.425        3.388        0.578      237.053       36.143        0.023      341.387       16.060      859.490
11/28/2014  08:48:00     -218.274     -127.497      -21.165       83.389       74.285       34.546     6953.657     5518.304     1193.398        3.900        0.683      252.783       32.821        0.017      341.432       16.137      859.503
11/28/2014  08:49:00     -183.327     -145.835       -6.824       83.851       92.045       50.390     7030.985     8472.220     2539.179        3.648        0.902      234.257       43.002        0.034      341.465       16.192      859.514
11/28/2014  08:50:00     -143.660     -109.413       -8.116      101.402       67.252       41.173    10282.340     4522.829     1695.237        2.458        0.825      180.580       45.407        0.063      341.442       16.155      859.530
11/28/2014  08:51:00     -155.342     -141.517       -5.030      113.468       84.508       48.939    12874.968     7141.576     2395.053        3.329        1.121      210.138       50.576        0.058      341.458       16.180      859.537
11/28/2014  08:52:00     -102.463     -164.107       -9.857       63.138       63.974       38.192     3986.445     4092.710     1458.636        2.353        0.477      193.468       19.963        0.011      341.513       16.274      859.542
11/28/2014  08:53:00      -38.750       -5.234       -3.818       36.352       22.853       20.472     1321.467      522.245      419.091        0.190        0.113       39.102       11.972        0.094      341.619       16.457      859.551
11/28/2014  08:54:00      -97.016      -57.021       -0.780       82.162       44.485       21.276     6750.620     1978.938      452.677        1.092        0.459      112.533       19.864        0.031      341.500       16.255      859.566
11/28/2014  08:55:00     -123.857      -79.022       -6.336       34.609       37.999       19.802     1197.763     1443.906      392.110        1.233        0.152      146.918        5.104        0.001      341.504       16.262      859.574
11/28/2014  08:56:00      -86.965      -56.628        1.248       26.447       34.998       20.012      699.459     1224.864      400.461        0.655        0.116      103.777       16.050        0.024      341.491       16.240      859.569
11/28/2014  08:57:00      -96.927      -40.381       -2.023       27.869       36.738       19.820      776.707     1349.717      392.822        0.677        0.126      105.002       14.521        0.019      341.544       16.330      859.582
11/28/2014  08:58:00      -92.056      -60.721       -7.319       42.893       31.532       18.330     1839.810      994.284      336.006        0.769        0.159      110.279       17.668        0.026      341.517       16.283      859.605
11/28/2014  08:59:00      -68.875      -77.394       -1.778       40.343       38.284       26.053     1627.533     1465.668      678.768        0.725        0.189      103.603       20.556        0.039      341.485       16.229      859.631
11/28/2014  09:00:00      -60.009      -44.143       -6.382       20.438       23.067       13.935      417.699      532.089      194.179        0.337        0.057       74.496       13.666        0.034      341.578       16.387      859.647
11/28/2014  09:01:00      -86.564      -67.511       -3.592       32.277       26.961       21.377     1041.815      726.880      456.965        0.714        0.111      109.778       16.115        0.022      341.574       16.382      859.669
11/28/2014  09:02:00      -86.415      -13.932        3.465       46.884       38.763       26.359     2198.085     1502.583      694.792        0.603        0.220       87.531       28.650        0.107      341.614       16.449      859.655
11/28/2014  09:03:00       13.890       16.362       11.061       29.046       19.719       20.586      843.689      388.833      423.801        0.112        0.083       21.463        6.091        0.081      341.807       16.777      859.617
11/28/2014  09:04:00        2.925       73.082       96.428       34.150       56.145       39.363     1166.248     3152.236     1549.435        1.026        0.293       73.140       43.328        0.351      342.023       17.142      859.557
11/28/2014  09:05:00       38.701       67.299      111.293       47.403       98.579       49.135     2247.038     9717.729     2414.256        1.639        0.719       77.634       62.737        0.653      341.902       16.936      859.501
11/28/2014  09:06:00        5.090      -26.390       29.716       32.104       66.735       47.905     1030.661     4453.594     2294.921        0.469        0.389       26.876       47.530        3.127      341.897       16.929      859.519
11/28/2014  09:07:00      -47.014      -50.860      -11.129       20.851       18.741       13.398      434.748      351.229      179.509        0.294        0.048       69.261        7.262        0.011      341.597       16.419      859.522
11/28/2014  09:08:00       -6.101      -21.858       -0.363       22.598       31.450       24.418      510.668      989.102      596.225        0.131        0.105       22.693       23.895        1.109      341.828       16.812      859.534
11/28/2014  09:09:00       50.424       59.738       48.852       45.413       30.080       36.550     2062.317      904.798     1335.903        0.640        0.215       78.174       24.363        0.097      341.890       16.917      859.502
11/28/2014  09:10:00       17.963      -18.389        6.252       37.865       47.989       30.831     1433.783     2302.973      950.552        0.269        0.234       25.707       24.457        0.905      341.999       17.101      859.490
11/28/2014  09:11:00       -8.427     -100.937        3.477       45.322       51.443       37.603     2054.077     2646.414     1413.952        0.819        0.306      101.288       25.115        0.061      341.761       16.697      859.481
11/28/2014  09:12:00      -24.114      -85.339       -7.053       56.466       47.564       26.689     3188.394     2262.368      712.315        0.704        0.308       88.680       11.507        0.017      341.675       16.551      859.501
11/28/2014  09:13:00     -171.783      -69.159       -5.195       52.993       51.523       27.794     2808.235     2654.668      772.511        2.028        0.312      185.182       28.708        0.024      341.611       16.441      859.536
11/28/2014  09:14:00     -175.855     -111.569       11.643      159.233      117.480       65.596    25355.010    13801.456     4302.857        4.347        2.173      208.261       71.819        0.119      341.657       16.520      859.554
11/28/2014  09:15:00       -9.637      -18.620       27.414      112.366       81.479       48.083    12626.202     6638.897     2311.995        1.138        1.079       20.966       58.733        7.848      341.791       16.747      859.568
11/28/2014  09:16:00       82.870      -15.608       31.614       62.684      106.185       45.765     3929.299    11275.216     2094.396        1.270        0.865       84.328       50.142        0.354      341.935       16.992      859.510
11/28/2014  09:17:00       74.519      -46.504       41.141       76.491      100.885       57.629     5850.908    10177.775     3321.153        1.438        0.967       87.839       66.325        0.570      341.917       16.963      859.489
11/28/2014  09:18:00       -5.533     -128.866      -15.841       94.348       42.224       33.624     8901.473     1782.840     1130.575        1.435        0.591      128.985       33.910        0.069      341.824       16.805      859.470
11/28/2014  09:19:00      -16.270      -29.689       -8.122       41.226       47.894       23.748     1699.548     2293.875      563.968        0.288        0.228       33.855       13.103        0.150      341.892       16.920      859.468
11/28/2014  09:20:00     -120.354      -99.360      -20.486       47.223       29.947       24.576     2229.989      896.853      603.994        1.425        0.187      156.069        5.201        0.001      341.662       16.532      859.474
11/28/2014  09:21:00      -63.548      -80.738       -6.925       43.391       41.401       27.878     1882.786     1714.019      777.169        0.749        0.219      102.747       27.989        0.074      341.691       16.581      859.506
11/28/2014  09:22:00      -38.374      -27.838        6.637       41.522       55.457       25.423     1724.097     3075.521      646.333        0.387        0.272       47.408       25.405        0.287      341.887       16.914      859.499
11/28/2014  09:23:00      -90.389      -41.345        7.266       65.714       53.866       31.236     4318.299     2901.542      975.711        0.906        0.410       99.396       27.992        0.079      341.769       16.711      859.466
11/28/2014  09:24:00      -60.082      -79.398       10.912       63.381       51.317       32.772     4017.213     2633.468     1074.032        0.888        0.386       99.568       35.072        0.124      341.805       16.773      859.506
11/28/2014  09:25:00      -46.199     -104.778        3.207       69.499       56.278       51.104     4830.095     3167.169     2611.661        1.186        0.530      114.511       37.961        0.110      341.707       16.606      859.531
11/28/2014  09:26:00     -125.996      -78.869       25.923       76.356       75.922       39.558     5830.232     5764.144     1564.818        1.796        0.658      148.645       40.442        0.074      341.681       16.563      859.539
11/28/2014  09:27:00     -120.516     -142.216      -12.303       78.303       86.398       41.683     6131.318     7464.566     1737.438        2.511        0.767      186.412       15.212        0.007      341.623       16.462      859.532
11/28/2014  09:28:00      -23.066      -56.243        6.932       82.197      123.770       56.920     6756.416    15319.060     3239.927        1.452        1.266       60.789       50.281        0.684      341.675       16.553      859.460
11/28/2014  09:29:00     -130.348      -27.138        2.782       83.862       76.011       47.388     7032.812     5777.614     2245.618        1.639        0.753      133.143       38.012        0.082      341.721       16.629      859.401
11/28/2014  09:30:00      -21.607      -14.277       28.633       94.057       44.521       40.782     8846.780     1982.075     1663.152        0.699        0.625       25.898       50.634        3.823      341.853       16.854      859.433
11/28/2014  09:31:00     -117.060      -30.908        0.565       69.070       54.547       31.114     4770.664     2975.365      968.101        1.168        0.436      121.072       32.656        0.073      341.634       16.482      859.466
11/28/2014  09:32:00      -63.733      -84.658      -16.308       70.213       49.186       29.730     4929.912     2419.301      883.888        0.986        0.412      105.966       18.266        0.030      341.692       16.581      859.449
11/28/2014  09:33:00     -156.755     -137.945      -12.467       80.388       84.320       41.950     6462.213     7109.860     1759.831        2.954        0.767      208.809       41.788        0.040      341.631       16.475      859.480
11/28/2014  09:34:00      -56.932     -193.699        0.513       95.629       75.699       41.892     9144.836     5730.289     1754.919        2.869        0.832      201.892        7.807        0.001      341.678       16.556      859.419
11/28/2014  09:35:00       78.296     -114.463        2.658       79.321      105.677       53.025     6291.817    11167.698     2811.677        1.975        1.014      138.680       47.567        0.118      341.855       16.857      859.376
11/28/2014  09:36:00     -128.483      -77.652      -10.671      149.464      115.131       71.205    22339.375    13255.121     5070.146        3.165        2.033      150.126       69.992        0.217      341.742       16.664      859.378
11/28/2014  09:37:00     -391.706      -31.224       -8.176      190.296      136.251       58.780    36212.735    18564.432     3455.083       10.634        2.912      392.948       77.527        0.039      341.624       16.463      859.390
11/28/2014  09:38:00      -55.486      -88.215        9.819       95.409       56.835       38.094     9102.957     3230.250     1451.164        1.237        0.689      104.214       30.203        0.084      341.630       16.475      859.332
11/28/2014  09:39:00      -75.835     -162.167       -0.487       58.180       71.195       29.246     3384.889     5068.793      855.355        2.068        0.465      179.023       23.995        0.018      341.632       16.478      859.349
11/28/2014  09:40:00      -78.063     -123.641       -3.777       54.505       94.942       36.636     2970.780     9014.046     1342.162        1.736        0.666      146.222       36.508        0.062      341.748       16.674      859.353
11/28/2014  09:41:00      -26.137     -111.662        7.238       94.270      105.389       41.428     8886.876    11106.910     1716.300        1.745        1.086      114.680       40.954        0.128      341.918       16.962      859.373
11/28/2014  09:42:00     -152.439     -154.690      -14.535      109.211      104.258       50.084    11927.036    10869.725     2508.412        3.634        1.265      217.179       35.508        0.027      341.729       16.642      859.355
11/28/2014  09:43:00     -123.709      -89.168       -4.083       79.019       52.559       33.331     6243.934     2762.440     1110.934        1.669        0.506      152.496       38.117        0.062      341.644       16.497      859.309
11/28/2014  09:44:00       13.593      -75.820       -9.800       43.449       37.417       35.833     1887.846     1400.048     1283.997        0.530        0.229       77.029       29.181        0.144      341.894       16.924      859.304
11/28/2014  09:45:00       10.984       31.854       88.216       38.337       57.200       45.899     1469.726     3271.799     2106.727        0.788        0.342       33.695       28.382        0.710      342.310       17.629      859.287
11/28/2014  09:46:00      -42.838        2.883       21.880       39.504       55.002       36.816     1560.544     3025.238     1355.426        0.413        0.297       42.935       37.776        0.774      341.977       17.064      859.258
11/28/2014  09:47:00      -46.847      -31.458        8.791       51.473       35.061       26.216     2649.481     1229.247      687.273        0.391        0.228       56.430       22.755        0.163      341.904       16.940      859.239
11/28/2014  09:48:00     -165.339      -23.271      -19.236       45.874       40.413       23.406     2104.446     1633.232      547.831        1.627        0.214      166.969       17.314        0.011      341.813       16.785      859.197
11/28/2014  09:49:00      -85.285      -44.966        1.139       55.056       35.398       27.334     3031.199     1252.998      747.162        0.716        0.252       96.413       18.399        0.036      341.945       17.010      859.193
11/28/2014  09:50:00      -67.894       21.435       18.758       71.882       48.362       39.999     5167.070     2338.904     1599.900        0.726        0.455       71.198       37.665        0.280      342.102       17.277      859.253
11/28/2014  09:51:00       21.773      -48.626       36.510      135.380      169.344      120.013    18327.697    28677.327    14403.136        3.278        3.070       53.278       98.334        3.407      342.071       17.222      859.185
11/28/2014  09:52:00      -81.414      -55.183       -6.323       89.809       74.757       38.712     8065.698     5588.657     1498.618        1.243        0.758       98.353       37.392        0.145      341.839       16.829      859.185
11/28/2014  09:53:00     -156.499      -41.075       -8.528       95.538      102.008       67.103     9127.582    10405.548     4502.783        2.514        1.202      161.800       71.055        0.193      341.723       16.631      859.185
11/28/2014  09:54:00     -229.850     -152.971       -6.248      130.527      121.019       65.138    17037.328    14645.655     4242.937        5.609        1.796      276.100       68.234        0.061      341.739       16.658      859.217
11/28/2014  09:55:00     -222.613     -266.986       -3.622      143.140      122.829       68.830    20489.144    15087.060     4737.575        8.057        2.016      347.617       74.961        0.047      341.725       16.634      859.215
11/28/2014  09:56:00     -120.193     -201.364       -2.667      152.055      108.449       61.770    23120.695    11761.189     3815.592        4.684        1.935      234.508       58.373        0.062      341.784       16.736      859.250
11/28/2014  09:57:00       58.467      -55.432       90.012      111.795      258.139      125.394    12498.056    66635.856    15723.763        5.471        4.743       80.568      163.222        4.104      341.980       17.066      859.223
11/28/2014  09:58:00       18.096      -58.459       54.288       70.653      132.020       80.772     4991.829    17429.331     6524.098        1.781        1.447       61.196       89.986        2.162      342.141       17.343      859.132
11/28/2014  09:59:00      130.802     -272.549       -8.924      131.302      177.689       80.775    17240.227    31573.451     6524.553        7.339        2.767      302.311       90.794        0.090      341.940       16.997      859.168
11/28/2014  10:00:00       93.692      -47.524       93.345      144.142      145.600      111.238    20777.006    21199.299    12373.943        3.704        2.718      105.055      103.965        0.979      342.182       17.411      858.980
11/28/2014  10:01:00       73.757     -219.845        7.832      107.840       99.677       51.742    11629.403     9935.465     2677.277        3.903        1.212      231.888       58.236        0.063      341.910       16.948      859.041
11/28/2014  10:02:00     -137.895      -74.358       -0.645       67.565       57.302       33.573     4565.089     3283.506     1127.148        1.676        0.449      156.666       32.625        0.043      341.892       16.919      859.110
11/28/2014  10:03:00     -207.695      -86.834       -9.993       68.081       83.792       35.935     4634.969     7021.151     1291.327        3.186        0.647      225.116       10.905        0.002      341.851       16.849      859.085
11/28/2014  10:04:00      -81.305      -22.387        4.032       89.520       67.800       25.363     8013.768     4596.897      643.263        1.019        0.663       84.331       25.822        0.094      342.101       17.274      859.058
11/28/2014  10:05:00      -47.590     -128.607      -10.420       41.764       63.964       42.909     1744.193     4091.401     1841.208        1.329        0.384      137.130       34.241        0.062      342.033       17.160      859.040
11/28/2014  10:06:00       64.923       -7.749       12.623      155.382      144.927       89.815    24143.611    21003.885     8066.645        2.881        2.661       65.384      100.938        2.383      342.069       17.219      858.925
11/28/2014  10:07:00     -234.929     -144.866      -14.478      164.034      166.940       68.587    26907.307    27868.873     4704.242        6.792        2.974      276.003       68.333        0.061      341.927       16.976      859.085
11/28/2014  10:08:00      -40.240      -40.667        8.845      163.482      138.122       62.154    26726.484    19077.707     3863.147        2.650        2.483       57.211       53.269        0.867      342.082       17.242      858.940
11/28/2014  10:09:00     -286.597     -148.702       13.282      234.702      172.314       89.214    55085.056    29692.286     7959.103        9.856        4.637      322.877      100.168        0.096      341.823       16.800      858.807
11/28/2014  10:10:00     -338.262     -162.119      -19.858      258.644      188.920       89.481    66896.609    35690.832     8006.791       12.582        5.530      375.105      109.336        0.085      341.853       16.851      858.706
11/28/2014  10:11:00     -393.107     -199.330       -6.069      276.991      170.302       91.878    76724.112    29002.622     8441.544       15.421        5.708      440.756      110.564        0.063      341.826       16.803      858.686
11/28/2014  10:12:00     -429.671     -334.801      -32.463      248.978      186.876       98.288    61989.936    34922.480     9660.517       20.215        5.329      544.710      107.264        0.039      341.827       16.805      858.678
11/28/2014  10:13:00     -212.536     -227.202        9.882      165.107      130.367       98.754    27260.209    16995.645     9752.257        7.544        2.700      311.114       88.024        0.080      341.872       16.883      858.720
11/28/2014  10:14:00     -271.738     -123.312       -6.391      111.570      113.269       70.875    12447.799    12829.928     5023.306        5.969        1.515      298.408       64.594        0.047      341.920       16.963      858.699
11/28/2014  10:15:00     -213.000     -123.818        6.907      144.417      107.754       63.933    20856.169    11610.999     4087.398        4.864        1.828      246.374       71.223        0.084      341.948       17.011      858.782
11/28/2014  10:16:00      -48.925     -128.621        0.343       53.384       80.978       38.341     2849.823     6557.443     1470.053        1.491        0.544      137.612       47.213        0.118      342.103       17.277      858.795
11/28/2014  10:17:00     -132.714     -166.279      -22.140      116.988       97.000       48.972    13686.302     9409.090     2398.223        3.562        1.275      212.748       52.478        0.061      342.032       17.153      858.887
11/28/2014  10:18:00      -34.739      -80.881        3.018      103.354      115.557       68.927    10682.017    13353.500     4750.968        1.827        1.439       88.026       75.780        0.741      342.129       17.321      858.720
11/28/2014  10:19:00     -176.574     -189.235       37.141      197.379      192.626      105.712    38958.353    37104.915    11175.060        7.779        4.362      258.821      110.612        0.183      341.977       17.062      858.747
11/28/2014  10:20:00     -641.824     -350.512      -37.661      309.958      241.739      122.691    96073.723    58437.785    15053.088       35.286        8.478      731.298      118.248        0.026      341.826       16.805      858.688
11/28/2014  10:21:00     -472.263     -334.496      -25.774      323.945      247.625      148.874   104940.224    61318.276    22163.530       26.197        9.421      578.723      174.737        0.091      341.849       16.843      858.621
11/28/2014  10:22:00     -621.003     -267.938      -28.967      386.367      236.938      128.783   149279.630    56139.725    16585.149       34.010       11.100      676.340      158.262        0.055      341.813       16.783      858.579
11/28/2014  10:23:00     -479.050     -318.809      -12.267      249.372      241.575      127.289    62186.526    58358.513    16202.538       23.399        6.837      575.437      144.042        0.063      341.824       16.799      858.610
11/28/2014  10:24:00     -586.364     -191.146      -28.664      344.863      311.878      153.749   118930.611    97267.819    23638.628       31.046       11.992      616.733      165.704        0.072      341.833       16.816      858.610
11/28/2014  10:25:00     -571.325     -314.646      -43.006      379.140      233.737      116.043   143746.997    54633.131    13465.896       31.951       10.592      652.238      130.316        0.040      341.847       16.842      858.629
11/28/2014  10:26:00     -550.998     -264.851      -16.538      338.858      282.838      136.884   114824.697    79997.194    18737.290       29.375       10.678      611.347      145.492        0.057      341.848       16.842      858.566
11/28/2014  10:27:00     -766.608     -333.729      -30.381      516.038      293.108      140.429   266295.632    85912.529    19720.444       53.588       18.596      836.100      165.001        0.039      341.799       16.759      858.438
11/28/2014  10:28:00     -509.021     -415.739      -12.110      303.146      269.236      142.711    91897.509    72488.205    20366.466       30.838        9.238      657.222      175.630        0.071      341.822       16.797      858.576
11/28/2014  10:29:00     -369.721     -185.973        7.996      283.902      204.349      121.875    80600.498    41758.350    14853.481       15.425        6.861      413.860      130.806        0.100      341.833       16.818      858.571
11/28/2014  10:30:00     -426.468     -561.287      -34.846      262.611      310.281      149.694    68964.343    96274.365    22408.176       34.285        9.382      704.924      145.885        0.043      341.771       16.711      858.573
11/28/2014  10:31:00     -318.298     -211.964        4.688      234.861      235.214      114.378    55159.720    55325.565    13082.221       13.489        6.178      382.416      115.015        0.090      341.830       16.811      858.488
11/28/2014  10:32:00     -475.259     -273.869       -0.962      355.709      355.718      119.297   126528.592   126534.960    14231.756       28.403       13.365      548.521      154.546        0.079      341.889       16.913      858.509
11/28/2014  10:33:00     -504.825     -212.268       15.952      459.290      367.067      146.127   210947.454   134738.416    21353.081       33.353       18.352      547.637      193.488        0.125      341.875       16.888      858.426
11/28/2014  10:34:00     -394.524     -242.218        1.353      340.490      215.984      140.924   115933.174    46648.945    19859.561       19.834        9.122      462.946      170.664        0.136      341.820       16.795      858.404
11/28/2014  10:35:00     -322.696     -257.344       21.579      288.847      262.341      122.642    83432.690    68822.935    15041.112       16.903        8.365      412.745      140.395        0.116      341.864       16.869      858.346
11/28/2014  10:36:00     -560.538     -532.305      -21.300      270.832      358.733      133.918    73350.074   128689.603    17934.042       40.895       10.999      773.015      122.724        0.025      341.801       16.760      858.385
11/28/2014  10:37:00     -507.202     -162.697      -12.291      321.148      218.567      122.769   103135.996    47771.695    15072.278       22.489        8.299      532.657      135.559        0.065      341.841       16.830      858.300
11/28/2014  10:38:00     -454.610     -143.732       -4.462      294.924      182.390       94.447    86979.971    33266.290     8920.316       17.823        6.458      476.790      120.169        0.064      341.884       16.903      858.297
11/28/2014  10:39:00     -714.528     -382.170      -35.041      360.877      271.346      146.408   130232.469    73628.746    21435.378       44.152       11.265      810.312      171.303        0.045      341.784       16.733      858.284
11/28/2014  10:40:00     -623.383     -355.261      -24.126      389.768      315.118      165.715   151918.754    99299.286    27461.485       39.698       13.934      717.507      179.483        0.063      341.813       16.783      858.236
11/28/2014  10:41:00     -771.274     -302.468      -22.847      351.757      305.282      165.548   123732.638    93196.972    27406.287       46.556       12.217      828.463      174.956        0.045      341.800       16.762      858.227
11/28/2014  10:42:00     -836.481     -358.816      -15.828      386.706      344.133      162.467   149541.267   118427.291    26395.455       56.147       14.718      910.192      197.163        0.047      341.769       16.708      858.193
11/28/2014  10:43:00     -795.778     -426.224       -9.823      527.342      364.953      171.610   278089.813   133190.533    29449.891       62.779       22.037      902.734      227.367        0.063      341.793       16.749      858.158
11/28/2014  10:44:00     -677.841     -511.586      -21.686      334.366      312.490      178.177   111800.653    97650.268    31747.183       48.138       12.060      849.228      205.285        0.058      341.731       16.645      858.118
11/28/2014  10:45:00     -710.748     -423.464      -35.690      433.990      371.125      172.967   188347.437   137733.476    29917.495       52.081       17.800      827.336      211.581        0.065      341.787       16.738      858.124
11/28/2014  10:46:00     -892.748     -541.920      -17.169      437.862      423.790      179.519   191722.886   179597.805    32226.927       74.718       20.177     1044.355      228.596        0.048      341.733       16.648      858.078
11/28/2014  10:47:00     -520.062     -355.977      -15.916      258.237      291.871      143.459    66686.303    85188.391    20580.435       28.491        8.623      630.226      168.503        0.071      341.807       16.771      858.131
11/28/2014  10:48:00     -517.704     -406.662        8.880      426.523      293.645      155.869   181921.930    86227.556    24295.067       36.290       14.622      658.325      196.805        0.089      341.836       16.822      858.144
11/28/2014  10:49:00     -723.741     -301.972      -21.427      405.894      288.961      156.986   164749.825    83498.283    24644.523       44.412       13.645      784.212      188.446        0.058      341.808       16.774      858.079
11/28/2014  10:50:00     -646.383     -288.970      -17.169      364.621      310.504      145.796   132948.586    96412.816    21256.395       37.606       12.531      708.036      168.380        0.057      341.795       16.751      858.060
11/28/2014  10:51:00     -656.804     -249.105      -30.702      366.096      264.126      118.086   134026.020    69762.302    13944.217       35.602       10.887      702.456      128.937        0.034      341.880       16.896      858.059
11/28/2014  10:52:00     -715.008     -190.617      -53.101      445.449      297.248      144.630   198425.246    88356.193    20917.748       42.898       15.385      739.981      178.562        0.058      341.870       16.879      858.020
11/28/2014  10:53:00     -625.183     -509.529      -43.239      383.020      250.864      134.029   146704.546    62932.983    17963.848       43.993       11.380      806.520      154.271        0.037      341.810       16.778      858.028
11/28/2014  10:54:00     -742.569     -503.089      -28.319      329.334      303.087      151.582   108461.084    91861.669    22977.053       51.426       11.165      896.943      160.513        0.032      341.775       16.718      858.011
11/28/2014  10:55:00     -428.901     -254.846      -15.047      275.102      231.370      124.769    75681.017    53532.240    15567.306       19.693        7.239      498.901      148.997        0.089      341.904       16.936      857.993
11/28/2014  10:56:00     -574.094     -314.732      -13.106      342.133      250.160      113.191   117055.129    62579.869    12812.114       31.059        9.622      654.707      122.416        0.035      341.871       16.880      857.950
11/28/2014  10:57:00     -682.201     -411.279      -24.864      355.571      278.558      151.684   126430.611    77594.746    23007.931       43.106       11.352      796.585      177.962        0.050      341.839       16.827      857.951
11/28/2014  10:58:00     -562.868     -346.712      -32.218      302.951      279.424      128.729    91779.150    78077.603    16571.088       31.221        9.321      661.082      124.204        0.035      341.813       16.782      857.926
11/28/2014  10:59:00     -603.784     -361.263      -23.929      317.902      273.646      131.465   101061.466    74882.370    17282.993       34.439        9.661      703.609      150.341        0.046      341.867       16.874      857.914
11/28/2014  11:00:00     -338.060     -245.679        0.914      233.726      186.956      101.228    54627.771    34952.559    10247.059       13.722        4.991      417.903      113.287        0.073      341.912       16.950      857.902
11/28/2014  11:01:00     -322.894     -248.056       10.077      239.065      227.785      110.428    57152.042    51885.994    12194.309       14.354        6.062      407.176      114.136        0.079      341.940       16.998      857.899
11/28/2014  11:02:00     -529.611     -294.492       10.128      359.613      271.926      161.520   129321.317    73943.691    26088.763       29.829       11.468      605.982      190.513        0.099      341.922       16.967      857.953
11/28/2014  11:03:00     -846.219     -359.808      -56.116      383.074      362.428      165.202   146745.993   131354.325    27291.719       57.698       15.270      919.537      181.709        0.039      341.790       16.743      857.865
11/28/2014  11:04:00     -583.058     -177.487        4.552      327.116      252.115      115.404   107004.554    63562.050    13318.055       27.764        9.194      609.473      146.340        0.058      341.927       16.976      857.788
11/28/2014  11:05:00     -613.811     -212.332        0.238      339.385      289.593      159.736   115182.484    83863.989    25515.593       32.316       11.228      649.499      173.758        0.072      341.928       16.978      857.852
11/28/2014  11:06:00     -414.537     -146.090       21.568      302.804      264.976      136.440    91690.532    70212.058    18615.908       18.705        9.026      439.526      162.814        0.137      342.029       17.151      857.798
11/28/2014  11:07:00     -465.313     -227.245      -25.573      263.810      216.463      113.340    69595.881    46856.447    12845.881       19.903        6.465      517.838      130.108        0.063      341.914       16.954      857.801
11/28/2014  11:08:00     -328.805     -170.347       -7.824      324.489      246.093      118.658   105293.061    60561.573    14079.637       15.853        8.997      370.312      134.653        0.132      341.962       17.036      857.715
11/28/2014  11:09:00     -574.220     -319.158      -39.355      267.521      191.277       88.601    71567.491    36586.941     7850.066       27.455        5.800      656.955       96.560        0.022      341.958       17.029      857.738
11/28/2014  11:10:00     -573.874      -24.593      -10.355      298.939      245.506      129.356    89364.265    60272.953    16732.878       24.817        8.319      574.401      143.527        0.062      341.939       16.997      857.654
11/28/2014  11:11:00     -603.985     -288.377      -17.486      373.973      301.416      135.099   139855.954    90851.311    18251.789       34.856       12.448      669.298      154.808        0.053      341.914       16.954      857.772
11/28/2014  11:12:00     -875.224     -425.303      -25.645      383.544      332.012      166.852   147105.682   110232.209    27839.531       61.631       14.259      973.088      192.121        0.039      341.832       16.815      857.642
11/28/2014  11:13:00     -546.036     -415.397      -33.595      381.651      310.643      156.864   145657.150    96498.815    24606.263       36.925       13.338      686.083      187.629        0.075      341.893       16.919      857.741
11/28/2014  11:14:00     -548.196     -279.906       20.694      400.256      305.011      141.821   160204.829    93031.754    20113.068       32.627       13.667      615.521      165.985        0.073      341.893       16.916      857.652
11/28/2014  11:15:00     -598.078     -189.048        2.345      332.670      269.967      144.331   110669.224    72881.952    20831.489       29.887       10.219      627.245      150.066        0.057      341.908       16.944      857.580
11/28/2014  11:16:00     -278.926     -238.552       12.769      217.144      262.098      123.499    47151.535    68695.584    15251.994       13.296        6.555      367.024      123.843        0.114      342.027       17.146      857.680
11/28/2014  11:17:00     -527.549     -289.127      -22.441      279.510      222.358      122.638    78125.990    49443.219    15039.981       25.248        7.130      601.583      127.954        0.045      342.013       17.124      857.683
11/28/2014  11:18:00     -677.428     -443.199      -18.658      312.435      260.324      135.240    97615.542    67768.821    18289.855       41.964        9.184      809.527      145.479        0.032      341.912       16.950      857.601
11/28/2014  11:19:00     -623.726     -346.387      -13.160      332.482      280.514      138.239   110544.525    78688.351    19110.104       35.873       10.417      713.455      159.063        0.050      341.981       17.067      857.599
11/28/2014  11:20:00     -734.097     -513.903      -24.600      399.719      305.267      163.640   159775.486    93188.039    26778.047       54.162       13.987      896.100      190.064        0.045      341.882       16.900      857.556
11/28/2014  11:21:00     -755.677     -452.790      -13.133      352.084      314.851      156.271   123963.106    99131.378    24420.581       51.183       12.376      880.946      180.519        0.042      341.946       17.008      857.571
11/28/2014  11:22:00     -655.470     -502.757      -14.528      364.790      372.780      165.096   133071.715   138965.181    27256.817       49.089       14.965      826.078      185.530        0.050      341.905       16.939      857.565
11/28/2014  11:23:00     -909.867     -608.848      -40.712      468.473      293.906      172.406   219467.416    86380.609    29723.667       76.782       16.779     1094.785      191.769        0.031      341.902       16.933      857.475
11/28/2014  11:24:00     -649.928     -392.726      -49.176      423.652      273.870      150.979   179481.411    75004.622    22794.666       42.811       13.864      759.368      182.420        0.058      341.939       16.996      857.463
11/28/2014  11:25:00     -755.445     -370.965      -23.626      466.904      312.710      171.161   217999.243    97787.250    29296.011       52.691       17.254      841.613      216.397        0.066      341.889       16.912      857.362
11/28/2014  11:26:00     -727.108     -555.107      -34.117      374.788      341.369      173.992   140466.328   116532.629    30273.098       56.258       14.364      914.784      190.347        0.043      341.883       16.902      857.399
11/28/2014  11:27:00     -885.228     -404.594      -31.431      398.490      287.593      153.830   158794.252    82709.697    23663.721       60.669       13.258      973.306      160.982        0.027      341.869       16.877      857.406
11/28/2014  11:28:00     -613.419     -186.978        3.381      410.150      297.877      144.476   168222.877    88730.442    20873.308       34.448       13.891      641.283      191.058        0.089      341.969       17.047      857.420
11/28/2014  11:29:00     -378.513     -241.109       -1.304      227.088      235.398      113.938    51568.858    55412.307    12981.785       16.066        5.998      448.783      131.955        0.086      342.072       17.224      857.417
11/28/2014  11:30:00     -436.160     -172.699        0.108      268.503      201.462       89.597    72093.679    40587.009     8027.600       17.036        6.035      469.106      109.710        0.055      342.116       17.298      857.350
11/28/2014  11:31:00     -351.016     -325.835        1.559      271.536      222.428      132.848    73731.966    49474.190    17648.536       18.509        7.043      478.937      154.099        0.104      342.161       17.374      857.418
11/28/2014  11:32:00     -564.201     -274.570      -31.323      276.879      230.249      133.759    76661.885    53014.483    17891.356       27.110        7.378      627.465      116.436        0.034      342.094       17.260      857.382
11/28/2014  11:33:00     -479.835     -298.372      -24.691      296.389      329.687      126.506    87846.563   108693.281    16003.720       26.617       10.627      565.037      156.856        0.077      342.061       17.204      857.225
11/28/2014  11:34:00     -537.087     -339.032      -19.364      293.559      207.092      108.407    86176.995    42887.237    11752.151       27.227        7.041      635.142      131.657        0.043      342.159       17.370      857.314
11/28/2014  11:35:00     -269.679     -254.972        1.235      297.142      238.887       98.580    88293.575    57067.162     9717.946       14.638        7.754      371.131      112.888        0.093      342.279       17.576      857.432
11/28/2014  11:36:00     -781.059     -462.093       -9.534      343.357      369.303      158.728   117893.952   136384.684    25194.579       55.152       13.974      907.515      177.050        0.038      342.020       17.133      857.219
11/28/2014  11:37:00     -673.093     -517.218      -42.072      314.308      293.121      145.426    98789.425    85919.912    21148.597       46.406       10.293      848.863      159.824        0.035      341.987       17.079      857.038
11/28/2014  11:38:00     -657.226     -537.283      -31.605      333.557      330.042      157.157   111260.268   108927.420    24698.175       48.320       12.244      848.893      157.871        0.035      342.024       17.142      857.138
11/28/2014  11:39:00     -615.897     -221.856      -27.482      390.703      339.403      146.212   152648.609   115194.600    21377.917       35.920       14.461      654.637      166.555        0.065      342.122       17.307      857.181
11/28/2014  11:40:00     -470.379     -290.659       29.876      365.167      301.671      169.465   133346.716    91005.205    28718.422       27.980       12.654      552.937      188.244        0.116      342.091       17.255      857.162
11/28/2014  11:41:00     -864.063     -432.527      -47.279      404.517      325.264      142.146   163634.044   105796.943    20205.349       61.272       14.482      966.273      159.545        0.027      341.974       17.056      857.112
11/28/2014  11:42:00     -805.825     -359.616      -25.099      412.695      385.281      186.761   170317.128   148441.170    34879.845       56.640       17.682      882.427      215.325        0.060      341.967       17.044      856.933
11/28/2014  11:43:00     -543.542     -347.539      -34.537      352.679      286.162      155.671   124382.463    81888.968    24233.410       32.391       11.525      645.152      183.559        0.081      342.115       17.296      856.973
11/28/2014  11:44:00     -612.380     -357.578       -8.752      399.032      387.567      151.776   159226.208   150208.497    23035.880       41.764       16.624      709.135      168.404        0.056      342.041       17.169      856.994
11/28/2014  11:45:00     -525.783     -305.419       -6.333      304.276      297.635      138.794    92583.913    88586.451    19263.841       28.506       10.022      608.054      162.307        0.071      342.057       17.197      856.962
11/28/2014  11:46:00     -783.135     -454.655      -31.925      402.320      319.508      150.595   161861.031   102085.514    22678.921       55.377       14.331      905.545      179.870        0.039      342.005       17.110      856.932
11/28/2014  11:47:00     -706.007     -233.252      -19.928      372.582      350.368      147.048   138817.502   122757.609    21623.169       41.817       14.160      743.540      169.875        0.052      342.057       17.197      856.879
11/28/2014  11:48:00     -839.546     -303.770      -59.993      399.946      259.252      146.194   159956.847    67211.687    21372.805       52.458       12.427      892.813      179.231        0.040      342.057       17.198      856.886
11/28/2014  11:49:00     -769.747     -413.961      -36.425      389.762      292.420      161.164   151914.577    85509.395    25973.763       51.425       13.170      874.000      199.247        0.052      341.973       17.055      856.872
11/28/2014  11:50:00     -730.709     -472.440      -46.048      439.568      385.599      159.744   193220.283   148686.302    25518.004       56.326       18.371      870.135      167.076        0.037      341.952       17.018      856.749
11/28/2014  11:51:00     -491.261     -170.457       -2.627      278.849      231.035      130.636    77756.562    53377.335    17065.758       20.927        7.410      519.993      131.995        0.064      342.083       17.241      856.773
11/28/2014  11:52:00     -578.999     -398.820      -22.288      348.726      254.636      145.681   121609.801    64839.718    21222.922       35.119       10.384      703.063      177.450        0.064      342.033       17.156      856.781
11/28/2014  11:53:00     -566.553     -358.765      -13.543      393.914      281.435      151.345   155167.897    79205.487    22905.380       35.353       12.864      670.592      189.827        0.080      342.029       17.149      856.685
11/28/2014  11:54:00     -634.432     -265.521      -24.249      379.751      261.951      141.573   144210.531    68618.101    20043.028       35.319       11.644      687.753      172.839        0.063      342.064       17.208      856.779
11/28/2014  11:55:00     -639.181     -417.273      -29.838      331.948      343.398      176.029   110189.342   117922.515    30986.277       42.128       12.955      763.328      191.979        0.063      341.991       17.085      856.739
11/28/2014  11:56:00     -488.173     -374.491      -12.264      360.920      293.747      140.016   130263.477    86287.349    19604.555       30.738       11.808      615.269      158.453        0.066      342.067       17.214      856.664
11/28/2014  11:57:00     -566.009     -322.944        5.920      380.966      269.055      148.467   145135.042    72390.708    22042.497       33.208       11.978      651.659      181.115        0.077      342.067       17.215      856.724
11/28/2014  11:58:00     -774.025     -450.776      -59.093      383.235      355.897      153.778   146869.016   126662.676    23647.748       55.143       14.859      895.719      184.126        0.042      341.932       16.986      856.628
11/28/2014  11:59:00     -600.886     -391.174      -30.909      303.717      277.017      136.839    92243.938    76738.426    18724.970       35.133        9.385      716.994      145.236        0.041      342.071       17.221      856.661
11/28/2014  12:00:00     -876.206     -596.879      -27.565      400.673      368.946      181.231   160538.891   136121.153    32844.725       72.707       16.475     1060.189      213.424        0.041      341.895       16.921      856.570
11/28/2014  12:01:00     -696.783     -513.078      -61.324      310.737      266.157      142.476    96557.470    70839.466    20299.482       47.007        9.385      865.307      158.226        0.033      341.987       17.079      856.603
11/28/2014  12:02:00     -512.507     -209.871        9.335      355.599      329.040      155.416   126450.956   108267.143    24154.099       28.278       12.944      553.814      176.138        0.101      342.068       17.217      856.540
11/28/2014  12:03:00     -743.490     -338.698      -17.778      463.854      346.736      180.519   215160.127   120225.617    32587.265       51.782       18.399      817.003      219.336        0.072      341.908       16.942      856.471
11/28/2014  12:04:00     -881.534     -608.531      -28.289      411.815      359.008      171.650   169591.817   128886.770    29463.636       73.801       16.397     1071.174      199.096        0.035      341.805       16.769      856.458
11/28/2014  12:05:00     -624.850     -463.203       -7.204      350.555      277.450      148.905   122888.783    76978.251    22172.649       41.350       11.102      777.814      186.913        0.058      341.929       16.979      856.470
11/28/2014  12:06:00     -645.931     -394.359      -18.308      381.740      286.164      133.395   145725.792    81889.783    17794.336       40.920       12.270      756.800      165.365        0.048      342.072       17.222      856.552
11/28/2014  12:07:00     -614.746     -292.488       -0.076      366.776      289.489      144.711   134524.849    83804.102    20941.253       35.132       11.964      680.780      169.221        0.062      341.983       17.071      856.487
11/28/2014  12:08:00     -691.183     -555.672      -17.795      434.536      330.673      202.181   188821.545   109344.935    40877.212       56.286       16.952      886.851      228.730        0.067      341.875       16.888      856.408
11/28/2014  12:09:00     -640.738     -134.562      -15.601      352.817      259.711      150.972   124479.562    67449.665    22792.554       32.177       10.736      654.715      173.974        0.071      341.966       17.043      856.490
11/28/2014  12:10:00     -457.735     -332.980       12.120      360.745      290.490      158.601   130136.671    84384.325    25154.210       28.006       11.984      566.036      182.066        0.103      341.964       17.037      856.407
11/28/2014  12:11:00     -814.141     -418.022      -25.709      412.309      291.577      160.916   169999.094    85016.988    25893.937       55.951       14.046      915.188      167.199        0.033      341.855       16.853      856.378
11/28/2014  12:12:00     -460.891     -306.743      -10.104      277.650      226.348      135.594    77089.630    51233.484    18385.747       22.663        7.335      553.635      153.173        0.077      341.938       16.994      856.444
11/28/2014  12:13:00     -532.131     -280.359       20.332      401.461      279.041      155.583   161171.213    77863.681    24205.980       31.266       13.162      601.469      194.234        0.104      341.937       16.992      856.409
11/28/2014  12:14:00     -628.048     -352.675        1.668      402.684      327.783      169.044   162154.113   107441.779    28575.741       40.844       14.909      720.295      208.205        0.084      341.962       17.035      856.398
11/28/2014  12:15:00     -887.951     -203.653      -17.987      394.608      324.423      153.334   155715.127   105250.420    23511.455       55.731       14.224      911.005      190.088        0.044      341.840       16.829      856.401
11/28/2014  12:16:00     -803.628     -278.197       -9.616      367.998      425.538      144.932   135422.432   181082.986    21005.327       53.034       16.876      850.419      170.434        0.040      341.823       16.799      856.324
11/28/2014  12:17:00     -602.845     -298.773        7.956      311.590      331.424      161.729    97088.328   109841.629    26156.247       34.287       11.654      672.820      171.239        0.065      341.982       17.069      856.388
11/28/2014  12:18:00     -518.563     -126.245        5.468      377.047      322.024      122.111   142164.566   103699.651    14911.213       27.277       13.039      533.709      142.137        0.071      342.058       17.198      856.439
11/28/2014  12:19:00     -730.280     -377.519      -29.392      375.201      349.479      158.873   140775.478   122135.515    25240.529       48.237       14.408      822.089      173.921        0.045      341.952       17.019      856.400
11/28/2014  12:20:00     -878.627     -452.409      -23.371      390.080      379.692      164.851   152162.025   144166.348    27175.786       65.029       16.175      988.261      180.217        0.033      341.890       16.914      856.255
11/28/2014  12:21:00    -1026.434     -412.324      -36.200      455.619      408.594      163.246   207588.486   166949.379    26649.198       81.296       20.059     1106.154      204.626        0.034      341.809       16.776      856.292
11/28/2014  12:22:00     -802.300     -490.555      -39.729      377.910      272.954      152.396   142815.880    74503.995    23224.484       56.318       12.027      940.388      181.324        0.037      341.870       16.879      856.324
11/28/2014  12:23:00     -550.705     -204.186        1.877      402.648      346.884      177.812   162125.594   120328.370    31617.213       32.946       15.704      587.339      207.344        0.125      341.936       16.991      856.343
11/28/2014  12:24:00     -987.186     -385.125      -58.551      508.905      478.410      216.948   258984.145   228876.417    47066.314       83.050       26.746     1059.650      265.140        0.063      341.803       16.766      856.251
11/28/2014  12:25:00     -658.579     -386.299      -12.840      382.833      328.036      178.864   146561.272   107607.707    31992.277       43.458       14.308      763.514      179.981        0.056      341.859       16.860      856.325
11/28/2014  12:26:00     -705.157     -413.446        2.618      439.536      325.168      184.144   193191.501   105734.194    33909.034       50.045       16.642      817.425      214.244        0.069      341.874       16.887      856.322
11/28/2014  12:27:00     -851.247     -448.769      -20.327      412.958      255.853      143.556   170534.126    65460.710    20608.445       59.146       12.830      962.297      152.287        0.025      341.762       16.697      856.291
11/28/2014  12:28:00     -492.104     -279.104        6.331      308.316      254.533      139.810    95058.536    64787.004    19546.919       24.971        8.970      565.743      150.976        0.071      341.897       16.925      856.359
11/28/2014  12:29:00     -716.375     -318.952       -6.235      498.596      358.812      164.185   248597.772   128745.927    26956.772       50.955       20.215      784.171      217.678        0.077      341.948       17.011      856.277
11/28/2014  12:30:00     -957.333     -614.226      -23.229      470.917      379.042      185.413   221763.028   143673.039    34377.998       84.698       19.991     1137.435      240.046        0.045      341.850       16.846      856.236
11/28/2014  12:31:00     -644.461     -381.552      -19.286      368.994      356.482      167.220   136156.505   127079.080    27962.555       42.618       14.560      748.941      190.804        0.065      341.926       16.974      856.282
11/28/2014  12:32:00     -799.391     -373.466      -37.138      466.246      353.526      165.758   217384.953   124980.817    27475.630       57.479       18.492      882.328      200.250        0.052      341.826       16.806      856.288
11/28/2014  12:33:00     -681.975     -275.156      -25.073      439.384      342.807      161.614   193058.261   117516.342    26119.153       43.899       16.835      735.392      207.966        0.080      341.872       16.883      856.269
11/28/2014  12:34:00     -520.710     -174.150        3.211      367.048      246.160      140.510   134723.999    60594.766    19743.200       25.823       10.753      549.060      170.236        0.096      341.945       17.007      856.349
11/28/2014  12:35:00     -675.567     -297.895      -20.023      351.284      240.908      124.312   123400.634    58036.784    15453.563       37.117        9.845      738.330      136.889        0.034      341.850       16.846      856.277
11/28/2014  12:36:00     -440.958     -151.840      -20.711      295.929      172.460      123.421    87573.752    29742.606    15232.854       17.521        6.627      466.368      146.030        0.098      341.970       17.048      856.302
11/28/2014  12:37:00     -954.845     -609.575      -53.945      356.847      299.190      159.415   127339.919    89514.926    25413.175       76.419       12.113     1132.833      186.353        0.027      341.880       16.896      856.272
11/28/2014  12:38:00     -762.562     -387.058      -25.793      376.572      322.971      146.563   141806.257   104310.211    21480.696       49.973       13.380      855.169      164.894        0.037      341.855       16.853      856.303
11/28/2014  12:39:00     -441.802     -301.386      -17.385      298.959      281.308      149.841    89376.726    79133.962    22452.444       23.861        9.548      534.811      178.210        0.111      341.932       16.984      856.323
11/28/2014  12:40:00     -486.413     -278.411      -27.452      385.623      224.603      141.320   148705.336    50446.461    19971.446       26.695       10.956      560.455      171.403        0.094      341.896       16.924      856.317
11/28/2014  12:41:00     -504.066     -333.007        8.981      369.224      266.482      147.329   136326.520    71012.545    21705.777       29.700       11.452      604.133      177.514        0.086      341.892       16.918      856.296
11/28/2014  12:42:00     -579.896     -234.403        0.214      317.342      292.460      130.932   100705.777    85533.137    17143.290       29.726       10.169      625.479      143.468        0.053      341.834       16.818      856.243
11/28/2014  12:43:00     -566.655     -242.626       11.540      385.603      385.143      173.324   148689.610   148334.814    30041.188       35.352       16.353      616.413      215.569        0.122      341.926       16.974      856.182
11/28/2014  12:44:00     -766.899     -446.243      -11.943      339.457      310.846      158.217   115231.348    96625.369    25032.749       51.210       11.844      887.281      180.174        0.041      341.843       16.833      856.215
11/28/2014  12:45:00     -402.731     -254.858       17.181      329.686      280.985      139.173   108692.823    78952.323    19369.228       21.719       10.351      476.598      154.595        0.105      341.910       16.947      856.291
11/28/2014  12:46:00     -734.778     -271.293      -19.802      328.859      332.103      157.185   108148.382   110292.683    24707.250       42.847       12.157      783.261      171.788        0.048      341.815       16.786      856.273
11/28/2014  12:47:00     -728.548     -348.820      -51.661      313.373      257.532      134.015    98202.398    66322.595    17959.988       41.877        9.124      807.749      153.945        0.036      341.805       16.768      856.258
11/28/2014  12:48:00     -638.358     -387.638      -13.511      333.223      248.113      144.495   111037.578    61560.142    20878.949       37.567        9.674      746.836      159.829        0.046      341.773       16.715      856.341
11/28/2014  12:49:00     -567.271     -259.332      -27.940      436.859      288.866      169.679   190845.706    83443.502    28791.073       34.639       15.154      623.738      205.330        0.108      341.761       16.694      856.372
11/28/2014  12:50:00     -567.346     -299.930      -14.480      291.892      228.888      127.820    85201.130    52389.782    16338.025       28.296        7.696      641.747      144.614        0.051      341.807       16.773      856.329
11/28/2014  12:51:00     -588.177     -259.849       -6.650      351.169      312.570      141.006   123320.006    97699.968    19882.737       32.716       12.045      643.019      142.380        0.049      341.798       16.757      856.297
11/28/2014  12:52:00     -491.197     -310.667      -28.264      324.198      238.175      135.114   105104.276    56727.187    18255.670       25.930        9.004      581.196      157.129        0.073      341.792       16.748      856.323
11/28/2014  12:53:00     -638.043     -250.305      -35.804      349.680      225.220      118.671   122276.323    50724.223    14082.744       32.902        9.354      685.385      143.178        0.044      341.766       16.703      856.334
11/28/2014  12:54:00     -558.781     -306.312       -5.063      302.558      245.839      122.067    91541.314    60437.019    14900.251       28.645        8.344      637.231      135.508        0.045      341.827       16.806      856.354
11/28/2014  12:55:00     -435.473      -83.882      -13.878      244.267      225.292      105.151    59666.177    50756.497    11056.733       15.915        6.074      443.478      113.083        0.065      341.893       16.918      856.351
11/28/2014  12:56:00     -735.773     -340.984      -50.203      401.751      300.182      126.192   161403.692    90109.497    15924.450       46.374       13.372      810.945      144.745        0.032      341.795       16.752      856.317
11/28/2014  12:57:00     -604.985     -379.728      -18.320      334.215      261.073      161.021   111699.404    68158.880    25927.837       35.812       10.289      714.283      173.714        0.059      341.739       16.657      856.262
11/28/2014  12:58:00     -833.892     -460.316      -13.766      424.855      306.077      157.874   180502.091    93683.376    24924.347       60.322       14.955      952.506      181.836        0.036      341.653       16.513      856.258
11/28/2014  12:59:00     -573.247     -239.018       -2.041      391.504      368.544      133.350   153275.609   135824.318    17782.225       34.625       15.344      621.081      178.963        0.083      341.708       16.604      856.295
11/28/2014  13:00:00     -571.150     -240.925       -9.954      245.178      189.494      113.259    60112.314    35907.799    12827.576       24.658        5.442      619.884      111.919        0.033      341.763       16.698      856.305
11/28/2014  13:01:00     -452.396     -237.829      -12.294      286.202      206.951      112.737    81911.863    42828.685    12709.636       19.939        6.873      511.101      139.342        0.074      341.870       16.880      856.311
11/28/2014  13:02:00     -404.304     -251.969        0.297      282.388      243.325      108.481    79743.047    59206.881    11768.057       18.880        7.536      476.393      120.625        0.064      341.947       17.010      856.324
11/28/2014  13:03:00     -668.107     -355.590      -34.062      377.443      307.955      171.145   142463.551    94836.235    29290.627       42.023       13.330      756.843      188.745        0.062      341.759       16.691      856.183
11/28/2014  13:04:00     -748.387     -285.969      -19.901      392.251      329.358      152.372   153861.039   108476.931    23217.254       46.385       14.278      801.162      168.972        0.044      341.628       16.469      856.219
11/28/2014  13:05:00     -473.639     -328.674      -32.920      280.173      242.015      126.265    78496.657    58571.387    15942.815       24.320        7.651      576.508      120.190        0.043      341.679       16.555      856.285
11/28/2014  13:06:00     -406.431     -233.977       -0.786      269.912      239.512      126.228    72852.741    57366.013    15933.397       18.301        7.308      468.969      143.646        0.094      341.813       16.781      856.299
11/28/2014  13:07:00     -697.918     -345.950      -39.456      358.003      281.178      133.257   128165.950    79061.030    17757.453       41.661       11.249      778.955      140.249        0.032      341.798       16.759      856.225
11/28/2014  13:08:00     -605.051     -367.171      -22.879      248.533      261.532      146.933    61768.704    68398.894    21589.265       32.656        7.588      707.743      147.804        0.044      341.820       16.795      856.270
11/28/2014  13:09:00     -380.638     -202.374       -8.404      230.911      216.551      110.767    53320.030    46894.327    12269.392       14.917        5.624      431.093      133.644        0.096      341.932       16.985      856.312
11/28/2014  13:10:00     -568.480     -316.868        1.779      350.225      248.297      167.848   122657.529    61651.454    28172.881       31.799       10.624      650.826      176.928        0.074      341.795       16.752      856.240
11/28/2014  13:11:00     -422.136     -151.162       -7.656      276.897      194.354      113.862    76672.032    37773.583    12964.652       16.423        6.371      448.385      117.176        0.068      341.817       16.790      856.261
11/28/2014  13:12:00     -445.735     -298.300        1.339      301.570      245.637      129.114    90944.734    60337.637    16670.532       22.777        8.398      536.342      147.667        0.076      341.804       16.767      856.278
11/28/2014  13:13:00     -612.940     -229.283      -11.863      339.080      283.803      148.112   114975.444    80543.913    21937.226       32.289       10.873      654.420      176.138        0.072      341.772       16.713      856.271
11/28/2014  13:14:00     -576.258     -301.256      -15.284      343.678      286.118      145.667   118114.560    81863.476    21218.747       32.209       11.060      650.253      165.541        0.065      341.740       16.659      856.226
11/28/2014  13:15:00     -586.171     -489.915       -5.421      304.561      240.279      146.383    92757.230    57734.176    21428.001       37.775        8.596      763.945      167.895        0.048      341.688       16.571      856.175
11/28/2014  13:16:00     -325.680     -217.040      -19.817      221.500      177.670      114.912    49062.111    31566.740    13204.746       12.368        4.692      391.374      100.886        0.066      341.838       16.826      856.236
11/28/2014  13:17:00     -518.498     -378.364       -1.193      307.881      241.518      131.192    94790.704    58331.065    17211.317       29.113        8.517      641.871      161.371        0.063      341.797       16.755      856.255
11/28/2014  13:18:00     -598.305     -221.962      -19.647      206.908      256.470      105.730    42810.861    65776.798    11178.858       26.367        5.988      638.151      101.430        0.025      341.850       16.846      856.275
11/28/2014  13:19:00     -616.901     -388.572        1.340      405.565      311.556      180.916   164483.032    97067.257    32730.444       41.286       14.714      729.078      221.517        0.092      341.692       16.578      856.168
11/28/2014  13:20:00     -869.796     -450.862      -54.368      465.929      312.665      157.273   217089.373    97759.231    24734.902       65.111       16.979      979.705      171.144        0.031      341.675       16.546      856.009
11/28/2014  13:21:00     -685.501     -380.026      -25.905      381.540      236.092      141.663   145572.471    55739.495    20068.452       41.815       11.069      783.793      165.172        0.044      341.675       16.548      856.105
11/28/2014  13:22:00     -780.050     -268.688      -39.326      408.424      297.534      165.048   166810.275    88526.336    27240.727       48.234       14.129      825.028      188.234        0.052      341.631       16.474      856.058
11/28/2014  13:23:00     -581.857     -224.614      -17.502      373.029      258.167      140.322   139150.338    66650.084    19690.151       30.736       11.275      623.706      183.359        0.086      341.721       16.625      856.153
11/28/2014  13:24:00     -814.964     -519.160      -23.438      480.981      395.747      183.880   231342.686   156615.797    33811.953       67.792       21.089      966.278      230.330        0.057      341.553       16.341      856.031
11/28/2014  13:25:00     -607.553     -450.276       -5.459      374.296      349.481      160.819   140097.777   122136.974    25862.642       42.994       14.405      756.220      202.681        0.072      341.615       16.449      856.049
11/28/2014  13:26:00     -684.115     -520.434      -24.083      390.685      340.807      163.470   152634.747   116149.083    26722.364       51.742       14.775      859.572      197.699        0.053      341.608       16.436      856.004
11/28/2014  13:27:00     -543.688     -278.756        6.858      333.029      240.701      145.054   110908.106    57937.091    21040.679       28.158        9.494      610.984      167.281        0.075      341.688       16.571      856.015
11/28/2014  13:28:00     -484.637     -229.305        9.277      328.632      313.943      165.592   107998.811    98560.078    27420.694       26.071       11.699      536.148      191.807        0.128      341.680       16.558      856.029
11/28/2014  13:29:00     -490.132     -323.215        0.322      295.123      279.741      135.369    87097.759    78255.182    18324.792       26.415        9.184      587.109      150.727        0.066      341.688       16.570      856.028
11/28/2014  13:30:00     -429.512     -227.822      -13.640      243.496      193.288      109.887    59290.543    37360.409    12075.261       17.263        5.436      486.193      103.293        0.045      341.771       16.712      856.058
11/28/2014  13:31:00     -425.621     -301.658       -0.709      292.728      204.576      101.002    85689.430    41851.340    10201.373       20.492        6.887      521.681      122.710        0.055      341.782       16.732      856.061
11/28/2014  13:32:00     -686.035     -351.357      -18.566      376.664      362.267      137.120   141875.843   131237.204    18801.795       44.312       14.596      770.776      164.214        0.045      341.682       16.561      855.932
11/28/2014  13:33:00     -575.267     -353.019        8.707      330.604      241.100      137.329   109299.313    58129.079    18859.280       32.092        9.314      674.948      148.477        0.048      341.650       16.506      855.941
11/28/2014  13:34:00     -774.956     -430.369      -44.161      356.201      334.597      137.295   126878.960   111955.050    18850.029       52.265       12.884      886.439      166.058        0.035      341.646       16.499      855.916
11/28/2014  13:35:00     -644.660     -288.537      -24.577      326.250      258.510      142.519   106438.819    66827.575    20311.786       34.647        9.679      706.286      159.605        0.051      341.654       16.512      855.902
11/28/2014  13:36:00     -447.493     -326.569       -9.041      265.052      205.239      133.094    70252.391    42122.994    17713.999       21.851        6.504      553.983      142.299        0.066      341.778       16.722      855.975
11/28/2014  13:37:00     -436.785     -213.392      -11.047      209.572      193.208       89.522    43920.614    37329.358     8014.149       16.283        4.463      486.125       96.979        0.040      341.871       16.882      855.954
11/28/2014  13:38:00     -462.818     -275.703        6.384      283.497      207.073      126.595    80370.295    42879.074    16026.184       21.474        6.964      538.714      158.723        0.087      341.906       16.940      855.961
11/28/2014  13:39:00     -586.081     -100.286       10.195      360.683      260.825      135.031   130092.373    68029.885    18233.389       28.496       10.818      594.599      158.160        0.071      341.780       16.728      855.894
11/28/2014  13:40:00     -589.209     -207.143      -16.814      298.126      212.989      125.664    88879.387    45364.442    15791.417       27.017        7.502      624.561      147.903        0.056      341.788       16.741      855.951
11/28/2014  13:41:00     -688.939     -256.599      -20.275      316.843      245.955      133.602   100389.369    60493.631    17849.512       35.978        8.937      735.173      139.937        0.036      341.718       16.621      855.852
11/28/2014  13:42:00     -471.932     -268.431      -25.278      254.387      232.739      114.812    64712.589    54167.351    13181.728       21.371        6.603      542.932      120.732        0.049      341.816       16.787      855.863
11/28/2014  13:43:00     -457.273     -238.116      -15.624      269.286      165.929       84.928    72515.074    27532.582     7212.808       18.663        5.363      515.556      103.008        0.040      341.866       16.871      855.862
11/28/2014  13:44:00     -474.356     -315.152      -15.313      266.210      212.604      108.158    70867.649    45200.559    11698.124       22.614        6.388      569.504      126.499        0.049      341.829       16.811      855.857
11/28/2014  13:45:00     -575.599     -216.313      -31.184      325.880      274.535      137.056   106197.600    75369.294    18784.468       28.967       10.018      614.903      158.631        0.067      341.814       16.784      855.836
11/28/2014  13:46:00     -593.811     -332.317      -33.010      363.222      295.088      141.873   131929.881    87076.636    20127.838       35.159       11.957      680.475      155.336        0.052      341.684       16.565      855.709
11/28/2014  13:47:00     -578.018     -286.173      -37.309      393.605      247.054      143.918   154924.511    61035.527    20712.446       32.698       11.834      644.980      184.981        0.082      341.709       16.607      855.746
11/28/2014  13:48:00     -461.660     -177.107      -24.907      219.850      184.072       99.272    48333.944    33882.548     9854.954       16.858        4.604      494.466      111.869        0.051      341.805       16.769      855.779
11/28/2014  13:49:00     -419.883     -330.489        3.751      329.825      252.508      135.541   108784.289    63760.430    18371.490       23.819        9.546      534.345      165.715        0.096      341.825       16.803      855.781
11/28/2014  13:50:00     -489.586     -396.825      -17.731      240.905      215.089      109.223    58035.348    46263.325    11929.707       25.683        5.811      630.209      109.157        0.030      341.783       16.732      855.742
11/28/2014  13:51:00     -829.054     -342.033      -10.784      369.502      281.224      147.726   136531.365    79086.825    21822.925       52.089       11.872      896.837      163.309        0.033      341.692       16.578      855.668
11/28/2014  13:52:00     -636.240     -134.330       -6.359      323.759      264.060      151.608   104819.681    69727.606    22984.961       31.017        9.877      650.266      169.352        0.068      341.754       16.683      855.704
11/28/2014  13:53:00     -481.580     -237.490       -4.380      359.520      236.717      130.062   129254.556    56035.074    16916.160       24.523       10.110      536.955      173.064        0.104      341.794       16.751      855.711
11/28/2014  13:54:00     -498.358     -234.424      -24.862      229.372      169.177       92.950    52611.604    28620.721     8639.703       19.688        4.494      550.740      103.445        0.035      341.893       16.917      855.676
11/28/2014  13:55:00     -290.146     -129.295        3.560      204.231      144.155       77.915    41710.144    20780.665     6070.677        8.472        3.428      317.650       83.546        0.069      341.997       17.094      855.658
11/28/2014  13:56:00     -603.175     -372.023      -23.034      343.821      269.861      140.169   118212.618    72824.962    19647.374       35.668       10.534      708.676      156.797        0.049      341.802       16.763      855.631
11/28/2014  13:57:00     -536.711     -341.560      -26.911      273.317      243.754      126.317    74702.194    59416.157    15956.081       27.773        7.504      636.178      141.168        0.049      341.776       16.721      855.662
11/28/2014  13:58:00     -459.416     -221.974       -9.698      265.114      232.018      122.313    70285.563    53832.552    14960.441       19.973        6.954      510.231      142.926        0.078      341.836       16.822      855.698
11/28/2014  13:59:00     -341.391     -247.791       10.815      222.851      213.267      119.083    49662.486    45482.975    14180.876       14.367        5.466      421.839      128.956        0.093      341.805       16.769      855.680
11/28/2014  14:00:00     -545.439     -323.067      -35.928      248.283      214.307      134.779    61644.524    45927.622    18165.430       26.443        6.287      633.937      126.845        0.040      341.731       16.643      855.665
11/28/2014  14:01:00     -443.852     -192.306       -8.825      262.327      190.727       92.616    68815.450    36376.835     8577.809       17.389        5.689      483.721      109.694        0.051      341.780       16.725      855.616
11/28/2014  14:02:00     -488.959     -227.757      -14.372      268.752      171.103      104.513    72227.524    29276.158    10923.036       20.177        5.621      539.402      106.814        0.039      341.856       16.856      855.677
11/28/2014  14:03:00     -464.247     -114.209        4.448      245.119      227.823      129.482    60083.236    51903.473    16765.591       17.864        6.438      478.089      136.291        0.081      341.896       16.924      855.652
11/28/2014  14:04:00     -614.255     -393.266      -13.385      340.526      233.906      136.146   115958.061    54711.947    18535.763       36.064        9.460      729.361      162.224        0.049      341.814       16.785      855.622
11/28/2014  14:05:00     -824.740     -457.903      -46.537      314.684      324.789      129.109    99026.133   105487.640    16669.074       55.657       11.059      943.330      131.107        0.019      341.761       16.694      855.580
11/28/2014  14:06:00     -528.610     -193.737      -37.616      242.656      245.951      108.252    58881.911    60491.912    11718.571       22.471        6.555      562.994      108.949        0.037      341.873       16.885      855.608
11/28/2014  14:07:00     -500.959     -161.901       -1.960      295.845      239.361      123.792    87524.130    57293.511    15324.578       21.863        8.007      526.471      148.368        0.079      341.839       16.825      855.579
11/28/2014  14:08:00     -422.984     -284.964      -11.561      303.739      246.224      110.473    92257.676    60626.340    12204.245       21.264        8.254      510.020      125.284        0.060      341.896       16.925      855.616
11/28/2014  14:09:00     -569.083     -296.977      -32.642      328.138      313.444      136.198   107674.245    98246.981    18549.796       31.875       11.224      641.912      156.104        0.059      341.781       16.729      855.523
11/28/2014  14:10:00     -533.099     -246.260       -2.430      392.429      349.722      150.823   154000.898   122305.729    22747.524       32.189       14.953      587.230      192.197        0.107      341.751       16.677      855.544
11/28/2014  14:11:00     -663.731     -261.783      -35.269      349.492      295.538      149.332   122144.970    87342.513    22300.103       37.100       11.589      713.491      143.209        0.040      341.699       16.590      855.512
11/28/2014  14:12:00     -608.231     -314.584      -31.244      301.164      245.172      113.818    90699.569    60109.264    12954.476       31.679        8.188      684.769      141.219        0.043      341.704       16.596      855.556
11/28/2014  14:13:00     -509.177     -334.359      -12.060      285.117      234.170      116.576    81291.688    54835.515    13589.851       26.043        7.486      609.145      139.172        0.052      341.752       16.679      855.556
11/28/2014  14:14:00     -495.135     -242.998      -18.790      293.633      232.056      102.384    86220.244    53850.212    10482.397       22.753        7.528      551.549       99.658        0.033      341.806       16.771      855.577
11/28/2014  14:15:00     -534.996     -264.242      -32.364      219.933      210.855      102.712    48370.503    44459.872    10549.745       23.022        5.169      596.695      108.059        0.033      341.778       16.723      855.520
11/28/2014  14:16:00     -364.111     -213.555        1.625      277.991      214.768      122.547    77279.113    46125.189    15017.844       15.828        6.921      422.117      134.992        0.102      341.863       16.867      855.531
11/28/2014  14:17:00     -516.592     -241.421      -27.556      262.555      165.506      110.820    68935.017    27392.135    12281.145       21.724        5.430      570.220      117.235        0.042      341.819       16.792      855.542
11/28/2014  14:18:00     -643.358     -201.944      -43.881      386.459      237.573      138.696   149350.600    56440.707    19236.590       34.078       11.251      674.307      175.313        0.068      341.791       16.746      855.444
11/28/2014  14:19:00     -584.213     -390.917      -32.266      300.985      293.934      137.801    90592.260    86396.973    18989.094       34.553        9.799      702.937      158.783        0.051      341.772       16.714      855.462
11/28/2014  14:20:00     -572.961     -376.704      -16.008      304.401      259.351      136.495    92660.012    67262.696    18630.838       32.446        8.928      685.705      162.137        0.056      341.779       16.724      855.477
11/28/2014  14:21:00     -410.926     -373.981       -5.827      255.662      251.853      134.373    65362.838    63429.818    18056.168       22.777        7.342      555.627      127.815        0.053      341.804       16.767      855.439
11/28/2014  14:22:00     -517.929     -227.942      -19.250      319.924      201.391      116.282   102351.051    40558.293    13521.415       23.847        7.822      565.869      137.497        0.059      341.812       16.782      855.471
11/28/2014  14:23:00     -674.489     -393.387      -30.762      325.442      258.570      124.366   105912.524    66858.320    15466.881       39.940        9.412      780.826      137.168        0.031      341.771       16.712      855.476
11/28/2014  14:24:00     -569.092     -543.834      -48.410      319.343      262.916      156.619   101979.977    69124.701    24529.635       40.876        9.782      787.160      148.504        0.036      341.769       16.708      855.455
11/28/2014  14:25:00     -572.006     -424.108        1.087      365.222      287.756      150.024   133387.303    82803.464    22507.240       37.283       11.935      712.080      178.584        0.063      341.680       16.556      855.373
11/28/2014  14:26:00     -518.268     -293.747       19.401      311.997      224.763      133.362    97342.111    50518.622    17785.314       26.042        8.282      595.725      151.563        0.065      341.750       16.676      855.378
11/28/2014  14:27:00     -434.146     -247.020        9.949      261.582      204.068      117.261    68425.176    41643.882    13750.210       18.669        6.191      499.502      137.118        0.075      341.777       16.723      855.445
11/28/2014  14:28:00     -554.062     -290.149      -35.157      288.682      242.454      135.155    83337.218    58783.927    18266.800       27.637        8.019      625.436      142.262        0.052      341.819       16.793      855.445
11/28/2014  14:29:00     -447.632     -332.928      -11.893      307.288      236.268      128.881    94426.169    55822.369    16610.381       23.907        8.343      557.867      151.895        0.074      341.821       16.795      855.450
11/28/2014  14:30:00     -186.058     -382.072       -1.480      217.138      342.655      105.872    47148.805   117412.780    11208.827       17.815        8.789      424.966      106.893        0.063      341.809       16.776      855.388
11/28/2014  14:31:00     -413.942     -276.865       24.959      255.324      180.671      113.062    65190.219    32642.134    12783.050       17.960        5.531      497.999      129.250        0.067      341.866       16.870      855.429
11/28/2014  14:32:00     -526.897     -372.724       -9.195      258.013      227.604      121.354    66570.626    51803.382    14726.861       27.484        6.655      645.402      135.761        0.044      341.810       16.777      855.431
11/28/2014  14:33:00     -467.411     -278.238      -26.917      232.570      245.954      110.804    54088.925    60493.368    12277.629       21.171        6.343      543.957      108.749        0.040      341.787       16.739      855.463
11/28/2014  14:34:00     -444.767     -327.564       -3.387      244.282      199.617      107.781    59673.904    39846.905    11616.658       20.811        5.557      552.373      110.364        0.040      341.751       16.677      855.422
11/28/2014  14:35:00     -330.442     -202.345       11.117      240.243      233.938      103.807    57716.623    54726.995    10775.798       13.671        6.161      387.474      106.849        0.076      341.818       16.791      855.420
11/28/2014  14:36:00     -428.731     -223.902       -9.986      231.572      185.109      102.268    53625.591    34265.512    10458.672       16.618        4.917      483.676      122.872        0.065      341.813       16.784      855.444
11/28/2014  14:37:00     -415.183     -313.020      -30.186      257.250      239.986       99.498    66177.719    57593.313     9899.834       20.244        6.684      519.960      118.138        0.052      341.851       16.846      855.525
11/28/2014  14:38:00     -493.332     -317.857      -12.712      290.691      257.211      129.805    84501.012    66157.546    16849.403       25.601        8.375      586.864      142.871        0.059      341.746       16.668      855.375
11/28/2014  14:39:00     -441.392     -270.720       -1.568      239.443      184.372      117.844    57333.083    33992.900    13887.150       18.664        5.261      517.799      106.065        0.042      341.679       16.556      855.305
11/28/2014  14:40:00     -481.195     -351.029       -7.085      251.338      252.561      113.291    63170.964    63786.835    12834.821       24.728        6.990      595.626      122.316        0.042      341.719       16.624      855.367
11/28/2014  14:41:00     -364.893     -271.620       -8.116      235.619      129.246       98.769    55516.147    16704.550     9755.292       14.447        4.099      454.890      104.250        0.053      341.776       16.719      855.439
11/28/2014  14:42:00     -671.049     -422.243        1.490      332.770      269.890      148.872   110736.035    72840.805    22162.943       41.713       10.287      792.841      175.990        0.049      341.633       16.479      855.425
11/28/2014  14:43:00     -638.433     -459.275      -17.563      387.382      316.109      120.403   150064.690    99924.828    14496.909       44.161       13.224      786.467      158.468        0.041      341.599       16.419      855.323
11/28/2014  14:44:00     -741.164     -433.565      -27.949      275.159      228.427      131.397    75712.665    52178.917    17265.178       44.159        7.258      858.663      134.487        0.025      341.584       16.396      855.360
11/28/2014  14:45:00     -441.597     -271.104        4.558      265.838      218.481      107.406    70669.828    47734.153    11536.026       19.921        6.497      518.175      106.938        0.043      341.662       16.525      855.350
11/28/2014  14:46:00     -573.616     -307.055      -14.019      295.276      284.565      132.705    87187.774    80977.334    17610.720       30.461        9.289      650.629      149.562        0.053      341.626       16.468      855.346
11/28/2014  14:47:00     -660.463     -415.910       -4.452      340.756      243.664      129.013   116114.886    59372.218    16644.324       40.063        9.607      780.508      146.705        0.035      341.598       16.418      855.325
11/28/2014  14:48:00     -362.737     -242.380       13.446      274.000      200.124      107.018    75076.021    40049.723    11452.843       15.852        6.329      436.264      113.066        0.067      341.669       16.540      855.362
11/28/2014  14:49:00     -544.398     -185.454       -1.008      250.057      208.171      112.459    62528.505    43335.251    12647.110       22.461        5.926      575.119      121.641        0.045      341.653       16.512      855.324
11/28/2014  14:50:00     -593.438     -370.440      -50.722      307.261      263.139      103.827    94409.609    69242.302    10780.103       33.316        8.722      699.567      119.992        0.029      341.614       16.444      855.295
11/28/2014  14:51:00     -430.829     -293.773        1.873      285.632      219.796      131.847    81585.554    48310.063    17383.636       20.957        7.364      521.456      145.750        0.078      341.594       16.412      855.282
11/28/2014  14:52:00     -482.686     -415.628      -33.686      315.050      227.783      132.141    99256.210    51885.129    17461.128       28.770        8.430      636.972      141.791        0.050      341.584       16.395      855.253
11/28/2014  14:53:00     -730.155     -513.889      -24.470      349.410      258.691      138.752   122087.462    66921.115    19252.080       50.299       10.413      892.865      174.075        0.038      341.553       16.343      855.277
11/28/2014  14:54:00     -513.625     -330.122        3.232      373.255      285.619      125.886   139318.935    81578.424    15847.369       30.473       11.837      610.566      129.477        0.045      341.585       16.397      855.249
11/28/2014  14:55:00     -436.975     -347.408        7.204      306.118      244.769      142.842    93708.505    59911.652    20403.702       24.282        8.701      558.247      159.460        0.082      341.618       16.453      855.270
11/28/2014  14:56:00     -348.909     -190.686       21.646      234.739      288.799      131.287    55102.322    83404.593    17236.337       15.712        7.787      397.616      126.857        0.102      341.604       16.430      855.288
11/28/2014  14:57:00     -579.661     -415.712      -11.327      432.983      297.077      156.768   187474.325    88254.909    24576.321       40.457       15.015      713.318      194.823        0.075      341.519       16.286      855.232
11/28/2014  14:58:00     -677.059     -428.799      -32.851      343.011      284.281      139.345   117656.491    80815.643    19417.012       43.058       10.894      801.422      172.707        0.046      341.527       16.297      855.253
11/28/2014  14:59:00     -318.703     -218.657       -1.879      180.565      216.217      101.283    32603.664    46749.738    10258.302       11.948        4.481      386.500       91.434        0.056      341.560       16.353      855.249
11/28/2014  15:00:00     -406.050     -205.818       -1.549      311.658      177.859      102.445    97130.887    31633.690    10494.968       17.322        6.963      455.233      112.508        0.061      341.591       16.406      855.320
11/28/2014  15:01:00     -344.190     -291.471      -12.882      237.535      248.384      103.504    56423.046    61694.539    10712.996       16.618        6.442      451.023       99.943        0.049      341.559       16.353      855.271
11/28/2014  15:02:00     -576.301     -371.882      -35.865      280.367      191.656      103.225    78605.384    36731.853    10655.443       29.882        6.300      685.871      113.785        0.028      341.537       16.313      855.233
11/28/2014  15:03:00     -277.756     -207.197       15.291      217.770      199.933       97.892    47423.635    39973.257     9582.809       10.863        4.849      346.524       94.852        0.075      341.573       16.376      855.249
11/28/2014  15:04:00     -388.653     -155.896       15.517      250.001      170.846      101.655    62500.406    29188.474    10333.816       13.879        5.101      418.753      115.989        0.077      341.589       16.404      855.276
11/28/2014  15:05:00     -314.851     -151.222      -21.669      222.664      159.697       83.212    49579.074    25503.151     6924.243       10.222        4.100      349.284       73.006        0.044      341.606       16.434      855.272
11/28/2014  15:06:00     -443.622     -302.258       -2.023      311.814      201.485      131.255    97228.187    40596.392    17227.936       22.158        7.753      536.806      159.424        0.088      341.531       16.305      855.227
11/28/2014  15:07:00     -308.466     -300.328        7.317      191.869      268.871       89.219    36813.756    72291.548     7960.076       15.121        5.853      430.521       89.979        0.044      341.528       16.301      855.189
11/28/2014  15:08:00     -430.319     -193.188      -24.604      252.921      208.754       92.873    63969.051    43578.233     8625.456       16.961        5.809      471.695      105.737        0.050      341.509       16.267      855.145
11/28/2014  15:09:00     -381.804     -224.646        1.925      225.254      253.280       94.022    50739.295    64150.572     8840.165       15.996        6.187      442.990      114.873        0.067      341.519       16.284      855.157
11/28/2014  15:10:00     -592.315     -313.438      -38.313      270.291      288.151      126.931    73057.255    83030.749    16111.574       31.134        8.610      670.135      127.832        0.036      341.506       16.262      855.129
11/28/2014  15:11:00     -563.947     -370.533      -10.860      328.314      228.231      117.685   107790.132    52089.586    13849.852       31.455        8.686      674.782      144.761        0.046      341.482       16.222      855.114
11/28/2014  15:12:00     -666.731     -397.447      -18.929      264.646      221.381      124.952    70037.634    49009.577    15612.919       36.873        6.733      776.205      120.057        0.024      341.454       16.174      855.088
11/28/2014  15:13:00     -627.384     -439.709      -25.196      280.982      259.896      126.320    78950.815    67545.744    15956.689       37.499        8.123      766.130      143.806        0.035      341.438       16.147      855.048
11/28/2014  15:14:00     -690.517     -327.839      -37.181      318.803      303.110      137.291   101635.316    91875.549    18848.832       39.897       10.618      764.391      143.349        0.035      341.425       16.126      855.082
11/28/2014  15:15:00     -408.823     -243.538        4.542      299.990      291.092      132.673    89994.229    84734.313    17602.099       20.936        9.617      475.864      154.799        0.106      341.436       16.144      855.038
11/28/2014  15:16:00     -605.908     -428.341      -11.387      357.986      274.301      147.241   128153.914    75240.767    21679.972       38.786       11.254      742.025      179.434        0.058      341.396       16.076      855.035
11/28/2014  15:17:00     -394.947     -211.492        3.387      243.631      183.650       83.972    59356.013    33727.464     7051.255       15.041        5.007      448.009      106.283        0.056      341.449       16.166      855.102
11/28/2014  15:18:00     -511.332     -387.618       -3.496      289.977      254.962      126.860    84086.486    65005.806    16093.341       28.842        8.259      641.645      136.411        0.045      341.385       16.057      855.055
11/28/2014  15:19:00     -365.333     -217.876       22.761      264.365      236.503      116.830    69889.065    55933.607    13649.184       16.044        6.974      425.369      129.890        0.093      341.436       16.143      855.055
11/28/2014  15:20:00     -489.352     -243.610      -23.286      301.495      219.228      113.325    90899.135    48060.710    12842.629       22.555        7.590      546.637      135.939        0.062      341.408       16.098      855.054
11/28/2014  15:21:00     -272.378     -134.992        1.176      194.701      166.696       91.313    37908.422    27787.577     8337.977        8.321        3.702      303.995       84.838        0.078      341.448       16.166      855.058
11/28/2014  15:22:00     -608.055     -361.860      -41.581      309.874      260.804      124.868    96022.186    68018.858    15591.906       34.098        8.982      707.583      131.981        0.035      341.359       16.014      855.041
11/28/2014  15:23:00     -500.424     -234.823      -15.912      351.929      228.313      132.969   123854.363    52127.019    17680.764       24.970        9.683      552.780      163.940        0.088      341.388       16.061      855.034
11/28/2014  15:24:00     -434.589     -158.680       -0.043      278.020      209.806      121.779    77295.090    44018.394    14830.125       17.507        6.807      462.652      142.045        0.094      341.391       16.067      855.048
11/28/2014  15:25:00     -382.442     -229.982        1.096      302.414      180.230      127.062    91454.421    32482.691    16144.793       16.959        7.004      446.267      140.241        0.099      341.365       16.022      855.020
11/28/2014  15:26:00     -457.436     -219.738       -4.350      243.389      195.970      117.176    59238.383    38404.110    13730.225       18.444        5.569      507.477      113.989        0.050      341.360       16.016      855.028
11/28/2014  15:27:00     -460.697     -331.542      -17.532      257.222      278.432      119.782    66163.013    77524.300    14347.792       24.022        7.902      567.594      133.152        0.055      341.330       15.965      855.036
11/28/2014  15:28:00     -573.448     -332.304      -14.222      288.674      263.100      129.577    83332.628    69221.503    16790.242       30.437        8.467      662.773      135.970        0.042      341.283       15.886      855.003
11/28/2014  15:29:00     -558.533     -418.914      -16.365      338.425      254.099      131.594   114531.701    64566.293    17316.971       34.203        9.821      698.175      144.929        0.043      341.284       15.887      854.991
11/28/2014  15:30:00     -704.478     -480.594      -34.215      380.279      295.083      155.010   144612.074    87074.081    24028.238       49.202       12.786      852.796      190.093        0.050      341.256       15.839      854.928
11/28/2014  15:31:00     -857.348     -457.298      -14.724      409.190      361.641      176.003   167436.221   130784.037    30977.215       63.672       16.460      971.683      207.938        0.046      341.245       15.821      854.991
11/28/2014  15:32:00     -660.828     -322.279      -26.457      361.399      260.685      137.286   130609.266    67956.535    18847.313       37.929       10.871      735.226      141.016        0.037      341.259       15.844      855.004
11/28/2014  15:33:00     -353.338     -270.794       -0.624      241.616      173.590       98.020    58378.183    30133.400     9607.975       14.813        4.906      445.171      110.276        0.061      341.270       15.864      855.013
11/28/2014  15:34:00     -540.046     -390.570      -21.423      320.693      357.603      130.051   102843.851   127880.253    16913.297       34.610       12.382      666.479      154.992        0.054      341.262       15.849      855.042
11/28/2014  15:35:00     -821.178     -589.569      -53.289      435.767      304.870      164.660   189893.157    92945.477    27112.945       66.729       15.498     1010.903      205.267        0.041      341.188       15.725      854.966
11/28/2014  15:36:00     -599.636     -522.918      -10.058      382.006      316.745      166.259   145928.937   100327.276    27642.212       45.345       13.695      795.617      187.456        0.056      341.181       15.712      854.897
11/28/2014  15:37:00     -692.157     -422.205      -19.649      392.803      303.865      163.638   154294.503    92333.872    26777.309       46.551       13.670      810.764      199.388        0.060      341.188       15.723      854.949
11/28/2014  15:38:00     -771.749     -520.622      -32.320      384.766      269.981      162.322   148044.602    72889.597    26348.574       55.744       12.364      930.937      175.600        0.036      341.165       15.683      854.955
11/28/2014  15:39:00     -753.508     -281.018      -21.532      397.136      296.444      142.639   157717.229    87879.137    20345.840       45.652       13.297      804.205      171.239        0.045      341.182       15.713      854.908
11/28/2014  15:40:00     -523.177     -328.792       -4.939      315.908      283.039      126.306    99798.078    80110.967    15953.176       28.881        9.793      617.915      135.199        0.048      341.200       15.744      854.998
11/28/2014  15:41:00     -615.493     -231.942      -17.326      355.537      270.860      147.546   126406.699    73364.890    21769.833       32.719       11.077      657.745      174.731        0.071      341.163       15.680      854.968
11/28/2014  15:42:00     -641.778     -477.078      -45.692      269.181      304.324      132.141    72458.586    92613.224    17461.128       41.202        9.127      799.677      144.890        0.033      341.146       15.653      855.017
11/28/2014  15:43:00     -462.824     -256.049      -13.359      323.089      256.298      116.943   104386.297    65688.464    13675.699       23.181        9.188      528.930      144.578        0.075      341.173       15.698      855.060
11/28/2014  15:44:00     -267.510     -197.391        5.940      271.227      223.058       92.819    73564.268    49754.822     8615.360       12.122        6.597      332.453      103.270        0.096      341.172       15.697      855.082
11/28/2014  15:45:00     -356.504     -218.347       10.459      277.584      172.582      100.016    77053.055    29784.632    10003.250       14.584        5.842      418.056      117.813        0.079      341.153       15.664      855.086
11/28/2014  15:46:00     -498.828     -309.317       -3.757      353.074      312.082      138.714   124661.381    97395.154    19241.465       29.286       12.065      586.947      144.532        0.061      341.124       15.616      855.042
11/28/2014  15:47:00     -744.073     -471.921      -37.413      338.800      253.011      133.434   114785.367    64014.566    17804.509       48.714        9.830      881.110      154.500        0.031      341.074       15.530      855.046
11/28/2014  15:48:00     -425.812     -294.610       10.667      238.173      194.732      123.072    56726.573    37920.629    15146.603       18.899        5.490      517.795      130.626        0.064      341.089       15.557      855.164
11/28/2014  15:49:00     -696.196     -436.687      -25.437      309.123      297.503      136.649    95556.982    88507.938    18673.027       43.934       10.137      821.818      141.774        0.030      341.053       15.495      855.065
11/28/2014  15:50:00     -304.742     -219.921      -11.244      293.661      230.179      113.147    86236.751    52982.261    12802.251       14.666        7.601      375.810      123.709        0.108      341.071       15.526      855.086
11/28/2014  15:51:00     -488.606     -252.808       -1.427      252.651      240.457      136.407    63832.466    57819.358    18606.849       22.143        7.013      550.134      143.101        0.068      341.043       15.479      855.111
11/28/2014  15:52:00     -396.304     -306.358      -17.064      247.537      195.498      110.298    61274.715    38219.291    12165.610       18.141        5.583      500.911      119.817        0.057      341.052       15.495      855.102
11/28/2014  15:53:00     -375.914     -207.132      -30.196      218.835      142.185       85.263    47888.585    20216.635     7269.770       13.024        3.769      429.203       98.178        0.052      341.029       15.457      855.159
11/28/2014  15:54:00     -340.286     -193.407       -9.893      179.779      135.963       79.730    32320.398    18485.888     6356.834       10.522        2.858      391.408       90.282        0.053      341.018       15.437      855.135
11/28/2014  15:55:00     -340.980     -270.392      -20.303      211.781      183.362       94.461    44851.348    33621.475     8922.956       13.858        4.370      435.177      105.690        0.059      341.005       15.415      855.162
11/28/2014  15:56:00     -332.715     -229.307        6.520      243.393      173.341       82.266    59240.387    30046.972     6767.737       12.967        4.803      404.080       78.061        0.037      341.007       15.417      855.163
11/28/2014  15:57:00     -355.304     -230.573      -10.465      195.468      169.946       94.442    38207.787    28881.528     8919.257       12.775        3.800      423.562       94.512        0.050      340.980       15.371      855.157
11/28/2014  15:58:00     -222.577     -184.516       24.554      193.990      113.792       88.640    37632.224    12948.725     7857.118        7.130        2.922      289.114      104.843        0.132      340.962       15.342      855.128
11/28/2014  15:59:00     -464.012     -239.130      -14.044      214.465      155.446       91.418    45995.355    24163.387     8357.311       17.559        3.926      522.006      100.046        0.037      340.945       15.313      855.102
11/28/2014  16:00:00     -374.318     -153.378      -17.909      158.552      124.886       61.051    25138.590    15596.495     3727.180       10.420        2.223      404.523       62.319        0.024      340.929       15.285      855.075
11/28/2014  16:01:00     -405.135     -126.950      -12.489      227.491      170.581      100.428    51752.361    29097.771    10085.720       13.565        4.547      424.559      113.818        0.072      340.927       15.282      855.047
11/28/2014  16:02:00     -339.276     -250.885        1.632      243.650      178.790      102.493    59365.456    31965.766    10504.887       13.993        5.092      421.962      121.635        0.083      340.893       15.224      855.038
11/28/2014  16:03:00     -377.151     -272.814      -21.924      204.515      186.881      110.785    41826.397    34924.618    12273.218       15.307        4.451      465.479      111.425        0.057      340.878       15.199      855.054
11/28/2014  16:04:00     -335.220     -351.715      -18.517      204.870      195.493      103.096    41971.611    38217.697    10628.708       16.360        4.541      485.876      111.925        0.053      340.876       15.195      855.057
11/28/2014  16:05:00     -328.606     -281.004      -10.126      194.185      176.733       97.356    37707.811    31234.548     9478.192       13.272        3.921      432.371       91.119        0.044      340.840       15.134      855.088
11/28/2014  16:06:00     -369.097     -160.326      -17.130      158.539      112.585       74.388    25134.696    12675.344     5533.538       10.278        2.167      402.414       70.290        0.031      340.838       15.130      855.076
11/28/2014  16:07:00     -425.271     -284.344      -12.460      197.621      171.996       94.047    39054.172    29582.454     8844.900       16.966        3.874      511.574       96.536        0.036      340.817       15.096      855.108
11/28/2014  16:08:00     -363.511     -243.599       -1.010      199.353      179.494       96.619    39741.812    32217.954     9335.284       13.637        4.065      437.585      111.941        0.065      340.809       15.081      855.085
11/28/2014  16:09:00     -381.136     -265.609      -10.154      255.022      191.156      108.252    65036.010    36540.453    11718.501       16.458        5.665      464.556      112.516        0.059      340.771       15.021      855.089
11/28/2014  16:10:00     -547.119     -364.413      -14.682      327.550      200.924      111.103   107288.886    40370.546    12343.857       29.614        8.000      657.370      111.474        0.029      340.787       15.045      855.018
11/28/2014  16:11:00     -489.510     -315.942       -6.426      248.045      185.450      119.126    61526.320    34391.840    14191.041       22.477        5.505      582.615      114.283        0.038      340.769       15.017      854.993
11/28/2014  16:12:00     -299.904     -208.535       23.119      308.943      219.959      127.922    95445.774    48381.813    16364.115       14.705        8.010      365.280      164.849        0.204      340.735       14.957      855.010
11/28/2014  16:13:00     -604.250     -338.829      -23.110      275.193      228.037      113.405    75731.207    52000.681    12860.732       31.050        7.030      692.765      119.216        0.030      340.732       14.954      854.978
11/28/2014  16:14:00     -325.726     -254.165       18.378      246.486      208.786      106.096    60755.408    43591.470    11256.365       14.330        5.780      413.156      130.138        0.099      340.721       14.935      854.996
11/28/2014  16:15:00     -357.996     -246.008      -17.015      160.914      162.012       80.244    25893.460    26247.741     6439.041       12.376        2.929      434.374       86.113        0.039      340.701       14.899      854.959
11/28/2014  16:16:00     -255.052     -190.444       28.197      225.497      140.434      101.349    50848.686    19721.741    10271.522        9.146        4.042      318.309      121.519        0.146      340.654       14.821      854.971
11/28/2014  16:17:00     -280.271     -168.119        5.578      146.096      156.761       73.675    21344.011    24573.977     5428.025        7.909        2.567      326.827       76.384        0.055      340.651       14.815      855.002
11/28/2014  16:18:00     -439.644     -214.986      -14.236      200.234      173.036       90.971    40093.740    29941.488     8275.668       15.899        3.916      489.393       99.009        0.041      340.633       14.785      854.950
11/28/2014  16:19:00     -335.884     -222.981       -5.561      204.980      183.087      108.106    42016.690    33520.977    11686.957       12.488        4.361      403.161      120.488        0.089      340.605       14.737      854.972
11/28/2014  16:20:00     -414.455     -354.227      -16.762      202.153      168.958      117.135    40865.958    28546.643    13720.675       19.032        4.157      545.206      117.591        0.047      340.608       14.742      854.954
11/28/2014  16:21:00     -497.018     -196.296      -29.468      174.026      147.780       79.289    30285.019    21838.967     6286.742       17.241        2.921      534.377       81.269        0.023      340.597       14.724      854.949
11/28/2014  16:22:00     -678.257     -279.944      -63.448      201.869      209.378      115.855    40751.266    43839.127    13422.469       32.020        4.901      733.759      105.514        0.021      340.639       14.794      854.908
11/28/2014  16:23:00     -514.479     -243.819        8.709      275.595      235.268      130.272    75952.583    55351.147    16970.752       23.621        7.414      569.330      132.051        0.054      340.609       14.745      854.935
11/28/2014  16:24:00     -510.538     -357.938      -27.933      245.795      222.745      110.994    60415.184    49615.367    12319.586       25.593        6.118      623.513      126.791        0.041      340.617       14.755      854.907
11/28/2014  16:25:00     -290.751     -287.445       -4.594      194.115      175.874      116.986    37680.721    30931.724    13685.692       12.472        4.115      408.853      121.813        0.089      340.574       14.684      854.883
11/28/2014  16:26:00     -437.008     -263.278      -22.890      193.266      171.575      102.614    37351.565    29438.123    10529.548       16.905        3.866      510.187      113.507        0.049      340.561       14.663      854.882
11/28/2014  16:27:00     -378.597     -201.125      -13.325      153.729      146.071       85.941    23632.757    21336.804     7385.771       11.815        2.618      428.704       76.705        0.032      340.540       14.629      854.910
11/28/2014  16:28:00     -284.226     -239.535       -9.044      157.465      148.140       76.306    24795.265    21945.531     5822.619        9.539        2.628      371.701       81.765        0.048      340.480       14.526      854.868
11/28/2014  16:29:00     -196.084     -183.617       26.412      210.483      173.673       87.082    44303.169    30162.317     7583.272        7.744        4.102      268.633       97.037        0.130      340.528       14.608      854.832
11/28/2014  16:30:00     -348.194     -208.683       -2.340      266.494      192.849      100.139    71019.173    37190.551    10027.792       14.149        5.912      405.941      117.811        0.084      340.517       14.590      854.860
11/28/2014  16:31:00     -407.172     -254.369       -8.084      236.087      179.923      101.627    55736.930    32372.307    10327.958       16.448        4.922      480.097      113.653        0.056      340.534       14.618      854.817
11/28/2014  16:32:00     -400.336     -263.096      -14.125      259.612      184.323       97.545    67398.470    33974.808     9515.028       17.027        5.544      479.049      115.848        0.058      340.516       14.587      854.832
11/28/2014  16:33:00     -278.183     -212.455       -6.583      178.774      149.559       88.178    31960.006    22367.822     7775.283        9.232        3.105      350.033       95.975        0.075      340.457       14.487      854.843
11/28/2014  16:34:00     -325.755     -281.039       -4.500      209.033      189.067      108.589    43694.895    35746.216    11791.562       13.816        4.562      430.232      126.697        0.087      340.445       14.467      854.865
11/28/2014  16:35:00     -173.960     -138.705       23.008      170.504      126.413       80.633    29071.592    15980.153     6501.620        5.078        2.578      222.489       91.007        0.167      340.412       14.413      854.805
11/28/2014  16:36:00     -265.137     -113.406        7.075      189.330      123.224       78.472    35845.793    15184.230     6157.926        7.019        2.859      288.372       91.644        0.101      340.369       14.339      854.823
11/28/2014  16:37:00     -355.021     -205.327      -17.911      237.257      275.974       93.360    56290.773    76161.673     8716.126       15.482        7.058      410.120       84.839        0.043      340.460       14.493      854.837
11/28/2014  16:38:00     -385.333     -240.623       -9.918      294.666      195.470      107.072    86827.799    38208.464    11464.477       17.146        6.825      454.292      138.015        0.092      340.448       14.473      854.766
11/28/2014  16:39:00     -570.749     -265.770      -25.420      293.401      183.394      104.665    86084.366    33633.230    10954.685       26.383        6.534      629.594      114.344        0.033      340.454       14.483      854.801
11/28/2014  16:40:00     -503.625     -328.899       -3.696      279.863      285.311      129.685    78323.575    81402.453    16818.074       26.915        8.827      601.509      160.021        0.071      340.441       14.460      854.819
11/28/2014  16:41:00     -463.837     -244.783       -4.626      271.837      203.177       97.833    73895.291    41280.860     9571.378       19.989        6.237      524.465      129.114        0.061      340.413       14.413      854.865
11/28/2014  16:42:00     -526.672     -204.573      -15.529      280.919      228.211      104.400    78915.668    52080.438    10899.307       23.066        7.095      565.007      139.523        0.061      340.433       14.446      854.850
11/28/2014  16:43:00     -328.813     -302.230       -4.627      257.850      183.142      124.376    66486.425    33540.913    15469.435       15.747        5.775      446.610      152.237        0.116      340.365       14.331      854.840
11/28/2014  16:44:00     -383.184     -158.127        5.853      185.411      160.273       81.404    34377.201    25687.574     6626.568       11.927        3.335      414.529       93.112        0.050      340.344       14.297      854.858
11/28/2014  16:45:00     -366.794     -189.332      -11.641      181.614      138.597       76.299    32983.622    19209.263     5821.547       11.426        2.901      412.777       85.616        0.043      340.351       14.309      854.904
11/28/2014  16:46:00     -476.302     -174.932      -22.018      258.376      133.658       88.998    66758.122    17864.444     7920.645       17.523        4.627      507.410      115.851        0.052      340.319       14.255      854.902
11/28/2014  16:47:00     -397.061      -52.860       -5.485      257.698      163.439      109.151    66408.264    26712.229    11914.012       13.274        5.252      400.564      123.472        0.095      340.359       14.323      854.892
11/28/2014  16:48:00     -381.733     -151.412        3.273      236.281      203.934      118.927    55828.812    41588.919    14143.650       14.009        5.578      410.665      143.258        0.122      340.341       14.291      854.903
11/28/2014  16:49:00     -380.074     -173.544       -7.722      206.152      159.548       90.189    42498.776    25455.549     8133.988       12.535        3.804      417.821      102.119        0.060      340.301       14.224      854.928
11/28/2014  16:50:00     -450.427     -166.918      -12.484      233.736      180.237       91.739    54632.559    32485.478     8416.003       16.320        4.777      480.361       98.266        0.042      340.317       14.251      854.936
11/28/2014  16:51:00     -467.751      -76.261      -14.097      326.289      237.409      112.201   106464.741    56363.060    12589.113       20.008        8.771      473.927      142.862        0.091      340.360       14.325      854.898
11/28/2014  16:52:00     -532.704     -362.102        4.192      317.089      258.632      146.801   100545.301    66890.635    21550.668       30.191        9.449      644.120      176.892        0.075      340.375       14.350      854.860
11/28/2014  16:53:00     -557.244     -256.807      -14.331      291.411      252.992      136.364    84920.345    64005.033    18595.119       27.206        8.376      613.572      147.679        0.058      340.391       14.375      854.850
11/28/2014  16:54:00     -624.482     -280.716      -11.533      314.678      185.464      130.833    99022.528    34396.771    17117.271       30.969        7.527      684.674      146.728        0.046      340.360       14.325      854.832
11/28/2014  16:55:00     -528.917     -181.842      -10.540      278.840      175.679       96.519    77751.850    30862.950     9315.829       21.541        5.897      559.303      124.804        0.050      340.350       14.306      854.848
11/28/2014  16:56:00     -517.915     -150.724      -26.261      228.419      183.914      104.632    52175.359    33824.178    10947.753       19.428        4.847      539.402      101.025        0.035      340.303       14.228      854.841
11/28/2014  16:57:00     -324.890      -83.618      -15.056      211.293      134.862       90.600    44644.704    18187.886     8208.287        9.189        3.552      335.478       96.497        0.083      340.292       14.208      854.817
11/28/2014  16:58:00     -209.436     -113.477       10.083      208.587      173.268      111.145    43508.536    30021.744    12353.145        7.135        4.294      238.203      123.381        0.268      340.213       14.075      854.850
11/28/2014  16:59:00     -351.667     -104.046       13.476      217.222      202.803      101.724    47185.367    41129.220    10347.746       11.665        4.933      366.737      112.640        0.094      340.179       14.019      854.840
11/28/2014  17:00:00     -433.812     -311.956        9.368      281.001      243.750      136.504    78961.326    59413.998    18633.415       22.127        7.850      534.331      152.023        0.081      340.267       14.165      854.844
11/28/2014  17:01:00     -473.622      -84.416      -14.640      224.879      193.000      115.195    50570.661    37248.999    13269.819       16.635        5.054      481.086      118.531        0.061      340.248       14.133      854.811
11/28/2014  17:02:00     -447.110     -118.351       -3.036      244.731      175.239      113.315    59893.389    30708.825    12840.400       15.866        5.172      462.509      136.592        0.087      340.207       14.063      854.870
11/28/2014  17:03:00     -392.736      -53.862        6.401      388.517      129.911      118.427   150945.436    16876.850    14024.900       16.948        9.092      396.412      173.850        0.192      340.185       14.027      854.849
11/28/2014  17:04:00     -519.114     -224.734      -18.679      306.726      246.751      116.841    94081.113    60886.302    13651.840       24.444        8.431      565.672      140.310        0.062      340.173       14.007      854.812
11/28/2014  17:05:00     -517.861     -168.485       -3.464      295.606      252.377      111.002    87382.697    63693.997    12321.504       22.996        8.170      544.580      115.114        0.045      340.156       13.978      854.782
11/28/2014  17:06:00     -604.291     -215.947      -15.177      235.073      217.428      113.176    55259.180    47274.924    12808.850       26.366        5.767      641.717      119.451        0.035      340.108       13.899      854.823
11/28/2014  17:07:00     -349.642     -142.755       -9.180      182.139      145.053       95.891    33174.439    21040.426     9194.994       10.305        3.170      377.662      104.205        0.076      340.079       13.849      854.817
11/28/2014  17:08:00     -474.438      -58.086      -42.238      225.149      137.036       96.110    50692.242    18778.755     9237.051       15.446        3.935      477.980      102.801        0.046      340.104       13.892      854.789
11/28/2014  17:09:00     -399.871     -231.168      -15.928      184.990      211.784      104.188    34221.319    44852.402    10855.084       15.174        4.496      461.883      117.625        0.065      340.034       13.773      854.725
11/28/2014  17:10:00     -576.006     -276.509      -36.848      352.100      257.683      115.069   123974.509    66400.391    13240.829       30.657       10.181      638.937      132.597        0.043      340.100       13.885      854.669
11/28/2014  17:11:00     -537.324     -182.470      -26.179      335.915      253.646      132.461   112838.920    64336.538    17545.816       25.867        9.736      567.462      134.159        0.056      340.165       13.993      854.628
11/28/2014  17:12:00     -474.450      -82.843       -5.658      246.624      209.470      108.562    60823.556    43877.471    11785.635       17.422        5.824      481.629      125.138        0.068      340.151       13.971      854.655
11/28/2014  17:13:00     -471.254     -146.972       -8.621      249.225      226.007      124.935    62112.989    51079.070    15608.663       18.625        6.440      493.640      129.787        0.069      340.150       13.968      854.647
11/28/2014  17:14:00     -424.171     -273.358       -7.497      329.687      231.687      142.523   108693.455    53678.639    20312.748       21.866        9.134      504.624      186.107        0.136      340.103       13.889      854.604
11/28/2014  17:15:00     -528.814     -264.579      -20.555      313.093      224.166      111.584    98027.116    50250.414    12450.980       25.537        8.036      591.309      142.944        0.058      340.127       13.931      854.615
11/28/2014  17:16:00     -442.539     -237.612      -18.318      224.262      175.829      100.240    50293.422    30915.931    10048.134       17.193        4.563      502.295       94.271        0.035      340.114       13.909      854.560
11/28/2014  17:17:00     -404.732     -148.837       -8.230      194.217      182.224       98.231    37720.306    33205.746     9649.240       13.329        4.029      431.231       96.764        0.050      340.082       13.853      854.541
11/28/2014  17:18:00     -412.692     -215.918       -8.724      270.857      210.346      131.879    73363.653    44245.498    17392.102       17.598        6.750      465.763      144.861        0.097      340.079       13.848      854.539
11/28/2014  17:19:00     -389.227     -263.595      -17.894      221.185      190.311       99.544    48922.709    36218.152     9908.992       15.816        4.752      470.085      107.325        0.052      340.036       13.775      854.584
11/28/2014  17:20:00     -329.871     -186.244      -11.302      167.411      114.748       65.141    28026.432    13166.990     4243.395        9.452        2.272      378.816       60.513        0.026      340.001       13.717      854.537
11/28/2014  17:21:00     -566.354     -237.563      -13.946      269.323      187.504       99.783    72534.621    35157.710     9956.592       24.749        5.882      614.160      116.729        0.036      339.996       13.708      854.505
11/28/2014  17:22:00     -424.773     -261.400       -7.109      262.534      175.535      108.082    68924.307    30812.649    11681.649       18.009        5.571      498.760      136.534        0.075      339.965       13.655      854.529
11/28/2014  17:23:00     -498.445     -236.175      -11.868      245.685      157.334       92.514    60361.128    24753.922     8558.822       19.900        4.684      551.567       97.477        0.031      340.011       13.733      854.486
11/28/2014  17:24:00     -307.052      -78.291        5.936      299.840      177.194      102.893    89903.840    31397.593    10586.926       11.614        6.594      316.876      131.009        0.171      339.927       13.591      854.529
11/28/2014  17:25:00     -455.906     -203.549      -21.851      299.303      231.433      109.709    89582.486    53561.252    12036.137       20.244        7.759      499.282      119.884        0.058      339.973       13.671      854.521
11/28/2014  17:26:00     -416.385     -221.305        3.113      247.903      204.171      119.912    61455.993    41685.796    14379.005       16.992        5.876      471.542      137.399        0.085      339.961       13.650      854.502
11/28/2014  17:27:00     -341.642     -234.988        3.278      178.769      197.367      102.457    31958.177    38953.571    10497.406       12.666        4.070      414.655       97.631        0.055      339.959       13.646      854.545
11/28/2014  17:28:00     -448.541     -270.000      -23.793      287.190      205.614      108.571    82478.290    42277.194    11787.627       20.557        6.827      523.535      116.388        0.049      339.955       13.638      854.541
11/28/2014  17:29:00     -410.102     -200.605       -4.424      233.613      229.483      108.369    54575.265    52662.312    11743.864       16.369        5.949      456.537      124.197        0.074      339.941       13.615      854.552
11/28/2014  17:30:00     -375.217     -129.132      -13.627      218.836      181.805       96.643    47889.289    33052.924     9339.922       12.395        4.514      396.816      100.615        0.064      339.879       13.511      854.561
11/28/2014  17:31:00     -442.234     -151.426      -22.588      166.919      131.930       79.029    27862.085    17405.410     6245.576       13.525        2.576      467.441       81.524        0.030      339.825       13.421      854.534
11/28/2014  17:32:00     -433.545     -154.861      -44.797      237.275      129.361       74.071    56299.583    16734.249     5486.490       14.622        3.926      460.372       94.697        0.042      339.829       13.426      854.542
11/28/2014  17:33:00     -297.958     -101.883       17.162      213.795      168.856       95.389    45708.452    28512.240     9098.998        9.137        4.166      314.895      120.658        0.147      339.833       13.434      854.581
11/28/2014  17:34:00     -576.405     -219.817      -22.753      304.102      261.885      141.830    92478.232    68583.588    20115.867       28.109        9.059      616.897      163.640        0.070      339.887       13.525      854.510
11/28/2014  17:35:00     -497.941     -346.679      -14.642      219.652      208.159      108.049    48247.094    43330.363    11674.492       23.578        5.163      606.739      114.166        0.035      339.879       13.511      854.525
11/28/2014  17:36:00     -395.652      -97.460       -1.408      217.769      184.941      105.187    47423.364    34202.991    11064.288       12.935        4.635      407.479      120.490        0.087      339.808       13.393      854.582
11/28/2014  17:37:00     -365.134     -221.969       -1.844      214.166      205.484      108.388    45867.169    42223.485    11747.990       14.120        4.992      427.309      115.036        0.072      339.816       13.406      854.541
11/28/2014  17:38:00     -386.009      -84.997      -11.597      197.227      138.540       81.541    38898.324    19193.319     6648.956       11.054        3.237      395.256       94.950        0.058      339.795       13.369      854.490
11/28/2014  17:39:00     -219.750      -97.677        4.709      198.332      144.590       83.996    39335.601    20906.212     7055.303        6.256        3.365      240.480       84.995        0.125      339.691       13.197      854.546
11/28/2014  17:40:00     -318.699     -130.304       13.961      215.933      194.737      107.476    46627.061    37922.587    11551.137       10.740        4.805      344.308      120.602        0.123      339.707       13.222      854.530
11/28/2014  17:41:00     -258.085     -149.860       -6.431      217.616      185.903      104.131    47356.915    34559.807    10843.286        9.091        4.638      298.439      106.752        0.128      339.792       13.365      854.522
11/28/2014  17:42:00     -386.137     -146.187      -26.995      238.069      158.770       93.914    56676.822    25207.783     8819.763       13.093        4.535      412.883      108.535        0.069      339.816       13.406      854.551
11/28/2014  17:43:00     -361.205      -46.652       -1.664      243.888      183.174      102.452    59481.335    33552.863    10496.485       11.807        5.177      364.205      109.709        0.091      339.746       13.288      854.591
11/28/2014  17:44:00     -386.187     -111.792       -5.003      178.524      180.979       86.265    31870.875    32753.275     7441.688       11.685        3.603      402.042      105.843        0.069      339.739       13.277      854.648
11/28/2014  17:45:00     -336.487      -63.717       -5.413      224.456      119.506       85.319    50380.273    14281.739     7279.268        9.461        3.597      342.466      108.063        0.100      339.744       13.284      854.662
11/28/2014  17:46:00     -403.360     -251.311      -21.314      212.464      164.846       88.429    45141.136    27174.268     7819.753       15.321        4.007      475.243       94.169        0.039      339.776       13.338      854.697
11/28/2014  17:47:00     -242.884     -147.028        6.179      231.837      180.548       94.859    53748.506    32597.488     8998.165        8.798        4.767      283.919      107.483        0.143      339.802       13.383      854.674
11/28/2014  17:48:00     -423.826     -273.774      -20.853      198.232      202.252      102.300    39295.991    40905.976    10465.338       17.282        4.533      504.560      106.273        0.044      339.820       13.413      854.666
11/28/2014  17:49:00     -293.739      -72.116       -4.932      191.073      139.141       89.135    36508.890    19360.295     7945.066        7.765        3.191      302.462      104.878        0.120      339.794       13.368      854.700
11/28/2014  17:50:00     -329.616     -130.804       -8.876      212.857      176.547      102.861    45308.294    31168.687    10580.423       10.643        4.353      354.622      118.556        0.112      339.749       13.294      854.686
11/28/2014  17:51:00     -203.423     -146.252        2.998      222.156      172.869      111.827    49353.157    29883.862    12505.201        7.724        4.587      250.540      131.569        0.276      339.677       13.173      854.699
11/28/2014  17:52:00     -342.944     -149.347       -6.042      283.368      150.706      104.561    80297.328    22712.235    10933.099       12.692        5.697      374.052      120.832        0.104      339.702       13.215      854.701
11/28/2014  17:53:00     -696.992     -303.587      -43.757      276.780      203.533      119.030    76607.144    41425.485    14168.174       35.601        6.610      760.238      138.955        0.033      339.801       13.380      854.677
11/28/2014  17:54:00     -526.503      -77.261      -22.957      237.694      215.878      103.663    56498.608    46603.494    10745.927       19.875        5.692      532.141      109.566        0.042      339.780       13.346      854.624
11/28/2014  17:55:00     -339.237     -130.173        6.492      189.988      187.735       95.274    36095.621    35244.363     9077.196       10.623        4.021      363.355      100.266        0.076      339.726       13.255      854.600
11/28/2014  17:56:00     -347.885     -162.162       -0.083      249.937      184.554      118.428    62468.341    34060.321    14025.075       12.892        5.528      383.823      123.335        0.103      339.775       13.337      854.587
11/28/2014  17:57:00     -425.667     -293.025       -3.127      244.848      211.929      112.063    59950.302    44913.746    12558.133       19.222        5.871      516.775      127.684        0.061      339.825       13.420      854.572
11/28/2014  17:58:00     -267.065     -178.645       -2.209      194.074      150.813       99.481    37664.721    22744.617     9896.422        8.676        3.515      321.306      105.485        0.108      339.750       13.294      854.505
11/28/2014  17:59:00     -450.253      -86.000      -28.420      222.194      175.557       94.025    49370.333    30820.129     8840.785       14.996        4.452      458.393      106.776        0.054      339.704       13.216      854.482
11/28/2014  18:00:00     -329.756     -137.403      -14.499      182.241      118.419       81.176    33211.603    14023.016     6589.506        9.082        2.691      357.237       80.630        0.051      339.649       13.124      854.503
11/28/2014  18:01:00     -549.333     -321.863      -32.180      185.006      199.235      102.801    34227.333    39694.442    10568.076       24.543        4.224      636.681      107.828        0.029      339.639       13.107      854.510
11/28/2014  18:02:00     -297.304     -192.187       -4.704      145.176      125.093       62.715    21076.035    15648.182     3933.188        8.299        2.033      354.013       55.946        0.025      339.605       13.050      854.525
11/28/2014  18:03:00     -298.626     -177.111      -15.906      237.846      146.888      102.856    56570.571    21576.082    10579.430       10.474        4.436      347.197      119.663        0.119      339.562       12.977      854.542
11/28/2014  18:04:00     -444.043     -139.932      -22.941      211.066      136.491       80.581    44548.724    18629.835     6493.285       14.346        3.484      465.570       91.899        0.039      339.541       12.943      854.524
11/28/2014  18:05:00     -460.059     -102.888      -30.488      162.073      156.843       70.278    26267.571    24599.617     4938.971       13.948        2.790      471.424       64.956        0.019      339.600       13.040      854.536
11/28/2014  18:06:00     -297.231     -144.523       -1.133      186.972      166.019       95.053    34958.664    27562.202     9035.040        9.038        3.578      330.505      101.184        0.094      339.558       12.970      854.466
11/28/2014  18:07:00     -389.464     -283.914      -13.435      319.182      268.882      128.309   101876.923    72297.498    16463.327       21.152        9.532      481.964      150.131        0.097      339.622       13.079      854.486
11/28/2014  18:08:00     -558.247     -308.754      -13.422      277.432      209.718      128.838    76968.660    43981.464    16599.264       27.232        6.877      637.941      131.342        0.042      339.682       13.179      854.451
11/28/2014  18:09:00     -346.427     -156.655       16.863      271.923      170.061      112.959    73942.143    28920.629    12759.716       13.021        5.781      380.201      133.452        0.123      339.680       13.177      854.411
11/28/2014  18:10:00     -570.653     -293.467      -29.057      200.288      164.523       97.321    40115.445    27067.674     9471.340       24.462        3.833      641.692      100.786        0.025      339.689       13.191      854.506
11/28/2014  18:11:00     -435.398     -190.136      -10.675      271.646      255.098      139.204    73791.641    65074.926    19377.806       19.201        7.912      475.103      146.138        0.095      339.695       13.201      854.442
11/28/2014  18:12:00     -585.999     -270.854      -26.230      351.933      245.637      134.582   123856.865    60337.318    18112.429       30.983       10.115      645.567      161.667        0.063      339.721       13.244      854.453
11/28/2014  18:13:00     -597.573     -246.894      -21.683      361.199      251.977      127.314   130465.047    63492.318    16208.877       31.430       10.508      646.568      170.412        0.069      339.749       13.293      854.367
11/28/2014  18:14:00     -527.326     -275.118      -13.295      218.239      185.601       98.088    47628.360    34447.773     9621.275       22.280        4.585      594.779      110.504        0.035      339.696       13.205      854.382
11/28/2014  18:15:00     -464.653     -226.609      -21.400      217.245      200.056      107.615    47195.175    40022.411    11581.004       18.324        4.940      516.967      128.953        0.062      339.648       13.123      854.399
11/28/2014  18:16:00     -253.726      -99.631      -21.412      156.675      108.424       78.185    24546.974    11755.787     6112.935        5.858        2.121      272.586       79.481        0.085      339.603       13.047      854.393
11/28/2014  18:17:00     -238.380     -144.189        8.804      223.641      172.174       89.096    50015.298    29644.034     7938.105        8.263        4.380      278.595      109.965        0.156      339.546       12.949      854.407
11/28/2014  18:18:00     -325.980     -188.160       -9.020      202.283      172.869       94.892    40918.314    29883.792     9004.520       11.076        3.990      376.387       95.405        0.064      339.542       12.942      854.306
11/28/2014  18:19:00     -224.049     -180.330       13.264      174.847      158.077       95.850    30571.527    24988.247     9187.230        7.381        3.237      287.605      102.556        0.127      339.483       12.845      854.308
11/28/2014  18:20:00     -408.804     -162.994       -7.071      227.366      143.548       90.326    51695.098    20605.955     8158.746       13.708        4.023      440.099      104.127        0.056      339.504       12.879      854.325
11/28/2014  18:21:00     -307.174     -255.136      -11.258      208.241      205.774      116.015    43364.154    42343.003    13459.468       12.935        4.958      399.312      128.096        0.103      339.512       12.893      854.299
11/28/2014  18:22:00     -384.859     -191.801       -7.957      210.499      164.662       98.333    44309.625    27113.472     9669.306       13.301        4.055      430.005      112.852        0.069      339.525       12.915      854.287
11/28/2014  18:23:00     -372.203     -164.823        6.448      249.369      162.546      111.447    62185.100    26421.336    12420.465       13.336        5.051      407.064      140.808        0.120      339.503       12.877      854.275
11/28/2014  18:24:00     -391.741     -219.907       -0.454      213.994      152.555       86.423    45793.443    23272.934     7468.990       13.916        3.827      449.244      100.741        0.050      339.450       12.787      854.256
11/28/2014  18:25:00     -344.767     -125.414      -13.489      150.995      176.370       71.546    22799.636    31106.290     5118.809        9.689        2.951      366.869       60.373        0.027      339.435       12.763      854.236
11/28/2014  18:26:00     -482.040     -219.380      -13.402      217.887      191.707       93.623    47474.924    36751.516     8765.244       18.681        4.650      529.613      102.639        0.038      339.456       12.798      854.181
11/28/2014  18:27:00     -453.773     -240.604      -10.612      246.061      228.102      127.878    60546.173    52030.438    16352.802       19.640        6.446      513.615      130.728        0.065      339.443       12.777      854.204
11/28/2014  18:28:00     -468.787     -279.126      -20.330      226.351      220.898      110.263    51234.726    48796.015    12157.847       20.512        5.609      545.594       99.413        0.033      339.421       12.739      854.197
11/28/2014  18:29:00     -341.113     -177.180        7.082      236.470      150.268       95.015    55918.142    22580.553     9027.843       11.765        4.376      384.384      123.049        0.102      339.392       12.691      854.188
11/28/2014  18:30:00     -400.565     -177.701      -38.186      189.433      154.865       77.651    35884.900    23983.320     6029.717       12.968        3.295      438.212       69.970        0.025      339.428       12.751      854.221
11/28/2014  18:31:00     -368.945     -108.974      -13.194      192.473      206.377       91.149    37045.891    42591.597     8308.221       11.804        4.397      384.702       99.769        0.067      339.467       12.816      854.219
11/28/2014  18:32:00     -402.274     -241.403      -15.784      215.473      176.227       89.698    46428.572    31056.034     8045.735       15.292        4.277      469.148       93.507        0.040      339.405       12.711      854.209
11/28/2014  18:33:00     -349.014     -195.835      -14.325      187.727      192.425       94.325    35241.613    37027.197     8897.169       12.075        4.058      400.203      105.203        0.069      339.447       12.783      854.186
11/28/2014  18:34:00     -457.658     -324.499      -30.732      250.073      191.154      106.299    62536.356    36539.879    11299.430       21.301        5.519      561.026      106.339        0.036      339.439       12.769      854.108
11/28/2014  18:35:00     -390.054     -191.025        6.296      255.319      166.179       93.344    65187.561    27615.322     8713.026       14.507        5.076      434.319      109.999        0.064      339.445       12.781      854.139
11/28/2014  18:36:00     -320.327     -114.355       -6.813      211.103      157.188       93.647    44564.377    24708.017     8769.753        9.687        3.902      340.127      111.223        0.107      339.427       12.750      854.160
11/28/2014  18:37:00     -411.887     -263.859       -8.571      323.093      218.728      129.287   104389.093    47841.902    16715.224       20.411        8.447      489.154      163.136        0.111      339.436       12.764      854.127
11/28/2014  18:38:00     -231.025      -96.596       14.752      180.117      166.008       89.141    32442.194    27558.606     7946.202        6.542        3.397      250.406      102.247        0.167      339.433       12.760      854.134
11/28/2014  18:39:00     -334.624     -211.761       -5.842      226.190      127.404       86.815    51161.948    16231.655     7536.889       11.588        3.747      396.000      103.920        0.069      339.371       12.656      854.148
11/28/2014  18:40:00     -297.928     -107.906       -5.273      217.720      162.965       82.860    47401.832    26557.434     6865.715        9.061        4.041      316.867       98.307        0.096      339.366       12.647      854.149
11/28/2014  18:41:00     -361.435     -206.259       -7.250      237.318      192.046       98.591    56319.771    36881.671     9720.115       13.806        5.146      416.147      129.442        0.097      339.401       12.706      854.168
11/28/2014  18:42:00     -570.927     -141.939      -38.582      226.337      219.396       99.304    51228.385    48134.796     9861.219       22.839        5.461      588.306       96.254        0.027      339.416       12.731      854.127
11/28/2014  18:43:00     -482.423     -195.918      -14.922      243.201      257.860      119.112    59146.518    66491.545    14187.786       20.555        6.991      520.687      124.519        0.057      339.427       12.748      854.104
11/28/2014  18:44:00     -496.965     -306.544      -20.069      224.157      173.934       89.459    50246.505    30253.088     8002.976       21.491        4.425      583.904       99.484        0.029      339.376       12.664      854.151
11/28/2014  18:45:00     -393.230     -104.206      -15.071      238.185      182.289      103.761    56732.321    33229.241    10766.424       13.320        5.036      406.803      119.802        0.087      339.370       12.654      854.212
11/28/2014  18:46:00     -242.592     -191.255        4.748      199.021      183.213       90.603    39609.496    33566.831     8208.986        8.840        4.069      308.916       85.374        0.076      339.354       12.628      854.226
11/28/2014  18:47:00     -402.940     -273.340      -20.297      212.130      184.917      110.494    44999.283    34194.127    12208.954       16.443        4.570      486.904      103.787        0.045      339.366       12.646      854.206
11/28/2014  18:48:00     -495.673     -276.349      -15.714      238.885      193.476      119.706    57065.937    37433.013    14329.607       21.555        5.441      567.504      131.993        0.054      339.411       12.722      854.225
11/28/2014  18:49:00     -351.100     -199.292       -4.506      271.812      199.110      103.638    73881.915    39644.883    10740.753       14.361        6.213      403.718      128.736        0.102      339.384       12.677      854.200
11/28/2014  18:50:00     -250.086     -106.839       -9.854      238.265      146.731       94.473    56770.300    21529.937     8925.188        8.062        4.361      271.952      112.715        0.172      339.340       12.603      854.193
11/28/2014  18:51:00     -427.907     -203.296      -22.688      241.457      197.456       97.964    58301.301    38988.885     9597.019       16.590        5.344      473.745      110.805        0.055      339.364       12.645      854.218
11/28/2014  18:52:00     -449.901     -127.281      -22.607      271.955      194.720      107.437    73959.746    37915.735    11542.776       17.125        6.171      467.558      126.798        0.074      339.366       12.646      854.231
11/28/2014  18:53:00     -376.462     -126.702      -10.042      197.468      145.309       86.687    38993.772    21114.844     7514.638       11.274        3.381      397.212      104.479        0.069      339.362       12.640      854.275
11/28/2014  18:54:00     -390.055     -172.989      -12.953      227.862      150.554       85.853    51920.963    22666.366     7370.681       13.208        4.098      426.694      112.603        0.070      339.305       12.542      854.263
11/28/2014  18:55:00     -261.192     -103.747      -15.852      151.278      126.930       71.727    22885.031    16111.249     5144.713        6.168        2.207      281.043       77.536        0.076      339.288       12.516      854.282
11/28/2014  18:56:00     -225.610     -139.584        0.270      170.369      136.596       81.281    29025.552    18658.471     6606.653        6.233        2.715      265.298       87.909        0.110      339.254       12.458      854.274
11/28/2014  18:57:00     -345.374     -161.773       -4.053      317.210      181.876       93.186   100622.316    33078.777     8683.573       14.390        7.119      381.384      133.058        0.122      339.295       12.528      854.309
11/28/2014  18:58:00     -277.795     -199.108       -4.344      158.822      204.304       74.116    25224.412    41740.081     5493.158        9.463        3.623      341.780       71.674        0.044      339.272       12.488      854.309
11/28/2014  18:59:00     -232.541     -162.826        1.078      190.851      135.334       77.103    36424.233    18315.229     5944.939        7.062        3.034      283.880       99.211        0.122      339.259       12.466      854.321
11/28/2014  19:00:00     -344.663     -235.170       -2.280      221.873      214.929       99.013    49227.454    46194.517     9803.545       13.964        5.261      417.250       89.781        0.046      339.355       12.629      854.331
11/28/2014  19:01:00     -272.952     -138.764       14.830      266.112      179.264      118.233    70815.684    32135.434    13978.951       10.543        5.847      306.200      147.769        0.233      339.382       12.676      854.331
11/28/2014  19:02:00     -418.570     -161.481      -15.102      215.139      197.337       86.456    46284.985    38941.696     7474.608       14.708        4.635      448.639       98.081        0.048      339.434       12.760      854.377
11/28/2014  19:03:00     -251.368      -55.326        7.778      185.939      156.380       96.509    34573.494    24454.783     9314.065        6.731        3.417      257.385       94.733        0.135      339.445       12.780      854.263
11/28/2014  19:04:00     -306.791       -7.105       -8.651      216.496      157.941       93.322    46870.493    24945.310     8708.995        8.737        4.026      306.873      102.190        0.111      339.454       12.796      854.332
11/28/2014  19:05:00     -529.431     -135.583      -18.393      188.638      187.039      101.781    35584.266    34983.774    10359.367       18.996        4.046      546.517       98.427        0.032      339.531       12.924      854.329
11/28/2014  19:06:00     -340.104     -145.028      -24.741      161.456      146.059       72.260    26068.138    21333.139     5221.507        9.496        2.631      369.735       69.639        0.035      339.417       12.734      854.317
11/28/2014  19:07:00     -382.678     -179.300        0.752      208.321      212.046      120.989    43397.771    44963.361    14638.230       14.077        5.150      422.600      125.627        0.088      339.397       12.699      854.298
11/28/2014  19:08:00     -342.728     -114.451      -18.352      175.467      144.338       75.241    30788.695    20833.525     5661.277        9.408        2.864      361.333       87.092        0.058      339.375       12.662      854.363
11/28/2014  19:09:00     -272.065      -45.348      -12.126      115.068      108.390       57.218    13240.597    11748.303     3273.906        5.224        1.413      275.818       57.582        0.044      339.423       12.742      854.394
11/28/2014  19:10:00     -354.601     -156.219      -32.401      212.370      198.398       87.257    45100.900    39361.670     7613.862       12.162        4.604      387.487       83.835        0.047      339.429       12.753      854.303
11/28/2014  19:11:00     -474.510      -75.612      -15.361      285.788      192.109       88.758    81674.662    36905.852     7877.904       17.876        6.323      480.497      104.379        0.047      339.437       12.768      854.283
11/28/2014  19:12:00     -343.420      -45.621      -12.307      152.648      160.006       79.196    23301.315    25601.949     6271.932        8.766        2.759      346.437       67.317        0.038      339.378       12.665      854.363
11/28/2014  19:13:00     -325.360      -40.280       -2.615      253.637      176.455      101.051    64331.801    31136.327    10211.328       10.656        5.284      327.844      114.680        0.122      339.420       12.737      854.351
11/28/2014  19:14:00     -280.125     -152.396       -1.177      218.055      202.277      101.572    47548.151    40916.176    10316.956       10.022        4.939      318.896      127.318        0.159      339.369       12.652      854.314
11/28/2014  19:15:00     -326.831     -174.250      -16.813      168.540      152.652       75.837    28405.792    23302.512     5751.261        9.745        2.873      370.380       81.531        0.048      339.400       12.703      854.368
11/28/2014  19:16:00     -196.542     -100.648        6.849      208.404      111.835       68.197    43432.421    12506.975     4650.855        5.469        3.030      220.814       85.276        0.149      339.349       12.621      854.332
11/28/2014  19:17:00     -194.643     -125.347       19.224      210.365      159.839       98.657    44253.269    25548.364     9733.259        6.674        3.977      231.512      103.755        0.201      339.392       12.692      854.405
11/28/2014  19:18:00     -259.704     -131.186       -5.482      182.117      140.286       78.211    33166.497    19680.125     6116.962        7.181        2.948      290.957       83.290        0.082      339.351       12.622      854.405
11/28/2014  19:19:00     -410.020     -170.895      -10.688      229.033      185.624       79.495    52456.156    34456.160     6319.398       14.532        4.662      444.209       81.645        0.034      339.536       12.933      854.365
11/28/2014  19:20:00     -204.734     -111.787       -4.504      164.659      134.782       86.077    27112.565    18166.145     7409.279        5.355        2.634      233.264       76.688        0.108      339.422       12.742      854.368
11/28/2014  19:21:00     -173.650     -112.843       18.387      153.813      138.895       76.259    23658.554    19291.814     5815.387        4.599        2.438      207.094       70.321        0.115      339.391       12.690      854.403
11/28/2014  19:22:00      -87.388      -97.065       20.313      105.120       82.792       62.845    11050.199     6854.459     3949.464        1.966        1.093      130.608       61.801        0.224      339.353       12.625      854.397
11/28/2014  19:23:00     -217.523      -68.445       -0.520      113.802       83.603       62.432    12950.982     6989.439     3897.781        3.791        1.192      228.037       61.306        0.072      339.377       12.666      854.358
11/28/2014  19:24:00     -356.782     -138.212      -20.216      189.174      154.624       79.171    35786.874    23908.498     6268.107       10.637        3.298      382.617       84.157        0.048      339.381       12.671      854.355
11/28/2014  19:25:00     -459.353     -269.144      -11.555      172.540      127.647       80.545    29770.100    16293.740     6487.498       16.805        2.628      532.394       89.407        0.028      339.374       12.661      854.292
11/28/2014  19:26:00     -380.461      -50.652      -22.008      120.510      138.353       68.330    14522.558    19141.686     4669.020        9.306        1.917      383.818       63.779        0.028      339.389       12.685      854.303
11/28/2014  19:27:00     -292.087     -120.410      -32.430      137.880       94.393       66.606    19010.935     8910.058     4436.341        6.660        1.618      315.933       67.039        0.045      339.324       12.574      854.363
11/28/2014  19:28:00     -165.209      -85.506        3.347      150.879      118.887       61.833    22764.345    14134.093     3823.312        3.766        2.036      186.025       70.102        0.142      339.330       12.586      854.308
11/28/2014  19:29:00     -140.687      -86.852       13.180      160.049      127.492       75.422    25615.686    16254.300     5688.435        3.752        2.378      165.337       78.807        0.227      339.333       12.591      854.307
11/28/2014  19:30:00     -191.725     -188.120      -16.768       87.554      117.708       55.326     7665.728    13855.141     3060.941        4.850        1.229      268.602       41.604        0.024      339.321       12.570      854.234
11/28/2014  19:31:00     -188.441     -129.765       -9.483      123.539      124.618       65.165    15261.950    15529.573     4246.436        4.373        1.752      228.799       72.113        0.099      339.272       12.490      854.180
11/28/2014  19:32:00     -223.707     -118.968        1.666      180.990      122.872       91.530    32757.447    15097.463     8377.715        6.021        2.812      253.373      103.057        0.165      339.325       12.577      854.156
11/28/2014  19:33:00     -134.922     -101.954       10.774      124.243      106.972       63.241    15436.280    11443.009     3999.448        2.979        1.544      169.111       74.272        0.193      339.321       12.572      854.172
11/28/2014  19:34:00      -44.089      -42.754       -2.956       98.332       54.551       30.895     9669.176     2975.789      954.515        0.869        0.680       61.414       24.287        0.156      339.294       12.529      854.226
11/28/2014  19:35:00      -44.568      -39.122       -3.094       40.205       26.719       27.102     1616.414      713.927      734.535        0.330        0.153       59.303       17.337        0.085      339.216       12.397      854.247
11/28/2014  19:36:00      -67.536       24.280       33.054       95.358       91.642       47.595     9093.147     8398.338     2265.264        1.300        0.988       71.768       34.983        0.238      339.241       12.439      854.203
11/28/2014  19:37:00      -82.185      -59.922       -7.890       65.162       52.744       31.783     4246.042     2781.902     1010.175        0.922        0.402      101.711       23.923        0.055      339.382       12.677      854.232
11/28/2014  19:38:00     -254.538      -43.450       -8.936      179.392      132.548       64.183    32181.509    17569.057     4119.453        6.030        2.694      258.220       58.917        0.052      339.411       12.724      854.146
11/28/2014  19:39:00     -274.777     -100.205      -17.328      153.473      110.014       48.505    23553.950    12103.123     2352.765        6.192        1.900      292.478       49.118        0.028      339.351       12.620      854.164
11/28/2014  19:40:00     -174.345      -23.788       -3.950      131.108       79.843       58.829    17189.401     6374.870     3460.867        2.900        1.351      175.961       69.047        0.154      339.363       12.641      854.193
11/28/2014  19:41:00     -176.103      -92.694      -10.663      130.995      108.390       73.825    17159.687    11748.384     5450.168        3.703        1.718      199.008       81.330        0.167      339.248       12.448      854.163
11/28/2014  19:42:00     -266.463      -37.188        0.835      130.023      138.236       71.030    16905.919    19109.167     5045.313        5.671        2.053      269.045       68.791        0.065      339.356       12.629      854.155
11/28/2014  19:43:00     -210.626      -68.019      -19.779      118.252       86.311       51.906    13983.559     7449.638     2694.235        3.675        1.206      221.337       44.868        0.041      339.361       12.639      854.123
11/28/2014  19:44:00     -326.611     -161.893       -1.897      156.384      119.594       76.116    24455.893    14302.813     5793.718        8.871        2.228      364.533       81.436        0.050      339.303       12.541      854.096
11/28/2014  19:45:00     -304.257     -180.335       -9.592      138.941       99.875       62.964    19304.644     9975.082     3964.510        7.921        1.662      353.685       61.295        0.030      339.249       12.450      854.067
11/28/2014  19:46:00     -258.848     -132.216       -8.630      146.063      127.166       63.919    21334.266    16171.188     4085.696        6.307        2.080      290.660       77.103        0.070      339.277       12.498      854.090
11/28/2014  19:47:00     -166.400      -49.386        7.746      123.629      105.596       57.791    15284.173    11150.579     3339.818        2.998        1.489      173.573       54.764        0.100      339.259       12.466      854.081
11/28/2014  19:48:00     -246.243      -36.384       -2.157      127.613       99.940       67.437    16285.025     9988.020     4547.712        4.639        1.541      248.917       68.279        0.075      339.411       12.723      854.030
11/28/2014  19:49:00     -199.597      -16.351      -16.235      143.401       82.886       60.246    20563.890     6870.141     3629.541        3.571        1.553      200.265       56.915        0.081      339.422       12.743      853.987
11/28/2014  19:50:00     -145.180      -32.528       -2.149      134.938      103.777       55.273    18208.149    10769.565     3055.110        2.708        1.602      148.779       66.727        0.201      339.286       12.514      853.989
11/28/2014  19:51:00     -127.399     -124.296       -8.278      105.472       82.225       60.402    11124.386     6760.925     3648.380        2.664        1.077      177.989       57.428        0.104      339.222       12.404      853.935
11/28/2014  19:52:00     -130.963      -77.368       -1.772       77.604       89.686       47.223     6022.356     8043.500     2230.013        1.971        0.815      152.109       40.872        0.072      339.240       12.436      853.892
11/28/2014  19:53:00     -253.906     -153.936      -12.486      117.822       91.052       56.712    13882.022     8290.552     3216.239        5.685        1.269      296.926       51.571        0.030      339.267       12.480      853.851
11/28/2014  19:54:00     -176.046       14.526        7.918      153.091       80.506       68.203    23436.937     6481.279     4651.717        3.291        1.728      176.645       78.156        0.196      339.277       12.499      853.847
11/28/2014  19:55:00     -171.682     -165.807       -7.184      110.644      103.429       64.813    12242.018    10697.500     4200.769        4.207        1.357      238.677       68.526        0.082      339.234       12.424      853.862
11/28/2014  19:56:00     -246.488     -135.496       -0.548      152.903      112.572       79.983    23379.219    12672.405     6397.258        6.077        2.122      281.275       92.533        0.108      339.230       12.418      853.872
11/28/2014  19:57:00     -197.654     -151.005      -11.270      150.488      126.147       76.851    22646.620    15912.999     5906.046        5.322        2.223      248.736       77.451        0.097      339.293       12.523      853.862
11/28/2014  19:58:00     -214.747     -201.523        5.981      135.298      126.707       89.006    18305.680    16054.562     7922.052        6.451        2.114      294.496       83.440        0.080      339.317       12.563      853.837
11/28/2014  19:59:00     -172.545      -73.905       -3.632      139.345       95.953       63.407    19417.030     9207.005     4020.498        3.394        1.632      187.707       78.058        0.173      339.244       12.442      853.832
11/28/2014  20:00:00     -225.179      -60.057       -4.089      152.983      130.747       59.148    23403.885    17094.766     3498.441        4.915        2.200      233.050       71.648        0.095      339.315       12.563      853.826
11/28/2014  20:01:00     -257.830     -118.367        5.803      195.312       94.350       77.302    38146.972     8901.905     5975.587        6.676        2.651      283.702      100.590        0.126      339.307       12.548      853.841
11/28/2014  20:02:00     -199.032     -123.296        4.468      156.086      150.620       77.300    24362.980    22686.333     5975.220        5.392        2.651      234.127       83.150        0.126      339.297       12.531      853.842
11/28/2014  20:03:00     -127.972      -85.486       10.453      136.223       97.082       62.985    18556.671     9424.990     3967.094        2.786        1.597      153.899       61.792        0.161      339.310       12.555      853.837
11/28/2014  20:04:00     -135.973      -73.577       12.761      131.568      141.778       60.028    17310.008    20100.894     3603.310        3.253        2.051      154.604       61.876        0.160      339.321       12.571      853.807
11/28/2014  20:05:00     -327.722     -175.358      -23.381      151.595      119.686       68.117    22981.150    14324.777     4639.981        9.031        2.097      371.688       77.597        0.044      339.356       12.629      853.850
11/28/2014  20:06:00     -271.115       -5.053       -9.142      107.746      112.540       57.369    11609.123    12665.183     3291.242        5.058        1.378      271.162       47.621        0.031      339.413       12.725      853.803
11/28/2014  20:07:00     -129.335      -70.929        9.247      102.880       79.973       50.873    10584.364     6395.758     2588.067        2.070        0.978      147.508       52.540        0.127      339.321       12.573      853.797
11/28/2014  20:08:00     -231.550      -90.330        1.779      161.541      142.307       78.430    26095.370    20251.413     6151.270        5.713        2.625      248.545       63.247        0.065      339.291       12.522      853.782
11/28/2014  20:09:00     -205.134     -134.712        4.072      112.553      149.600       69.137    12668.159    22380.068     4779.991        5.003        1.991      245.413       61.371        0.063      339.277       12.497      853.785
11/28/2014  20:10:00     -378.648     -150.248       -8.197      147.700      148.642       81.359    21815.400    22094.342     6619.341       10.826        2.526      407.368       67.090        0.027      339.396       12.697      853.767
11/28/2014  20:11:00     -349.008      -34.814      -36.009      141.727       95.685       71.191    20086.650     9155.708     5068.102        7.931        1.716      350.740       71.019        0.041      339.413       12.724      853.789
11/28/2014  20:12:00     -368.884     -141.630       -4.581      234.464      164.122       88.013    54973.355    26936.118     7746.302       12.289        4.483      395.139      107.476        0.074      339.391       12.690      853.807
11/28/2014  20:13:00     -243.532      -95.196        1.593      186.157      138.469       78.004    34654.520    19173.710     6084.620        6.413        2.996      261.477       83.200        0.101      339.319       12.568      853.806
11/28/2014  20:14:00     -458.586     -129.073       -1.001      191.171      182.037       83.317    36546.429    33137.634     6941.682       15.178        3.831      476.405       89.417        0.035      339.463       12.811      853.774
11/28/2014  20:15:00     -321.432      -99.461      -13.363      159.664       86.386       62.139    25492.545     7462.460     3861.307        7.510        1.841      336.468       71.111        0.045      339.426       12.747      853.861
11/28/2014  20:16:00     -276.185     -182.119       -5.686      175.800      129.007       79.014    30905.645    16642.893     6243.268        8.162        2.690      330.825       85.717        0.067      339.320       12.570      853.914
11/28/2014  20:17:00     -337.571     -107.460      -26.971      119.151       84.905       59.256    14197.006     7208.858     3511.317        7.557        1.246      354.262       58.552        0.027      339.391       12.689      853.894
11/28/2014  20:18:00     -368.969     -210.509       -9.572      158.273      116.530       66.007    25050.395    13579.329     4356.960       11.176        2.149      424.796       65.058        0.023      339.382       12.673      853.911
11/28/2014  20:19:00     -383.870     -129.692      -17.398      147.206      131.584       64.271    21669.751    17314.296     4130.756       10.379        2.156      405.187       77.740        0.037      339.345       12.610      853.887
11/28/2014  20:20:00     -224.756     -145.794       -2.277      137.040       97.263       67.271    18779.890     9460.119     4525.373        5.226        1.638      267.902       66.728        0.062      339.312       12.554      853.958
11/28/2014  20:21:00     -249.101     -186.086        1.351      145.860      117.820       70.373    21275.208    13881.492     4952.427        6.839        2.005      310.933       75.117        0.058      339.323       12.574      853.994
11/28/2014  20:22:00     -340.506     -139.675      -12.423      180.893      117.870       74.455    32722.277    13893.442     5543.505        9.387        2.608      368.040       73.108        0.039      339.349       12.618      854.029
11/28/2014  20:23:00     -308.146     -202.045      -13.422      233.246      156.787       78.477    54403.534    24582.082     6158.698       11.053        4.257      368.478       75.587        0.042      339.487       12.850      854.064
11/28/2014  20:24:00     -250.057     -166.043       20.252      278.365      178.134      109.042    77486.832    31731.760    11890.134       10.578        6.055      300.165      126.872        0.179      339.541       12.941      854.049
11/28/2014  20:25:00     -333.666     -291.335       -8.275      206.630      168.172       82.467    42695.787    28281.723     6800.763       13.701        3.889      442.955       39.426        0.008      339.559       12.973      854.112
11/28/2014  20:26:00     -268.944     -195.698        1.175      203.955      140.995       67.079    41597.470    19879.682     4499.535        8.829        3.299      332.608       74.483        0.050      339.556       12.967      854.128
11/28/2014  20:27:00     -336.713     -175.962       -6.822      181.866      130.283       68.320    33075.348    16973.592     4667.561        9.954        2.736      379.919       84.210        0.049      339.544       12.947      854.153
11/28/2014  20:28:00     -247.288     -236.340       -7.855      164.795      181.727       76.574    27157.525    33024.595     5863.597        9.154        3.302      342.064       68.557        0.040      339.582       13.010      854.128
11/28/2014  20:29:00     -199.398      -95.872        1.702      147.150      138.582       58.513    21653.164    19204.870     3423.807        4.661        2.214      221.249       45.170        0.042      339.622       13.080      854.145
11/28/2014  20:30:00     -134.593      -45.653        6.112      104.391       93.632       45.479    10897.435     8767.043     2068.360        2.098        1.087      142.125       38.580        0.074      339.489       12.856      854.184
11/28/2014  20:31:00     -171.776     -102.896      -10.360      108.583      129.875       41.569    11790.340    16867.444     1727.948        3.529        1.519      200.237       50.597        0.064      339.489       12.855      854.222
11/28/2014  20:32:00     -138.301      -66.355      -11.391       73.400       81.313       39.534     5387.632     6611.885     1562.929        1.861        0.678      153.395       39.470        0.066      339.444       12.780      854.247
11/28/2014  20:33:00     -164.911     -155.106       -6.945      123.348      119.405       66.402    15214.721    14257.502     4409.171        4.258        1.694      226.392       70.390        0.097      339.427       12.750      854.229
11/28/2014  20:34:00      -92.317      -85.614       -5.267       92.877       96.219       53.722     8626.138     9258.067     2886.054        1.832        1.039      125.905       51.277        0.166      339.524       12.914      854.227
11/28/2014  20:35:00     -144.422     -106.732       -2.201      115.852       67.017       48.940    13421.610     4491.326     2395.132        2.628        1.015      179.581       40.391        0.051      339.388       12.685      854.244
11/28/2014  20:36:00     -115.097      -61.353        2.189      102.608       52.714       40.096    10528.319     2778.741     1607.692        1.596        0.746      130.428       47.723        0.134      339.349       12.621      854.247
11/28/2014  20:37:00      -83.030      -43.952        5.928       61.582       57.239       27.163     3792.294     3276.356      737.815        0.833        0.390       93.946       20.127        0.046      339.428       12.753      854.234
11/28/2014  20:38:00     -153.583     -106.245        5.769      155.158       66.338       51.113    24074.051     4400.753     2612.562        3.299        1.554      186.750       68.939        0.136      339.418       12.735      854.258
11/28/2014  20:39:00      -77.282     -199.438       -3.607       70.911       64.134       35.800     5028.431     4113.177     1281.647        2.809        0.521      213.888       29.517        0.019      339.497       12.867      854.250
11/28/2014  20:40:00      -76.449     -151.012       -5.865       97.187       67.690       38.940     9445.230     4581.940     1516.338        2.211        0.777      169.260       26.192        0.024      339.500       12.873      854.223
11/28/2014  20:41:00      -34.572       -3.517      -10.574       56.508       67.939       44.267     3193.099     4615.641     1959.598        0.554        0.488       34.750       32.284        0.863      339.468       12.822      854.218
11/28/2014  20:42:00       11.429       43.315       12.626       40.228       68.420       47.316     1618.322     4681.313     2238.827        0.535        0.427       44.798       20.829        0.216      339.382       12.678      854.202
11/28/2014  20:43:00      -28.737       38.281        7.923       82.440       40.629       33.415     6796.404     1650.756     1116.589        0.596        0.478       47.867       42.747        0.798      339.428       12.755      854.178
11/28/2014  20:44:00      -36.570        4.290       21.170       55.999       45.222       26.166     3135.865     2045.031      684.685        0.383        0.293       36.821       23.527        0.408      339.523       12.913      854.172
11/28/2014  20:45:00       62.222       60.575       -1.846       44.462       46.919       34.325     1976.902     2201.367     1178.236        0.645        0.268       86.839       16.148        0.035      339.289       12.519      854.126
11/28/2014  20:46:00       91.627       28.848       10.615       45.383       44.537       40.740     2059.638     1983.525     1659.774        0.752        0.285       96.061       25.995        0.073      339.123       12.240      854.118
11/28/2014  20:47:00       53.842       37.622       24.802       45.823       33.050       31.737     2099.709     1092.278     1007.234        0.456        0.210       65.684       19.104        0.085      338.988       12.014      854.146
11/28/2014  20:48:00       26.758       22.285       37.609       45.100       37.257       22.579     2033.982     1388.067      509.811        0.328        0.197       34.822       21.383        0.377      338.942       11.936      854.158
11/28/2014  20:49:00       36.236       50.967       72.954       79.507       46.145       57.439     6321.406     2129.316     3299.205        1.049        0.587       62.535       56.452        0.815      338.997       12.028      854.154
11/28/2014  20:50:00      119.412       80.587       61.822       78.474       55.327       58.200     6158.142     3061.035     3387.193        1.859        0.630      144.061       52.760        0.134      339.010       12.049      854.137
11/28/2014  20:51:00       77.037       42.844        4.939       84.581       44.683       33.607     7153.884     1996.603     1129.459        0.904        0.514       88.149       11.587        0.017      339.068       12.149      854.157
11/28/2014  20:52:00      237.057      151.674       13.729      100.548       59.012       28.369    10109.905     3482.402      804.788        4.689        0.720      281.426       23.249        0.007      339.148       12.279      854.131
11/28/2014  20:53:00      -26.435      285.868      -35.064      235.481      102.207       54.630    55451.341    10446.274     2984.465        7.625        3.444      287.088       39.026        0.018      339.439       12.770      854.056
11/28/2014  20:54:00     -279.695       11.357      -32.090       89.978       88.323       51.205     8096.046     7800.870     2621.944        4.895        0.926      279.926       49.101        0.031      339.502       12.875      854.095
11/28/2014  20:55:00     -187.138       41.932      -14.244       74.239      106.928       33.766     5511.373    11433.542     1140.141        2.753        0.904      191.778       28.257        0.022      339.400       12.705      854.140
11/28/2014  20:56:00     -105.263       82.107      -23.504       63.697       45.624       29.927     4057.296     2081.535      895.618        1.270        0.352      133.498       38.659        0.084      339.306       12.548      854.176
11/28/2014  20:57:00      -20.202      102.543      -13.689       41.542       51.771       26.209     1725.759     2680.199      686.894        0.810        0.255      104.514       27.860        0.071      339.324       12.581      854.170
11/28/2014  20:58:00      -10.606      106.976        5.928       36.541       63.525       36.031     1335.240     4035.476     1298.206        0.913        0.333      107.500       38.543        0.129      339.383       12.679      854.182
11/28/2014  20:59:00       -0.762      114.703      -11.119       36.628       27.975       20.018     1341.618      782.616      400.737        0.790        0.126      114.706       13.665        0.014      339.551       12.962      854.192
11/28/2014  21:00:00        2.255       51.452      -11.755       40.812       25.566       21.935     1665.629      653.631      481.153        0.279        0.140       51.502       18.561        0.130      339.488       12.853      854.208
11/28/2014  21:01:00       20.651       98.251      -14.093       21.558       37.226       21.482      464.743     1385.792      461.483        0.629        0.116      100.398       23.103        0.053      339.416       12.731      854.216
11/28/2014  21:02:00      110.409       60.034       14.206       57.646       41.098       32.461     3323.038     1689.006     1053.717        1.103        0.303      125.675       29.334        0.054      339.084       12.175      854.169
11/28/2014  21:03:00      154.969      122.913       24.796      115.803       95.766       62.485    13410.394     9171.033     3904.353        3.311        1.324      197.795       56.395        0.081      339.014       12.055      854.156
11/28/2014  21:04:00      129.267      127.735       20.024       99.050       88.473       75.780     9810.836     7827.404     5742.626        2.840        1.169      181.731       51.661        0.081      338.952       11.952      854.172
11/28/2014  21:05:00      111.093      139.027        3.444       81.499       79.114       56.961     6642.106     6259.022     3244.501        2.391        0.807      177.961       49.736        0.078      338.802       11.699      854.143
11/28/2014  21:06:00      114.340       99.825       11.152       82.334       66.956       50.604     6778.869     4483.107     2560.785        1.849        0.691      151.785       35.732        0.055      338.794       11.686      854.122
11/28/2014  21:07:00      126.901       97.611       32.435       73.613       51.120       45.693     5418.838     2613.208     2087.877        1.840        0.506      160.099       34.393        0.046      338.744       11.604      854.111
11/28/2014  21:08:00      172.273      144.710       30.180       82.862       71.953       66.028     6866.118     5177.195     4359.739        3.396        0.820      224.987       56.167        0.062      338.705       11.535      854.081
11/28/2014  21:09:00      219.624      159.863       43.987      108.968       76.144       58.603    11874.070     5797.902     3434.319        4.841        1.055      271.645       36.319        0.018      338.763       11.633      854.061
11/28/2014  21:10:00      230.350      155.184       27.800      113.980       86.210       73.914    12991.418     7432.081     5463.249        5.190        1.294      277.747       53.754        0.037      338.880       11.829      854.101
11/28/2014  21:11:00      103.182       79.481       17.601       73.351       47.526       48.664     5380.317     2258.755     2368.208        1.364        0.500      130.245       38.442        0.087      338.926       11.908      854.158
11/28/2014  21:12:00       34.506      141.118      -17.250       45.335       64.600       32.025     2055.271     4173.126     1025.600        1.433        0.363      145.276       30.474        0.044      338.878       11.828      854.235
11/28/2014  21:13:00       49.690      157.007      -15.850       70.698      101.895       53.830     4998.244    10382.581     2897.627        2.282        0.914      164.683       56.075        0.116      338.906       11.875      854.239
11/28/2014  21:14:00      137.785      279.133      -39.791      111.607      148.651       80.502    12456.233    22097.196     6480.536        6.975        2.052      311.288       78.541        0.064      338.976       11.991      854.219
11/28/2014  21:15:00      148.159      145.869       12.642      108.096       92.351       81.327    11684.661     8528.643     6614.158        3.510        1.341      207.916       59.402        0.082      339.048       12.112      854.231
11/28/2014  21:16:00      114.454       78.463        4.566      130.758       83.711       60.051    17097.617     7007.572     3606.065        2.349        1.386      138.766       49.199        0.126      339.093       12.189      854.262
11/28/2014  21:17:00      274.044      167.532      135.867      183.257      170.156      113.058    33583.297    28953.114    12782.169        9.846        3.766      321.196       92.421        0.083      339.525       12.915      854.208
11/28/2014  21:18:00      198.283       90.528       66.323      125.273       85.298       81.684    15693.339     7275.746     6672.219        4.077        1.482      217.971       58.624        0.072      339.424       12.745      854.312
11/28/2014  21:19:00      107.520       70.823       35.781      115.344       81.358       57.860    13304.127     6619.049     3347.797        2.056        1.164      128.750       43.667        0.115      339.377       12.666      854.437
11/28/2014  21:20:00      117.814      125.512       -6.644       88.231       57.333       52.808     7784.706     3287.095     2788.702        2.177        0.693      172.144       39.416        0.052      339.265       12.477      854.487
11/28/2014  21:21:00       99.786      106.494        3.608       81.078       81.433       51.838     6573.625     6631.345     2687.176        1.860        0.795      145.939       43.421        0.089      339.093       12.188      854.477
11/28/2014  21:22:00      168.664      192.876        4.100       88.381       96.512       72.535     7811.267     9314.619     5261.352        4.402        1.119      256.220       61.125        0.057      339.180       12.333      854.449
11/28/2014  21:23:00      124.110      164.468       -0.732      117.278      109.754       86.534    13754.076    12045.836     7488.219        3.786        1.664      206.041       68.287        0.110      339.177       12.330      854.443
11/28/2014  21:24:00      135.333      171.821       -8.342       86.930       94.237       60.433     7556.763     8880.645     3652.159        3.399        1.004      218.718       52.003        0.057      339.092       12.186      854.478
11/28/2014  21:25:00      229.599      181.343       14.693       88.310       92.955       67.589     7798.603     8640.652     4568.340        5.341        1.050      292.577       49.545        0.029      339.202       12.371      854.546
11/28/2014  21:26:00      132.222      123.627        9.947       79.494       97.605       72.675     6319.372     9526.674     5281.644        2.699        1.056      181.015       49.338        0.074      339.247       12.447      854.615
11/28/2014  21:27:00       47.090       26.771       51.756       44.163       56.749       38.049     1950.404     3220.502     1447.703        0.611        0.331       54.168       39.030        0.519      339.181       12.338      854.695
11/28/2014  21:28:00       -3.058      -11.129       35.043       19.313       31.199       34.229      372.989      973.404     1171.653        0.194        0.126       11.542       21.312        3.410      339.168       12.316      854.729
11/28/2014  21:29:00      113.874       89.159       13.054       61.713       53.227       45.257     3808.518     2833.150     2048.166        1.489        0.434      144.626       31.752        0.048      339.372       12.660      854.709
11/28/2014  21:30:00      236.581      163.244       27.535       87.428       70.701       50.864     7643.668     4998.637     2587.099        4.930        0.761      287.436       18.713        0.004      339.394       12.694      854.697
11/28/2014  21:31:00      185.727      130.155       21.904       75.513       68.543       59.664     5702.194     4698.163     3559.782        3.293        0.698      226.792       33.401        0.022      339.330       12.585      854.684
11/28/2014  21:32:00       97.415      176.479      142.838       88.301       74.269       63.524     7796.982     5515.950     4035.340        3.919        0.867      201.580       51.511        0.065      339.146       12.275      854.670
11/28/2014  21:33:00      109.144       57.856       91.836       83.762       59.425       50.479     7016.152     3531.365     2548.104        1.839        0.655      123.530       48.781        0.156      339.027       12.078      854.699
11/28/2014  21:34:00      151.628       75.808       51.140       66.296       62.391       59.376     4395.101     3892.613     3525.478        2.158        0.591      169.522       34.592        0.042      338.941       11.934      854.736
11/28/2014  21:35:00      107.783      115.126       96.398       73.185       65.623       55.111     5356.077     4306.365     3037.245        2.343        0.635      157.706       39.317        0.062      338.909       11.879      854.776
11/28/2014  21:36:00      199.718       84.413       25.592       88.085       61.009       54.131     7758.913     3722.046     2930.145        3.104        0.721      216.824       31.909        0.022      338.861       11.799      854.762
11/28/2014  21:37:00      175.007      103.159       22.020      106.782       78.696       50.978    11402.413     6193.095     2598.776        3.097        1.010      203.148       45.869        0.051      338.953       11.952      854.722
11/28/2014  21:38:00      114.127       78.707       27.399      123.184       71.578       61.709    15174.377     5123.405     3807.957        2.203        1.205      138.635       40.553        0.086      339.302       12.541      854.721
11/28/2014  21:39:00      131.488       60.513       10.773       68.396       42.121       36.505     4677.985     1774.148     1332.629        1.442        0.389      144.744       25.215        0.030      339.070       12.151      854.758
11/28/2014  21:40:00      114.293      100.201        8.992       76.498       52.489       41.211     5851.960     2755.075     1698.376        1.674        0.515      151.997       31.032        0.042      338.981       12.000      854.705
11/28/2014  21:41:00       67.306       78.554       27.081       75.583       65.311       64.361     5712.734     4265.568     4142.357        1.277        0.706      103.445       37.793        0.133      339.050       12.117      854.625
11/28/2014  21:42:00      229.303      115.184       68.337      133.955      107.424       73.859    17944.042    11539.822     5455.156        5.272        1.747      256.607       67.151        0.068      339.311       12.554      854.593
11/28/2014  21:43:00      225.076      163.782       90.767      139.427      104.884      105.951    19439.979    11000.701    11225.610        6.369        2.083      278.359       87.975        0.100      339.339       12.602      854.602
11/28/2014  21:44:00      108.823      146.576      143.926      133.058      108.953      102.427    17704.554    11870.711    10491.313        4.705        2.003      182.556       88.162        0.233      339.495       12.865      854.637
11/28/2014  21:45:00      105.597      103.256       91.469      103.967       72.459       82.150    10809.036     5250.245     6748.573        2.649        1.140      147.690       68.090        0.213      339.512       12.894      854.657
11/28/2014  21:46:00      135.233       69.265       55.219       92.347       69.397       61.512     8527.933     4815.966     3783.776        2.163        0.856      151.939       41.739        0.075      339.540       12.941      854.641
11/28/2014  21:47:00       -7.652       52.383      -15.031       64.307       77.096       23.952     4135.439     5943.833      573.718        0.684        0.533       52.939       31.511        0.354      339.624       13.085      854.697
11/28/2014  21:48:00      -77.392      113.667      -21.735       32.736       47.219       27.655     1071.654     2229.662      764.814        1.172        0.203      137.513       24.795        0.033      339.573       13.000      854.737
11/28/2014  21:49:00      -50.023      234.673      -27.468       52.753       91.940       31.564     2782.892     8452.959      996.314        3.528        0.612      239.945       37.392        0.024      339.351       12.621      854.732
11/28/2014  21:50:00      -15.483      258.120      -36.186      101.047       78.335       49.525    10210.397     6136.348     2452.689        4.348        0.940      258.584       50.269        0.038      339.271       12.487      854.700
11/28/2014  21:51:00       -1.915      109.604        2.118       64.997       93.268       51.074     4224.660     8698.951     2608.531        1.377        0.777      109.621       46.915        0.183      339.284       12.511      854.746
11/28/2014  21:52:00      -50.796      -24.312       19.846       81.041       57.162       42.286     6567.633     3267.499     1788.146        0.759        0.581       56.314       42.709        0.575      339.181       12.338      854.684
11/28/2014  21:53:00     -263.733      -54.623      -16.822       69.255       80.657       38.297     4796.291     6505.482     1466.641        4.279        0.638      269.331       36.411        0.018      339.370       12.651      854.795
11/28/2014  21:54:00     -105.712      -26.546        9.968      120.490       90.328       51.848    14517.724     8159.220     2688.172        1.867        1.268      108.994       59.536        0.298      339.424       12.747      854.902
11/28/2014  21:55:00     -150.288       -2.846       -9.443      125.472       83.513       42.776    15743.224     6974.385     1829.828        2.361        1.227      150.315       38.560        0.066      339.470       12.823      854.924
11/28/2014  21:56:00       10.274       89.821        0.910       91.247       61.098       41.244     8326.084     3732.946     1701.081        1.096        0.688       90.407       33.599        0.138      339.445       12.782      854.897
11/28/2014  21:57:00     -119.754       75.080      -15.876      181.273       90.300       52.794    32860.041     8154.051     2787.259        3.201        2.190      141.344       57.731        0.167      339.587       13.021      854.948
11/28/2014  21:58:00     -161.973       11.772       -9.188      118.310       60.561       41.333    13997.365     3667.643     1708.442        2.291        0.969      162.401       53.961        0.110      339.586       13.019      854.859
11/28/2014  21:59:00     -262.275      -91.741      -18.275       86.756       75.407       36.937     7526.592     5686.255     1364.339        4.605        0.729      277.857       27.860        0.010      339.428       12.751      854.756
11/28/2014  22:00:00     -191.017       -6.707        3.352      120.915       80.585       58.551    14620.492     6493.899     3428.205        3.054        1.227      191.135       69.492        0.132      339.463       12.810      854.749
11/28/2014  22:01:00     -160.984       57.036      -17.185       48.590       62.901       33.127     2360.954     3956.584     1097.387        1.844        0.371      170.789       24.073        0.020      339.579       13.007      854.799
11/28/2014  22:02:00     -177.082       65.214      -13.397       65.252       46.497       36.039     4257.883     2162.012     1298.784        2.175        0.386      188.709       37.029        0.039      339.664       13.151      854.757
11/28/2014  22:03:00     -115.814      -64.538      -11.701       63.615       49.785       33.322     4046.854     2478.582     1110.372        1.267        0.382      132.582       35.968        0.074      339.404       12.712      854.712
11/28/2014  22:04:00     -207.837      -84.923      -11.742      138.591      120.755       69.788    19207.353    14581.879     4870.384        4.460        1.933      224.518       83.611        0.139      339.302       12.539      854.703
11/28/2014  22:05:00        0.262      -69.947       12.587       80.417      137.107       40.990     6466.964    18798.237     1680.218        1.599        1.347       69.948       49.520        0.501      339.277       12.498      854.569
11/28/2014  22:06:00     -109.061       -0.994       -8.182       67.708       29.200       21.710     4584.353      852.668      471.316        0.893        0.295      109.065       31.852        0.085      339.410       12.723      854.355
11/28/2014  22:07:00      -46.365      -35.132       -2.286       90.876       42.502       32.599     8258.475     1806.423     1062.700        0.726        0.556       58.172       37.583        0.417      339.361       12.641      854.383
11/28/2014  22:08:00     -284.922     -177.670      -21.322      192.426      120.256       64.776    37027.766    14461.436     4195.945        8.443        2.784      335.778       73.455        0.048      339.241       12.437      854.311
11/28/2014  22:09:00     -493.122     -264.686       -2.362      333.973      275.057      112.483   111538.089    75656.301    12652.435       25.650        9.992      559.668      132.919        0.056      339.192       12.354      854.316
11/28/2014  22:10:00     -327.374     -175.064       -3.979      248.645      139.255       77.678    61824.299    19391.873     6033.856       11.253        4.363      371.243       63.648        0.029      339.169       12.315      854.374
11/28/2014  22:11:00     -162.557     -321.810      -21.950      126.934      135.454       75.939    16112.225    18347.899     5766.712        8.534        2.011      360.536       65.352        0.033      339.149       12.282      854.437
11/28/2014  22:12:00     -248.793     -195.833       -1.237      201.289      100.983       77.762    40517.403    10197.623     6046.894        7.849        2.838      316.620       91.201        0.083      339.102       12.201      854.329
11/28/2014  22:13:00     -194.842     -147.353        7.490      157.796      134.762       68.598    24899.450    18160.739     4705.634        5.374        2.388      244.287       80.315        0.108      339.052       12.119      854.346
11/28/2014  22:14:00     -382.320     -313.843      -21.992      252.466      213.137      108.406    63738.864    45427.587    11751.959       18.301        6.046      494.637      122.029        0.061      339.036       12.092      854.302
11/28/2014  22:15:00     -449.774     -224.238       -9.234      305.420      181.579       94.802    93281.643    32971.033     8987.373       19.393        6.762      502.572      125.871        0.063      339.012       12.051      854.259
11/28/2014  22:16:00     -316.781     -208.725       -9.889      210.388      180.220       99.566    44262.956    32479.347     9913.377       11.532        4.333      379.363      106.481        0.079      338.981       12.000      854.349
11/28/2014  22:17:00     -326.661     -229.560       -4.029      166.385      128.965       68.235    27684.082    16631.901     4656.050       10.419        2.449      399.256       73.193        0.034      338.978       11.993      854.379
11/28/2014  22:18:00     -358.874     -118.331      -25.289      165.823      156.602       68.188    27497.394    24524.277     4649.585       10.004        2.834      377.879       74.416        0.039      338.995       12.023      854.423
11/28/2014  22:19:00     -256.037      -73.036        9.344      176.300      168.926       94.142    31081.746    28535.966     8862.693        6.971        3.424      266.250       87.427        0.108      338.912       11.883      854.361
11/28/2014  22:20:00     -490.164     -290.596      -16.726      283.456      233.579      127.128    80347.506    54559.203    16161.458       23.800        7.553      569.831      148.338        0.068      338.935       11.922      854.320
11/28/2014  22:21:00     -324.423     -147.737        2.755      201.171      188.341      108.556    40469.610    35472.498    11784.437       10.739        4.386      356.478      117.666        0.109      338.919       11.895      854.383
11/28/2014  22:22:00     -379.753     -269.709      -14.113      197.453      163.094       81.316    38987.573    26599.678     6612.309       14.466        3.610      465.785       94.131        0.041      338.898       11.857      854.433
11/28/2014  22:23:00     -341.888     -230.725       -4.137      178.261      127.238       88.773    31776.897    16189.634     7880.686       11.298        2.792      412.457      104.233        0.064      338.888       11.843      854.434
11/28/2014  22:24:00     -347.403     -213.854        0.954      216.334      160.368       95.241    46800.597    25718.014     9070.915       12.399        4.079      407.949      111.345        0.074      338.865       11.804      854.473
11/28/2014  22:25:00     -423.191     -217.119       -9.450      186.080      118.815       75.840    34625.942    14116.921     5751.643       14.040        2.725      475.638       87.259        0.034      338.878       11.824      854.411
11/28/2014  22:26:00     -335.358     -225.655        5.458      184.979      166.156       90.763    34217.332    27607.964     8237.859       11.673        3.503      404.209      101.766        0.063      338.886       11.838      854.322
11/28/2014  22:27:00     -324.584     -216.409        0.318      185.508      135.540       75.051    34413.218    18371.116     5632.726       10.529        2.921      390.112       83.448        0.046      338.868       11.809      854.326
11/28/2014  22:28:00     -213.265     -147.687       -2.798      165.347      116.330       62.529    27339.476    13532.710     3909.921        5.603        2.239      259.409       63.539        0.060      338.848       11.778      854.406
11/28/2014  22:29:00     -260.926      -89.653        3.154      184.456      147.477       61.276    34024.085    21749.402     3754.710        6.782        2.976      275.899       72.530        0.069      338.883       11.835      854.403
11/28/2014  22:30:00     -188.122     -111.705       -2.242      116.105       94.421       46.073    13480.282     8915.238     2122.737        3.619        1.226      218.788       46.583        0.045      338.852       11.783      854.363
11/28/2014  22:31:00     -149.169      -59.895        1.656      106.902       71.440       48.186    11428.035     5103.608     2321.890        2.234        0.943      160.744       49.364        0.094      338.822       11.732      854.387
11/28/2014  22:32:00     -203.026     -197.458      -13.512      149.022      142.754       70.875    22207.529    20378.750     5023.312        6.399        2.380      283.213       72.671        0.066      338.824       11.736      854.199
11/28/2014  22:33:00     -199.549     -346.944        3.475      152.589      233.553       70.384    23283.275    54547.064     4953.875       12.148        4.139      400.237       76.535        0.037      338.805       11.704      854.125
11/28/2014  22:34:00     -318.373     -117.257       -2.224      128.933      157.035       62.992    16623.696    24660.101     3968.030        8.017        2.263      339.280       54.351        0.026      338.807       11.707      854.175
11/28/2014  22:35:00     -155.095      -61.083       10.966      125.873      112.719       74.549    15843.898    12705.503     5557.557        3.100        1.705      166.690       72.444        0.189      338.759       11.626      854.264
11/28/2014  22:36:00     -187.575     -110.073      -16.459      225.472       93.588       65.693    50837.401     8758.626     4315.568        5.573        3.196      217.487       94.752        0.190      338.737       11.589      854.330
11/28/2014  22:37:00     -248.892     -236.067       -7.049      253.803      156.457       84.207    64416.048    24478.702     7090.775       10.684        4.799      343.038       76.747        0.050      338.738       11.592      854.284
11/28/2014  22:38:00     -373.929     -150.773      -35.929      194.436      141.977       59.099    37805.487    20157.589     3492.743       11.264        3.073      403.181       55.130        0.019      338.688       11.506      854.285
11/28/2014  22:39:00     -128.759      -15.259      -21.568       69.414       44.303       49.784     4818.252     1962.739     2478.415        1.327        0.463      129.660       42.054        0.105      338.685       11.502      854.365
11/28/2014  22:40:00     -177.712     -175.056       12.587      165.580      142.573       66.589    27416.793    20327.163     4434.122        5.727        2.609      249.452       75.026        0.090      338.680       11.492      854.453
11/28/2014  22:41:00     -324.158     -244.347      -13.348      232.216      182.392       83.087    53924.312    33266.688     6903.451       12.951        4.705      405.935       98.646        0.059      338.678       11.488      854.461
11/28/2014  22:42:00     -238.058     -204.398       -0.197      175.278      165.961       70.639    30722.241    27543.110     4989.925        8.084        3.163      313.768       75.658        0.058      338.686       11.504      854.492
11/28/2014  22:43:00     -479.189     -254.607      -36.220      203.302      235.121      117.725    41331.560    55282.106    13859.129       20.309        5.524      542.629      120.760        0.050      338.666       11.468      854.513
11/28/2014  22:44:00     -402.066     -216.252      -29.015      183.605      180.828       92.977    33710.848    32698.795     8644.748       14.214        3.753      456.532       96.128        0.044      338.619       11.390      854.555
11/28/2014  22:45:00     -268.179     -251.510       -2.616      275.567      175.138      119.847    75936.900    30673.363    14363.353       12.805        6.049      367.664      134.002        0.133      338.630       11.409      854.662
11/28/2014  22:46:00     -267.732     -173.071      -14.617      159.832      133.500       76.368    25546.194    17822.357     5832.058        7.551        2.460      318.801       65.360        0.042      338.706       11.535      854.663
11/28/2014  22:47:00     -216.941     -144.574       19.215      202.624      165.969       82.877    41056.418    27545.729     6868.654        7.189        3.774      260.700       98.136        0.142      338.703       11.532      854.552
11/28/2014  22:48:00     -254.785     -313.121        8.451      200.424      219.989       88.083    40169.586    48395.063     7758.631       12.966        4.816      403.683      106.596        0.070      338.799       11.694      854.466
11/28/2014  22:49:00      -73.332      -80.849       -0.640      108.204       56.973       44.029    11708.016     3245.945     1938.550        1.440        0.845      109.152       44.655        0.167      338.741       11.598      854.454
11/28/2014  22:50:00     -225.055     -120.315       13.459      154.903       94.636       53.835    23995.021     8955.955     2898.181        5.057        1.792      255.197       64.223        0.063      338.745       11.604      854.522
11/28/2014  22:51:00     -157.430     -139.039        4.943      116.682      132.048       51.398    13614.729    17436.741     2641.720        3.891        1.685      210.038       56.671        0.073      338.792       11.683      854.623
11/28/2014  22:52:00      -55.504      -18.844       11.744       86.594       51.579       34.923     7498.480     2660.411     1219.628        0.747        0.569       58.615       41.300        0.496      338.846       11.774      854.610
11/28/2014  22:53:00      -93.931        7.664       -0.265       82.990       62.169       42.162     6887.411     3865.013     1777.670        1.070        0.627       94.243       37.106        0.155      338.862       11.802      854.663
11/28/2014  22:54:00     -148.358      -38.540        2.320      146.787       69.068       43.644    21546.559     4770.442     1904.786        2.586        1.411      153.282       58.117        0.144      338.827       11.744      854.561
11/28/2014  22:55:00     -124.368     -254.493       18.671      180.086      233.316       86.106    32430.904    54436.533     7414.266        8.741        4.714      283.256       88.143        0.097      338.768       11.643      854.438
11/28/2014  22:56:00     -157.979      -59.104        5.542      126.565      132.997       61.715    16018.630    17688.181     3808.765        3.299        1.876      168.673       67.566        0.160      338.697       11.522      854.394
11/28/2014  22:57:00     -604.604      -49.457      -36.473      414.153      239.332      139.030   171522.575    57279.814    19329.291       30.868       12.407      606.624      182.854        0.091      338.718       11.557      854.184
11/28/2014  22:58:00     -256.727      -44.832       21.746      299.622      231.844      108.568    89773.575    53751.500    11787.004       11.182        7.766      260.612      137.962        0.280      338.690       11.511      854.238
11/28/2014  22:59:00     -435.434     -141.337      -20.945      264.006      153.674       83.849    69699.042    23615.691     7030.587       15.516        5.017      457.798      106.100        0.054      338.664       11.467      854.254
11/28/2014  23:00:00     -398.716     -139.613      -34.720      224.260      156.093       76.514    50292.350    24365.032     5854.452       13.008        4.026      422.453       86.894        0.042      338.609       11.374      854.289
11/28/2014  23:01:00     -353.144     -292.233      -14.677      238.522      173.012      106.424    56892.769    29933.074    11326.025       15.422        4.908      458.378      115.115        0.063      338.534       11.248      854.343
11/28/2014  23:02:00     -187.657     -173.952       41.580      316.003      334.381      133.640    99857.783   111810.356    17859.517       14.832       11.476      255.880      163.386        0.408      338.481       11.159      854.404
11/28/2014  23:03:00     -544.822     -440.179      -22.746      329.169      238.633      134.516   108352.299    56945.627    18094.497       33.721        9.170      700.421      148.369        0.045      338.564       11.297      854.472
11/28/2014  23:04:00     -450.835     -349.600        2.855      346.784      293.060      134.483   120258.856    85883.995    18085.714       27.481       11.211      570.502      161.004        0.080      338.551       11.277      854.565
11/28/2014  23:05:00     -463.489     -660.794       13.420      390.873      513.694      161.037   152781.605   263881.654    25933.053       54.703       22.130      807.138      225.175        0.078      338.508       11.204      854.676
11/28/2014  23:06:00     -702.669     -521.880      -12.141      454.273      328.390      181.121   206363.910   107840.173    32804.657       55.656       17.350      875.273      197.751        0.051      338.464       11.132      854.764
11/28/2014  23:07:00     -789.238     -613.406      -25.034      530.237      373.615      197.673   281150.800   139588.062    39074.419       72.971       22.991      999.582      234.276        0.055      338.373       10.978      854.703
11/28/2014  23:08:00     -571.188     -601.814       -2.660      382.141      409.093      172.519   146031.887   167356.676    29762.971       51.573       17.158      829.720      206.224        0.062      338.194       10.675      854.815
11/28/2014  23:09:00     -845.425     -517.598      -21.964      417.566      330.906      209.624   174361.062   109498.589    43942.058       65.540       16.390      991.288      214.627        0.047      338.040       10.420      854.843
11/28/2014  23:10:00     -727.722     -318.478      -23.811      445.556      372.471      162.361   198520.274   138734.834    26361.020       49.752       18.181      794.360      192.264        0.059      338.105       10.526      854.818
11/28/2014  23:11:00     -691.009     -455.856      -14.704      449.253      280.912      157.359   201828.608    78911.477    24761.935       49.545       15.275      827.827      226.937        0.075      338.133       10.573      854.886
11/28/2014  23:12:00     -598.623     -480.270      -19.104      409.436      252.540      171.779   167637.761    63776.619    29508.090       42.510       13.046      767.469      186.538        0.059      338.135       10.577      854.857
11/28/2014  23:13:00     -586.442     -469.652      -13.096      322.721      371.151      148.634   104148.702   137752.949    22091.967       41.427       13.200      751.324      167.393        0.050      338.017       10.379      854.918
11/28/2014  23:14:00     -948.924     -496.662      -54.954      522.222      394.490      178.326   272715.609   155622.364    31800.101       80.505       23.007     1071.042      219.567        0.042      337.795       10.008      854.919
11/28/2014  23:15:00    -1177.762     -718.378      -29.781      587.885      438.717      210.291   345608.488   192472.845    44222.476      124.307       29.115     1379.561      257.399        0.035      337.537        9.574      854.913
11/28/2014  23:16:00     -787.759     -571.662      -40.244      507.682      370.669      200.357   257741.092   137395.524    40142.889       69.204       21.764      973.325      245.521        0.064      337.306        9.187      855.184
11/28/2014  23:17:00     -798.839     -661.459      -18.053      482.208      396.205      177.375   232524.559   156978.105    31461.978       74.840       21.048     1037.146      192.850        0.035      337.052        8.762      855.276
11/28/2014  23:18:00    -1013.648     -526.965      -37.222      414.250      328.775      158.736   171602.904   108093.233    25197.033       80.567       15.245     1142.443      168.023        0.022      336.918        8.539      855.422
11/28/2014  23:19:00     -815.532     -416.664      -57.284      343.045      306.061      134.697   117680.115    93673.240    18143.409       53.569       11.475      915.807      158.889        0.030      336.745        8.251      855.645
11/28/2014  23:20:00     -772.278     -495.859      -14.575      514.727      413.747      194.719   264943.640   171186.866    37915.484       65.818       23.702      917.763      249.192        0.074      336.676        8.135      855.671
11/28/2014  23:21:00     -758.390     -476.762      -34.261      334.538      293.361      145.849   111915.413    86060.512    21271.834       51.140       10.962      895.800      173.704        0.038      336.670        8.123      855.612
11/28/2014  23:22:00     -446.748     -242.091       -4.698      279.747      199.996      104.873    78258.224    39998.352    10998.320       19.371        6.463      508.126      113.364        0.050      336.700        8.175      855.708
11/28/2014  23:23:00     -327.361     -290.844      -14.980      262.687      179.212      100.869    69004.406    32117.004    10174.638       15.162        5.565      437.899      117.399        0.072      336.719        8.206      855.740
11/28/2014  23:24:00     -630.169      -50.537      -23.444      342.976      251.672      130.884   117632.854    63338.608    17130.505       29.912        9.905      632.192      137.645        0.047      336.749        8.258      855.626
11/28/2014  23:25:00     -380.844     -155.576        7.312      294.803      210.687      134.354    86909.074    44389.222    18050.986       15.929        7.467      411.395      135.025        0.108      336.688        8.155      855.534
11/28/2014  23:26:00     -624.960     -184.551      -29.081      261.182      229.484      121.785    68215.842    52662.957    14831.477       28.057        6.786      651.639      134.051        0.042      336.634        8.065      855.350
11/28/2014  23:27:00     -348.952      -72.337       11.749      281.306      258.739      117.251    79133.151    66945.987    13747.680       14.345        7.991      356.371      124.034        0.121      336.628        8.055      855.319
11/28/2014  23:28:00     -818.865     -184.541      -63.442      426.382      308.337      124.408   181801.249    95071.698    15477.336       50.043       14.618      839.401      151.550        0.033      336.493        7.828      855.193
11/28/2014  23:29:00     -560.091     -195.096      -21.216      316.612      243.491      129.268   100243.429    59287.656    16710.172       26.419        8.812      593.097      141.593        0.057      336.356        7.599      855.127
11/28/2014  23:30:00     -672.000     -236.277      -33.037      353.965      289.822      152.869   125291.348    83997.064    23369.078       37.053       11.633      712.327      179.196        0.063      336.286        7.481      855.064
11/28/2014  23:31:00     -390.077      -92.447      -20.008      325.144      209.533      149.873   105718.837    43904.028    22461.775       16.656        8.604      400.882      156.177        0.152      336.310        7.521      854.971
11/28/2014  23:32:00     -366.508     -247.079       26.864      294.002      276.304      139.158    86436.957    76343.851    19365.015       18.909        9.107      442.014      159.483        0.130      336.222        7.376      855.040
11/28/2014  23:33:00     -785.513     -159.690      -34.725      428.336      267.040      140.188   183471.591    71310.177    19652.639       45.903       13.722      801.581      166.390        0.043      336.133        7.227      855.052
11/28/2014  23:34:00     -698.536     -530.008      -22.444      415.724      370.131      178.461   172826.846   136996.680    31848.297       55.545       17.084      876.847      207.133        0.056      336.069        7.120      855.169
11/28/2014  23:35:00     -772.662     -307.934      -14.958      415.483      281.427      161.083   172626.471    79201.071    25947.757       48.486       13.889      831.763      211.104        0.064      336.056        7.099      855.305
11/28/2014  23:36:00     -475.771     -190.582       -6.431      276.185      235.386      113.833    76277.969    55406.334    12957.957       20.365        7.232      512.522      111.422        0.047      336.072        7.124      855.465
11/28/2014  23:37:00     -549.023     -393.448      -10.639      480.489      311.554      171.105   230869.272    97065.768    29277.064       40.671       17.861      675.446      236.640        0.123      335.946        6.915      855.563
11/28/2014  23:38:00     -778.218     -372.638      -15.725      425.377      356.496      177.840   180945.215   127089.676    31626.921       54.213       16.983      862.834      203.488        0.056      335.787        6.650      855.679
11/28/2014  23:39:00     -752.660     -456.367      -18.713      443.751      321.724      172.347   196914.668   103506.252    29703.632       55.256       16.506      880.209      209.591        0.057      335.687        6.482      855.947
11/28/2014  23:40:00     -551.961     -357.667       -7.266      358.285      301.242      175.818   128368.465    90746.887    30911.878       34.128       12.501      657.713      184.267        0.078      335.617        6.368      856.059
11/28/2014  23:41:00     -736.103     -337.383      -17.130      433.012      266.775      138.092   187499.793    71168.764    19069.313       46.680       13.887      809.738      165.381        0.042      335.419        6.037      856.165
11/28/2014  23:42:00     -744.488     -355.568      -45.087      350.417      272.813      144.528   122792.296    74426.825    20888.330       45.037       10.905      825.040      163.987        0.040      335.264        5.778      856.398
11/28/2014  23:43:00     -770.774     -320.913      -42.904      349.322      293.080      131.793   122025.574    85895.984    17369.408       46.206       11.265      834.912      148.304        0.032      335.094        5.498      856.511
11/28/2014  23:44:00     -560.907     -268.178       -1.920      414.488      325.333      170.711   171800.456   105841.641    29142.282       34.660       15.339      621.720      213.085        0.117      334.985        5.315      856.603
11/28/2014  23:45:00     -522.752     -332.333      -20.428      369.063      297.630      154.064   136207.614    88583.712    23735.631       31.628       12.426      619.447      168.843        0.074      334.915        5.200      856.556
11/28/2014  23:46:00     -817.382     -236.642      -35.549      345.017      268.043      130.579   119037.020    71846.817    17050.790       46.661       10.397      850.948      151.810        0.032      334.852        5.095      856.522
11/28/2014  23:47:00     -536.082     -231.110       -5.455      354.876      344.178      140.067   125937.216   118458.510    19618.838       30.237       13.201      583.777      154.722        0.070      334.853        5.098      856.426
11/28/2014  23:48:00     -982.534     -130.466      -54.948      435.108      257.724      146.033   189318.589    66421.901    21325.616       63.118       13.853      991.158      188.725        0.036      334.779        4.974      856.494
11/28/2014  23:49:00     -478.906     -238.805       -4.378      264.561      218.130      122.520    69992.342    47580.722    15011.040       20.946        6.629      535.144      130.357        0.059      334.792        4.995      856.521
11/28/2014  23:50:00     -305.957     -111.434        5.461      243.935      169.655       94.521    59504.312    28782.867     8934.312       10.162        4.861      325.618       87.796        0.073      334.784        4.982      856.436
11/28/2014  23:51:00     -311.498      -40.061       -5.266      228.904      184.773      102.157    52396.925    34141.179    10435.981        9.780        4.849      314.063      111.213        0.125      334.774        4.966      856.317
11/28/2014  23:52:00     -242.070      -64.466        6.925      204.395      157.763       90.696    41777.268    24889.277     8225.795        6.883        3.745      250.507       81.962        0.107      334.703        4.848      856.230
11/28/2014  23:53:00     -481.635       -8.766      -46.323      227.263      155.729       78.783    51648.409    24251.631     6206.767       15.813        4.105      481.715       99.689        0.043      334.644        4.749      856.134
11/28/2014  23:54:00     -564.261     -156.130       12.190      371.271      232.151      151.399   137841.950    53894.190    22921.722       27.874       10.733      585.463      211.257        0.130      334.633        4.730      855.952
11/28/2014  23:55:00     -493.737     -131.627      -15.762      288.038      241.417      110.988    82966.015    58282.240    12318.305       20.743        7.678      510.982      128.066        0.063      334.595        4.667      855.787
11/28/2014  23:56:00     -565.114     -150.024        6.268      371.403      249.537      132.165   137940.218    62268.547    17467.635       27.974       10.884      584.689      142.064        0.059      334.657        4.770      855.701
11/28/2014  23:57:00     -672.494      -97.224      -34.412      289.865      202.959      127.888    84021.771    41192.310    16355.273       30.220        7.078      679.486      127.486        0.035      334.817        5.037      855.752
11/28/2014  23:58:00     -569.083     -125.848      -14.717      296.301      186.091      121.335    87794.418    34629.841    14722.199       23.850        6.857      582.832      148.506        0.065      334.989        5.324      855.882
11/28/2014  23:59:00     -244.940     -127.633       18.386      201.301      205.783       92.209    40522.032    42346.564     8502.531        8.398        4.569      276.198      109.984        0.159      335.184        5.647      855.922
